[[{"header":{"parameterUnit":"m.s-1","parameterCategory":1,"la1":30.6,"la2":29.2853,"lo1":-89.7004,"lo2":-87.6739,"dy":0.0162,"dx":0.0183,"nx":112,"ny":82,"refTime":"2024-08-16T06:00:00:Z","depth":0,"parameterNumber":2,"parameterNumberName":"U-component_of_WINDS"},"data":[0.0,0.0,0.0,0.0,0.0,0.0,0.0,0.0,0.0,0.0,0.0,0.0,0.0,0.0,0.0,0.0,0.0,0.0,0.0,0.0,0.0,0.0,0.0,0.0,0.0,0.0,0.0,0.0,0.0,0.0,0.0,0.0,0.0,0.0,0.0,0.0,0.0,0.0,0.0,0.0,0.0,0.0,0.0,0.0,0.0,0.0,0.0,0.0,0.0,0.0,0.0,0.0,0.0,0.0,0.0,0.0,0.0,0.0,0.0,0.0,0.0,0.0,0.0,0.0,0.0,0.0,0.0,0.0,0.0,0.0,0.0,0.0,0.0,0.0,0.0,0.0,0.0,0.0,0.0,0.0,0.0,0.0,0.0,0.0,0.0,0.0,0.0,0.0,0.0,0.0,0.0,3.0955,3.3805,3.56,3.56,3.4822,3.2808,2.923,0.0,0.0,0.0,0.0,0.0,0.0,0.0,0.0,0.0,0.0,0.0,0.0,0.0,0.0,0.0,0.0,0.0,0.0,0.0,0.0,0.0,0.0,0.0,0.0,0.0,0.0,0.0,0.0,0.0,0.0,0.0,0.0,0.0,0.0,0.0,0.0,0.0,0.0,0.0,0.0,0.0,0.0,0.0,0.0,0.0,0.0,0.0,0.0,0.0,0.0,0.0,0.0,0.0,0.0,0.0,0.0,0.0,0.0,0.0,0.0,0.0,0.0,0.0,0.0,0.0,0.0,0.0,0.0,0.0,0.0,0.0,0.0,0.0,0.0,0.0,0.0,0.0,0.0,0.0,0.0,0.0,0.0,0.0,0.0,0.0,0.0,0.0,0.0,0.0,0.0,0.0,0.0,0.0,0.0,0.0,0.0,0.0,0.0,0.0,0.0,0.0,0.0,0.0,0.0,2.9825,3.3504,3.4922,3.56,3.56,3.4359,3.2256,2.9196,0.0,0.0,0.0,0.0,0.0,0.0,0.0,0.0,0.0,0.0,0.0,0.0,0.0,0.0,0.0,0.0,0.0,0.0,0.0,0.0,0.0,0.0,0.0,0.0,0.0,0.0,0.0,0.0,0.0,0.0,0.0,0.0,0.0,0.0,0.0,0.0,0.0,0.0,0.0,0.0,0.0,0.0,0.0,0.0,0.0,0.0,0.0,0.0,0.0,0.0,0.0,0.0,0.0,0.0,0.0,0.0,0.0,0.0,0.0,0.0,0.0,0.0,0.0,0.0,0.0,0.0,0.0,0.0,0.0,0.0,0.0,0.0,0.0,0.0,0.0,0.0,0.0,0.0,0.0,0.0,0.0,0.0,0.0,0.0,0.0,0.0,0.0,0.0,0.0,0.0,0.0,0.0,0.0,0.0,0.0,0.0,0.0,0.0,0.0,0.0,0.0,0.0,0.0,2.8388,3.077,3.4686,3.5408,3.56,3.56,3.4258,3.2138,2.9196,2.6805,0.0,0.0,0.0,0.0,0.0,0.0,0.0,0.0,0.0,0.0,0.0,0.0,0.0,0.0,0.0,0.0,0.0,0.0,0.0,0.0,0.0,0.0,0.0,0.0,0.0,0.0,0.0,0.0,0.0,0.0,0.0,0.0,0.0,0.0,0.0,0.0,0.0,0.0,0.0,0.0,0.0,0.0,0.0,0.0,0.0,0.0,0.0,0.0,0.0,0.0,0.0,0.0,0.0,0.0,0.0,0.0,0.0,0.0,0.0,0.0,0.0,0.0,0.0,0.0,0.0,0.0,0.0,0.0,0.0,0.0,0.0,0.0,0.0,0.0,0.0,0.0,0.0,0.0,0.0,0.0,0.0,0.0,0.0,0.0,0.0,0.0,0.0,0.0,0.0,0.0,0.0,0.0,0.0,0.0,0.0,0.0,0.0,0.0,0.0,0.0,0.0,0.0,3.0801,3.2094,3.5267,3.56,3.56,3.56,3.392,3.1765,2.9157,2.5841,0.0,0.0,0.0,0.0,0.0,0.0,0.0,0.0,0.0,0.0,0.0,0.0,0.0,0.0,0.0,0.0,0.0,0.0,0.0,0.0,0.0,0.0,0.0,0.0,0.0,0.0,0.0,0.0,0.0,0.0,0.0,0.0,0.0,0.0,0.0,0.0,0.0,0.0,0.0,0.0,0.0,0.0,0.0,0.0,0.0,0.0,0.0,0.0,0.0,0.0,0.0,0.0,0.0,0.0,0.0,0.0,0.0,0.0,0.0,0.0,0.0,0.0,0.0,0.0,0.0,0.0,0.0,0.0,0.0,0.0,0.0,0.0,0.0,0.0,0.0,0.0,0.0,0.0,0.0,0.0,0.0,0.0,0.0,0.0,0.0,0.0,0.0,0.0,0.0,0.0,0.0,0.0,0.0,0.0,0.0,0.0,0.0,0.0,0.0,0.0,0.0,0.0,3.15,3.3785,3.5436,3.56,3.56,3.56,3.2995,3.0676,2.9094,2.4881,0.0,0.0,0.0,0.0,0.0,0.0,0.0,0.0,0.0,0.0,0.0,0.0,0.0,0.0,0.0,0.0,0.0,0.0,0.0,0.0,0.0,0.0,0.0,0.0,0.0,0.0,0.0,0.0,0.0,0.0,0.0,0.0,0.0,0.0,0.0,0.0,0.0,0.0,0.0,0.0,0.0,0.0,0.0,0.0,0.0,0.0,0.0,0.0,0.0,0.0,0.0,0.0,0.0,0.0,0.0,0.0,0.0,0.0,0.0,0.0,0.0,0.0,0.0,0.0,0.0,0.0,0.0,0.0,0.0,0.0,0.0,0.0,0.0,0.0,0.0,0.0,0.0,0.0,0.0,0.0,0.0,0.0,0.0,0.0,0.0,0.0,0.0,0.0,0.0,0.0,0.0,0.0,0.0,0.0,0.0,0.0,0.0,0.0,0.0,0.0,0.0,0.0,3.0772,3.2944,0.0,3.56,3.56,3.56,3.3734,3.1546,2.9145,0.0,0.0,0.0,0.0,0.0,0.0,0.0,0.0,0.0,0.0,0.0,0.0,0.0,0.0,0.0,0.0,0.0,0.0,0.0,0.0,0.0,0.0,0.0,0.0,0.0,0.0,0.0,0.0,0.0,0.0,0.0,0.0,0.0,0.0,0.0,0.0,0.0,0.0,0.0,0.0,0.0,0.0,0.0,0.0,0.0,0.0,0.0,0.0,0.0,0.0,0.0,0.0,0.0,0.0,0.0,0.0,0.0,0.0,0.0,0.0,0.0,0.0,0.0,0.0,0.0,0.0,0.0,0.0,0.0,0.0,0.0,0.0,0.0,0.0,0.0,0.0,0.0,0.0,0.0,0.0,0.0,0.0,0.0,0.0,0.0,0.0,0.0,0.0,0.0,0.0,0.0,0.0,0.0,0.0,0.0,0.0,0.0,0.0,0.0,0.0,0.0,0.0,2.8481,3.0693,3.2848,0.0,3.56,3.5504,3.5273,3.3469,3.1287,2.8781,0.0,0.0,0.0,0.0,0.0,0.0,0.0,0.0,0.0,0.0,0.0,0.0,0.0,0.0,0.0,0.0,0.0,0.0,0.0,0.0,0.0,0.0,0.0,0.0,0.0,0.0,0.0,0.0,0.0,0.0,0.0,0.0,0.0,0.0,0.0,0.0,0.0,0.0,0.0,0.0,0.0,0.0,0.0,0.0,0.0,0.0,0.0,0.0,0.0,0.0,0.0,0.0,0.0,0.0,0.0,0.0,0.0,0.0,0.0,0.0,0.0,0.0,0.0,0.0,0.0,0.0,0.0,0.0,0.0,0.0,0.0,0.0,0.0,0.0,0.0,0.0,0.0,0.0,0.0,0.0,0.0,0.0,0.0,0.0,0.0,0.0,0.0,0.0,0.0,0.0,0.0,0.0,0.0,0.0,0.0,0.0,0.0,0.0,0.0,0.0,0.0,0.0,2.8604,3.1584,3.3976,3.543,3.56,3.5306,3.4562,3.1816,2.9451,0.0,0.0,0.0,0.0,0.0,0.0,0.0,0.0,0.0,0.0,0.0,0.0,0.0,0.0,0.0,0.0,0.0,0.0,0.0,0.0,0.0,0.0,0.0,0.0,0.0,0.0,0.0,0.0,0.0,0.0,0.0,0.0,0.0,0.0,0.0,0.0,0.0,0.0,0.0,0.0,0.0,0.0,0.0,0.0,0.0,0.0,0.0,0.0,0.0,0.0,0.0,0.0,0.0,0.0,0.0,0.0,0.0,0.0,0.0,0.0,0.0,0.0,0.0,0.0,0.0,0.0,0.0,0.0,0.0,0.0,0.0,0.0,0.0,0.0,0.0,0.0,0.0,0.0,0.0,0.0,0.0,0.0,0.0,0.0,0.0,0.0,0.0,0.0,0.0,0.0,0.0,0.0,0.0,0.0,0.0,0.0,0.0,0.0,0.0,0.0,0.0,0.0,0.0,2.8604,3.1584,3.3976,3.543,3.56,3.5306,3.4562,3.274,3.0552,2.7955,0.0,0.0,0.0,0.0,0.0,0.0,0.0,0.0,0.0,0.0,0.0,0.0,0.0,0.0,0.0,0.0,0.0,0.0,0.0,0.0,0.0,0.0,0.0,0.0,0.0,0.0,0.0,0.0,0.0,0.0,0.0,0.0,0.0,0.0,0.0,0.0,0.0,0.0,0.0,0.0,0.0,0.0,0.0,0.0,0.0,0.0,0.0,0.0,0.0,0.0,0.0,0.0,0.0,0.0,0.0,0.0,0.0,0.0,0.0,0.0,0.0,0.0,0.0,0.0,0.0,0.0,0.0,0.0,0.0,0.0,0.0,0.0,0.0,0.0,0.0,0.0,0.0,0.0,0.0,0.0,0.0,0.0,0.0,0.0,0.0,0.0,0.0,0.0,0.0,0.0,0.0,0.0,0.0,0.0,0.0,0.0,0.0,0.0,0.0,0.0,0.0,0.0,2.8604,3.1584,3.3976,3.543,3.56,3.5182,3.4156,3.2982,3.0884,2.7579,0.0,0.0,0.0,0.0,0.0,0.0,0.0,0.0,0.0,0.0,0.0,0.0,0.0,0.0,0.0,0.0,0.0,0.0,0.0,0.0,0.0,0.0,0.0,0.0,0.0,0.0,0.0,0.0,0.0,0.0,0.0,0.0,0.0,0.0,0.0,0.0,0.0,0.0,0.0,0.0,0.0,0.0,0.0,0.0,0.0,0.0,0.0,0.0,0.0,0.0,0.0,0.0,0.0,0.0,0.0,0.0,0.0,0.0,0.0,0.0,0.0,0.0,0.0,0.0,0.0,0.0,0.0,0.0,0.0,0.0,0.0,0.0,0.0,0.0,0.0,0.0,0.0,0.0,0.0,0.0,0.0,0.0,0.0,0.0,0.0,0.0,0.0,0.0,0.0,0.0,0.0,0.0,0.0,0.0,0.0,0.0,0.0,0.0,0.0,0.0,0.0,0.0,2.8604,3.1584,3.3976,3.543,3.56,3.4997,3.3536,3.2723,3.0736,2.7034,0.0,0.0,0.0,0.0,0.0,0.0,0.0,0.0,0.0,0.0,0.0,0.0,0.0,0.0,0.0,0.0,0.0,0.0,0.0,0.0,0.0,0.0,0.0,0.0,0.0,0.0,0.0,0.0,0.0,0.0,0.0,0.0,0.0,0.0,0.0,0.0,0.0,0.0,0.0,0.0,0.0,0.0,0.0,0.0,0.0,0.0,0.0,0.0,0.0,0.0,0.0,0.0,0.0,0.0,0.0,0.0,0.0,0.0,0.0,0.0,2.742,0.0,0.0,0.0,0.0,0.0,0.0,0.0,0.0,0.0,0.0,0.0,0.0,0.0,0.0,0.0,0.0,0.0,0.0,0.0,0.0,0.0,0.0,0.0,0.0,0.0,0.0,0.0,0.0,0.0,0.0,0.0,0.0,0.0,0.0,0.0,0.0,0.0,0.0,0.0,0.0,0.0,2.8604,3.1584,3.3976,3.543,3.56,3.4997,3.3536,3.2723,3.0951,2.7761,0.0,0.0,0.0,0.0,0.0,0.0,0.0,0.0,0.0,0.0,0.0,0.0,0.0,0.0,0.0,0.0,0.0,0.0,0.0,0.0,0.0,0.0,0.0,0.0,0.0,0.0,0.0,0.0,0.0,0.0,0.0,0.0,0.0,0.0,0.0,0.0,0.0,0.0,0.0,0.0,0.0,0.0,0.0,0.0,0.0,0.0,0.0,0.0,0.0,0.0,0.0,0.0,0.0,0.0,0.0,0.0,0.0,0.0,0.0,0.0,0.0,2.894,0.0,0.0,0.0,0.0,0.0,0.0,0.0,0.0,0.0,0.0,0.0,0.0,0.0,0.0,0.0,0.0,0.0,0.0,0.0,0.0,0.0,0.0,0.0,0.0,0.0,0.0,0.0,0.0,0.0,0.0,0.0,0.0,0.0,0.0,0.0,0.0,0.0,0.0,0.0,0.0,2.8654,3.1584,3.3976,3.543,3.56,3.5149,3.4027,3.3259,3.172,2.9079,2.6433,0.0,0.0,0.0,0.0,0.0,0.0,0.0,0.0,0.0,0.0,0.0,0.0,0.0,0.0,0.0,0.0,0.0,0.0,0.0,0.0,0.0,0.0,0.0,0.0,0.0,0.0,0.0,0.0,0.0,0.0,0.0,0.0,0.0,0.0,0.0,0.0,0.0,0.0,0.0,0.0,0.0,0.0,0.0,0.0,0.0,0.0,0.0,0.0,0.0,0.0,0.0,0.0,0.0,3.3044,3.3648,3.4928,3.4195,3.4516,3.556,3.3603,3.2723,3.2479,0.0,0.0,0.0,0.0,0.0,0.0,0.0,0.0,0.0,0.0,0.0,0.0,0.0,0.0,0.0,0.0,0.0,0.0,0.0,0.0,0.0,0.0,0.0,0.0,0.0,3.1524,3.0751,0.0,0.0,0.0,0.0,0.0,0.0,0.0,0.0,0.0,0.0,0.0,0.0,2.9073,3.1855,3.4111,3.5453,3.56,3.5306,3.4562,3.3829,3.2516,3.042,2.8286,2.6017,0.0,0.0,0.0,0.0,0.0,0.0,0.0,0.0,0.0,0.0,0.0,0.0,0.0,0.0,0.0,0.0,0.0,0.0,0.0,0.0,0.0,0.0,0.0,0.0,0.0,0.0,0.0,0.0,0.0,0.0,0.0,0.0,2.4585,2.681,0.0,0.0,0.0,0.0,0.0,0.0,0.0,0.0,0.0,0.0,0.0,0.0,0.0,3.222,3.2961,3.5019,3.6428,3.7172,3.8999,4.0324,4.1092,4.0358,4.0132,4.0257,3.9339,0.0,3.4127,3.3085,0.0,0.0,0.0,0.0,0.0,0.0,0.0,0.0,0.0,0.0,0.0,0.0,0.0,0.0,0.0,0.0,0.0,0.0,0.0,0.0,0.0,0.0,3.4619,3.4827,3.4946,3.4664,0.0,2.9622,2.6446,2.6057,2.4496,0.0,0.0,0.0,0.0,0.0,0.0,0.0,3.0536,3.2926,3.4675,3.5504,3.56,3.5306,3.4562,3.3829,3.2724,3.114,2.9564,2.8225,2.7163,2.4805,0.0,0.0,0.0,0.0,0.0,0.0,0.0,0.0,0.0,0.0,0.0,0.0,0.0,0.0,0.0,0.0,0.0,0.0,0.0,0.0,0.0,0.0,0.0,0.0,0.0,0.0,0.0,0.0,0.0,2.4272,2.6717,2.7684,2.8289,2.8141,0.0,0.0,0.0,0.0,0.0,0.0,0.0,0.0,0.0,3.4781,3.6034,3.7043,3.7781,3.9197,4.0049,4.0375,4.1363,4.1988,4.23,4.1972,4.1813,4.1796,4.1487,4.0168,3.8108,3.6135,3.4415,3.287,0.0,0.0,0.0,0.0,3.0908,3.1159,3.3264,3.3655,0.0,3.2809,0.0,0.0,0.0,0.0,0.0,0.0,0.0,0.0,0.0,0.0,0.0,3.7206,3.7183,3.6913,3.7015,3.4584,3.1747,0.0,2.8781,2.7495,2.4657,0.0,0.0,0.0,0.0,0.0,3.1544,3.3383,3.4776,3.5521,3.56,3.5324,3.4613,3.3878,3.2868,3.1462,2.9976,2.8852,2.817,2.644,2.4936,0.0,0.0,0.0,0.0,0.0,0.0,0.0,0.0,0.0,0.0,0.0,0.0,0.0,0.0,0.0,0.0,0.0,0.0,0.0,0.0,0.0,0.0,0.0,0.0,0.0,0.0,0.0,0.0,2.6919,2.8809,2.9198,3.0584,3.0821,0.0,0.0,0.0,0.0,0.0,0.0,3.4212,3.5526,3.6834,3.8177,3.9802,4.0815,4.1144,4.1906,4.2284,4.228,4.2486,4.2682,4.2875,4.2682,4.2574,4.2581,4.2378,4.1988,4.1288,3.8719,3.6857,3.5492,3.4031,3.3117,3.2774,3.3863,3.4037,3.4127,3.6935,3.7268,3.6467,3.6467,0.0,3.4404,3.2425,0.0,0.0,0.0,0.0,3.3794,3.5278,3.6062,3.6889,3.8586,3.856,3.8252,3.8617,3.7678,3.5889,0.0,3.2327,3.1146,2.7398,0.0,0.0,0.0,0.0,3.0669,3.2161,3.3473,3.4486,3.5031,3.5091,3.4899,3.4388,3.3671,3.2757,3.1572,3.0286,2.9301,2.8676,2.7763,2.6614,2.5188,0.0,0.0,0.0,0.0,0.0,0.0,0.0,0.0,0.0,0.0,0.0,0.0,0.0,0.0,0.0,0.0,0.0,0.0,0.0,0.0,0.0,0.0,0.0,0.0,0.0,0.0,0.0,0.0,0.0,3.2944,3.4422,0.0,0.0,0.0,0.0,3.4173,3.5616,3.7404,3.9595,4.0436,4.1221,4.2005,4.213,4.1802,4.1019,4.1879,4.2278,4.2211,4.299,4.3741,4.4455,4.3683,4.3338,4.3304,4.2591,4.2276,4.2124,4.0563,3.948,3.8628,3.7145,3.6553,3.6524,3.6603,3.7054,3.7646,3.7832,3.8311,3.8825,3.8825,3.7341,3.5661,3.6276,3.4951,0.0,0.0,3.5926,3.6908,3.8391,3.8808,3.8844,3.8884,3.8889,3.8676,3.7999,3.7244,3.6437,0.0,3.3766,3.1851,3.0154,0.0,2.8201,2.8823,2.9653,3.0753,3.2289,3.3162,3.3665,3.3697,3.3697,3.3684,3.3646,3.2971,3.2248,3.1542,3.0775,3.0054,2.9385,2.8699,2.7635,2.6155,2.4475,0.0,0.0,0.0,0.0,0.0,0.0,0.0,0.0,0.0,0.0,0.0,0.0,0.0,0.0,0.0,0.0,0.0,0.0,0.0,0.0,0.0,0.0,0.0,0.0,0.0,0.0,0.0,0.0,3.5413,3.6896,0.0,3.6028,3.6569,3.7078,3.725,3.8223,3.9118,3.9879,4.0614,4.1126,4.1394,4.2393,4.2796,4.2486,4.3338,4.3775,4.375,4.4035,4.433,4.4591,4.4296,4.4171,4.4126,4.3306,4.2961,4.2932,4.1872,4.1043,4.0352,3.984,3.9339,3.8928,3.8928,3.9091,3.9322,3.9322,3.9491,3.9717,3.9717,3.8848,3.7838,3.8137,3.7641,3.711,3.7646,3.796,3.8271,3.88,3.8572,3.8218,3.8197,3.8182,3.8121,3.7849,3.7592,3.7178,3.6404,3.5281,3.3825,3.1803,3.1816,3.1888,3.1207,3.2129,3.3128,3.3764,3.4077,3.4087,3.3659,3.3595,3.343,3.2986,3.2322,3.1445,3.0351,2.9624,2.9123,2.8834,2.8176,2.753,2.6911,2.5432,2.3182,0.0,0.0,0.0,0.0,0.0,0.0,0.0,0.0,0.0,0.0,0.0,0.0,0.0,0.0,0.0,0.0,0.0,0.0,0.0,0.0,0.0,0.0,0.0,0.0,0.0,0.0,3.578,3.7369,3.8799,3.9295,3.8294,3.9309,3.997,3.9848,4.049,4.0978,4.1199,4.1686,4.1949,4.1949,4.299,4.3392,4.3105,4.3746,4.391,4.3622,4.3691,4.3724,4.3724,4.3724,4.3724,4.3695,4.3099,4.3047,4.3317,4.2787,4.232,4.1924,4.1677,4.1261,4.0817,4.0557,4.0472,4.0445,4.0197,4.0096,4.0096,4.0096,3.9768,3.9372,3.9372,3.9177,3.8965,3.8965,3.8758,3.8532,3.8532,3.8177,3.7726,3.7463,3.7404,3.7323,3.7086,3.7026,3.6875,3.6322,3.5888,3.504,3.3287,3.3599,3.376,3.2788,3.3466,3.4135,3.422,3.4234,3.3968,3.33,3.3222,3.2954,3.2287,3.1609,3.0755,2.9678,2.8755,2.8137,2.7861,2.7197,2.6691,2.6396,2.4828,2.3072,2.1161,0.0,0.0,0.0,0.0,0.0,0.0,0.0,0.0,0.0,0.0,0.0,0.0,0.0,0.0,0.0,0.0,0.0,0.0,0.0,0.0,0.0,0.0,0.0,3.4353,3.5777,3.7265,3.8905,4.0239,4.0484,3.9114,4.0852,4.2023,4.1925,4.2481,4.3125,4.3876,4.3924,4.3924,4.3924,4.395,4.3539,4.2713,4.2918,4.2611,4.1768,4.1972,4.2061,4.2061,4.2029,4.2037,4.2029,4.1989,4.2458,4.3261,4.3231,4.327,4.3287,4.2594,4.2317,4.2208,4.1508,4.1214,4.1085,4.036,4.0096,4.0106,4.007,4.0064,4.0058,4.0033,3.9476,3.8867,3.8867,3.833,3.7755,3.7755,3.7749,3.7529,3.6753,3.6569,3.6376,3.5644,3.5496,3.5496,3.5496,3.556,3.5376,3.4644,3.3986,3.3567,3.3567,3.3567,0.0,3.3529,3.3537,3.326,3.2572,3.2497,3.2228,3.1563,3.0867,3.0208,2.9615,2.8312,2.7285,2.6629,2.5888,2.5217,2.461,2.2746,2.1778,2.1734,0.0,0.0,0.0,0.0,0.0,0.0,0.0,0.0,0.0,0.0,0.0,0.0,0.0,0.0,0.0,0.0,0.0,0.0,0.0,0.0,0.0,0.0,3.4874,3.5877,3.7189,3.8856,4.1052,4.1523,4.1955,4.2704,4.3183,4.3185,4.2537,4.263,4.2559,4.2132,4.2111,4.2111,4.2111,4.2733,4.2947,4.2704,4.3391,4.3604,4.3366,4.3429,4.3451,4.3435,4.2948,4.2741,4.2652,4.1534,4.156,4.23,4.1682,4.1797,4.2433,4.2916,4.2777,4.2276,4.2073,4.166,4.1085,4.036,4.0096,4.0007,3.9431,3.9236,3.9119,3.859,3.8283,3.8106,3.8106,3.7535,3.6926,3.6926,3.6531,3.6077,3.5862,3.5806,3.5757,3.5538,3.5496,3.5496,3.5496,3.5502,3.5454,3.526,3.507,3.4951,3.4951,3.4951,0.0,3.4293,3.4226,3.3776,3.2617,3.2497,3.2228,3.1563,3.0485,2.9578,2.8913,2.7617,2.6794,2.6608,2.594,2.5262,2.4605,2.4081,2.3478,0.0,0.0,0.0,0.0,0.0,0.0,0.0,0.0,0.0,0.0,0.0,0.0,0.0,0.0,0.0,0.0,0.0,0.0,0.0,0.0,0.0,0.0,3.5032,3.6711,3.8085,3.8703,3.9889,4.2249,4.2117,4.2288,4.3512,4.3769,4.3504,4.264,4.2807,4.272,4.2221,4.2207,4.2207,4.2207,4.2698,4.294,4.294,4.32,4.3325,4.3334,4.3054,4.2914,4.2898,4.2503,4.2184,0.0,4.0953,4.0918,4.142,4.0903,4.1213,0.0,0.0,0.0,0.0,0.0,4.1257,4.0516,3.9793,3.9559,3.9425,3.8671,3.8442,3.8351,3.7928,3.7566,3.7308,3.7308,3.6745,3.6134,3.6134,3.5815,3.5496,3.5496,3.5496,3.5496,3.5496,3.5496,3.5496,3.5496,3.5496,0.0,3.5496,3.5496,3.5496,3.5496,3.5496,3.5355,3.4974,3.4914,3.451,3.3447,3.3095,3.2647,3.1981,3.0731,0.0,0.0,0.0,2.6644,2.5803,2.5663,0.0,0.0,0.0,0.0,0.0,0.0,0.0,0.0,2.5081,2.5287,0.0,0.0,0.0,0.0,0.0,0.0,0.0,0.0,0.0,0.0,0.0,0.0,0.0,0.0,0.0,0.0,3.6802,3.8346,4.0398,4.0187,4.0599,4.2715,4.2256,4.2056,4.2757,4.3312,4.3328,4.2559,4.3005,4.33,4.33,0.0,0.0,0.0,0.0,4.33,4.33,4.2771,4.2506,4.2491,4.1897,4.1603,4.1603,4.1538,4.1194,4.0616,4.0472,4.0489,4.0653,4.0576,4.1004,4.1731,4.1925,4.2005,4.1917,4.1174,4.0488,3.9834,3.9155,0.0,0.0,3.7994,3.7725,3.7646,3.7575,3.704,3.6484,3.6484,3.6006,3.5496,3.5496,3.5496,3.5496,3.5496,3.5496,3.5496,3.5496,3.5496,3.5496,3.5496,3.5496,3.5496,3.5496,3.5496,3.5496,3.5496,3.5496,3.5496,3.5496,3.5496,3.5235,3.457,0.0,0.0,3.2557,3.1331,3.0545,3.0417,2.871,2.6914,2.5128,2.5687,2.6013,2.5938,2.6608,2.7491,2.8607,2.8682,2.9092,2.9748,2.6731,2.6747,0.0,0.0,0.0,0.0,0.0,0.0,0.0,0.0,0.0,0.0,0.0,0.0,0.0,0.0,0.0,3.7395,3.8459,3.9538,4.1027,4.113,4.148,4.2616,4.2465,4.2582,4.3426,4.344,4.3322,4.314,4.3225,4.33,4.33,4.33,0.0,4.33,4.33,4.33,4.33,4.319,4.313,4.3115,0.0,0.0,4.2921,4.2436,4.2141,4.1952,4.087,4.0417,4.0426,3.9874,3.9755,4.0034,4.1445,4.2005,4.1917,4.1174,4.0815,4.0584,3.9858,3.9243,3.8666,3.7887,3.7273,3.6722,3.6125,3.5845,0.0,3.5717,3.5611,3.5496,3.5496,3.5496,3.5496,3.5496,3.5496,3.5496,3.5496,3.5496,3.5496,3.5496,3.5496,3.5496,3.5496,3.5496,3.5496,3.5496,3.5496,3.5496,3.5496,3.5496,3.5235,3.457,3.4383,3.3814,3.2602,3.1772,3.0867,2.9832,2.8913,2.8233,2.7837,2.8479,2.8569,2.8023,2.868,2.8874,2.8607,2.9144,2.9998,3.1084,2.9439,2.9225,0.0,0.0,0.0,0.0,0.0,0.0,0.0,0.0,0.0,0.0,0.0,3.3476,3.4558,0.0,3.7794,3.9137,3.9941,4.075,4.1757,4.1907,4.2064,4.2499,4.2458,4.269,4.3428,4.3375,4.33,4.33,4.33,4.33,4.33,4.33,4.33,4.33,4.33,4.33,4.33,4.33,4.33,4.33,4.33,4.33,4.33,4.299,4.269,4.2366,4.1697,4.1209,4.0855,4.0187,3.969,3.949,4.0359,4.0697,4.0658,4.029,4.0158,4.0041,3.9345,3.8881,3.8484,3.7738,3.7074,3.6484,3.6114,3.5774,3.5496,3.5496,3.5496,3.5496,3.5496,3.5496,3.5496,3.5496,3.5496,3.5496,3.5496,3.5496,3.5496,3.5496,3.5496,3.5496,3.5496,3.5496,3.5496,3.5496,3.5496,3.5496,3.5496,3.5496,3.537,3.5034,3.4697,3.4226,3.3567,3.2579,3.1585,3.0605,2.9917,2.9415,2.9107,2.9413,2.9571,2.9549,2.9885,3.023,3.0545,3.0896,3.1554,3.2482,3.1854,3.1711,0.0,0.0,0.0,0.0,0.0,0.0,0.0,0.0,3.1501,3.3015,3.4905,3.6645,3.777,3.8961,4.0014,4.0675,4.1239,4.1822,4.2481,4.258,4.258,4.258,4.258,4.2771,4.3255,4.33,4.33,4.33,4.33,4.33,4.33,4.33,4.33,4.33,4.33,4.33,4.33,4.33,4.33,4.33,4.33,4.33,4.33,4.33,4.3035,4.258,4.2455,4.2027,4.1343,4.0675,4.0073,3.9586,3.9451,3.9406,3.9406,3.9406,3.9406,3.9316,3.8781,3.8505,3.8311,3.7778,3.718,3.665,3.6538,3.6118,3.5669,3.5541,3.5496,3.5496,3.5496,3.5496,3.5496,3.5496,3.5496,3.5496,3.5496,3.5496,3.5496,3.5496,3.5496,3.5496,3.5496,3.5496,3.5496,3.5496,3.5496,3.5496,3.5496,3.5496,3.5496,3.5496,3.5027,3.4637,3.4511,3.338,3.2467,3.1914,3.1383,3.0851,3.0371,3.0356,3.0596,3.1068,3.1083,3.1607,3.2691,3.2691,3.3036,3.3687,3.3687,3.3687,2.5162,2.6389,2.7804,2.9033,2.9369,3.0471,0.0,0.0,3.5427,3.7308,3.8826,3.9877,4.0037,4.0662,4.1403,4.2066,4.2246,4.2496,4.3115,4.3195,4.3195,4.3195,4.3195,4.3225,4.33,4.33,4.33,4.33,4.33,4.33,4.33,4.33,4.33,4.33,4.33,4.33,4.33,4.33,4.33,4.33,4.33,4.33,4.33,4.33,4.3255,4.3175,4.2631,4.2027,4.1343,4.0675,4.0352,4.0232,3.9631,3.9406,3.9406,3.9406,3.9406,3.9391,3.9316,3.8901,3.8386,3.8311,3.7838,3.721,3.6665,3.644,3.6261,3.5669,3.5496,3.5496,3.5496,3.5496,3.5496,3.5496,3.5496,3.5496,3.5496,3.5496,3.5496,3.5496,3.5496,3.5496,3.5496,3.5496,3.5496,3.5496,3.5496,3.5496,3.5496,3.5496,3.5496,3.5496,3.5421,3.5153,3.4555,3.3814,3.3357,3.3275,3.32,3.3133,3.3073,3.3058,3.3103,3.3155,3.3155,3.3238,3.338,3.338,3.3732,3.4391,3.4391,3.4391,2.9603,3.0313,0.0,0.0,3.3589,3.4651,3.6582,3.7411,3.8114,3.932,4.064,4.1553,4.1553,4.2073,4.2601,0.0,4.2925,4.3005,4.3255,4.3005,4.2785,4.2785,4.2432,4.2482,4.324,4.33,4.33,4.33,4.33,4.33,4.33,4.33,4.33,4.33,4.33,4.33,4.33,4.33,4.33,4.33,4.33,4.33,4.33,4.33,4.33,4.33,4.3035,4.2576,4.1922,4.1268,4.075,4.0337,3.966,3.9406,3.9406,3.9406,3.9406,3.9406,3.9406,3.9221,3.8981,3.8981,3.8527,3.7928,3.7682,3.7084,3.6449,3.6156,3.5804,3.5496,3.5496,3.5496,3.5496,3.5496,3.5496,3.5496,3.5496,3.5496,3.5496,3.5496,3.5496,3.5496,3.5496,3.5496,3.5496,3.5496,3.5496,3.5496,3.5496,3.5496,3.5496,3.5496,3.5496,3.5385,3.5108,3.4465,3.4084,3.4084,3.3724,3.3507,3.3507,3.3507,3.3507,3.3507,3.3507,3.3687,3.4084,3.4084,3.4428,3.5078,3.5078,3.5078,3.2355,0.0,0.0,3.537,3.6872,3.8009,3.8189,3.9266,4.0367,4.0855,4.1718,4.2396,4.2396,4.2756,4.305,4.305,4.319,4.33,4.33,4.2785,4.2396,4.2396,4.1817,4.1753,4.2691,4.2945,4.3115,4.33,4.33,4.33,4.33,4.33,4.33,4.33,4.33,4.33,4.33,4.33,4.33,4.33,4.33,4.33,4.33,4.33,4.33,4.33,4.33,4.305,4.2601,4.1942,4.1283,4.0606,3.9939,3.9556,3.9406,3.9406,3.9406,3.9406,3.9406,3.9406,3.9406,3.9406,3.9071,3.8631,3.8461,3.7623,3.671,3.6553,3.6021,3.5496,3.5496,3.5496,3.5496,3.5496,3.5496,3.5496,3.5496,3.5496,3.5496,3.5496,3.5496,3.5496,3.5496,3.5496,3.5496,3.5496,3.5496,3.5496,3.5496,3.5496,3.5496,3.5496,3.5496,3.5496,3.5496,3.5048,3.4772,3.4772,3.4315,3.4053,3.4053,3.4053,3.4053,3.4053,3.4053,3.4285,3.4772,3.4772,3.5034,3.5496,3.5496,3.5496,0.0,0.0,3.5579,3.6291,3.7913,3.952,4.0163,4.1343,4.2306,4.2336,4.2366,4.2396,4.2396,4.241,4.2425,4.2425,4.2925,4.33,4.33,4.2785,4.2396,4.2396,4.1817,4.1418,0.0,4.2041,4.2676,4.3255,4.33,4.33,4.33,4.33,4.33,4.33,4.33,4.33,4.33,4.33,4.33,4.33,4.33,4.33,4.33,4.33,4.33,4.33,4.33,4.33,4.3225,4.2616,4.1967,4.1298,4.0621,3.9969,3.9406,3.9406,3.9406,3.9406,3.9406,3.9406,3.9406,3.9406,3.9391,3.9251,3.861,3.7913,3.7246,3.6665,3.6021,3.5496,3.5496,3.5496,3.5496,3.5496,3.5496,3.5496,3.5496,3.5496,3.5496,3.5496,3.5496,3.5496,3.5496,3.5496,3.5496,3.5496,3.5496,3.5496,3.5496,3.5496,3.5496,3.5496,3.5496,3.5496,3.5496,3.5481,3.5474,3.5474,3.5451,3.5436,3.5436,3.5436,3.5436,3.5436,3.5436,3.5451,3.5474,3.5474,3.5481,3.5496,3.5496,3.5496,3.3738,0.0,3.7593,3.8257,3.9918,4.1448,4.1682,4.2396,4.288,4.2476,4.2041,4.1598,4.1164,4.1064,4.1224,4.1658,4.2286,4.2836,4.324,4.2785,4.2221,4.1787,4.1538,0.0,0.0,0.0,0.0,4.2651,4.2696,4.288,4.3285,4.33,4.33,4.33,4.33,4.33,4.33,4.33,4.33,4.33,4.33,4.33,4.33,4.33,4.33,4.33,4.33,4.33,4.3255,4.2646,4.2276,4.1952,4.084,4.0262,4.0014,3.9556,3.9406,3.9406,3.9406,3.9406,3.9406,3.9406,3.9406,3.9361,3.9131,3.8601,3.7928,3.7285,3.665,3.6058,3.5624,3.5496,3.5496,3.5496,3.5496,3.5496,3.5496,3.5496,3.5496,3.5496,3.5496,3.5496,3.5496,3.5496,3.5496,3.5496,3.5496,3.5496,3.5496,3.5496,3.5496,3.5496,3.5496,3.5496,3.5496,3.5496,3.5496,3.5496,3.5496,3.5496,3.5496,3.5496,3.5496,3.5496,3.5496,3.5496,3.5496,3.5496,3.5496,3.5496,3.5496,3.5496,3.5586,3.727,3.873,4.0113,4.1448,4.2396,4.2396,4.2696,4.2731,4.1867,4.0954,4.0206,3.9753,3.9499,3.9709,4.0855,4.1607,4.2346,4.318,4.2785,4.2246,4.1817,4.1757,4.1658,0.0,0.0,0.0,4.2666,4.2711,4.301,4.3624,4.3658,4.3773,4.4012,4.4012,4.3908,4.3658,4.3658,4.3539,4.33,4.33,4.33,4.33,4.33,4.33,4.33,4.33,4.33,4.327,4.288,4.2586,4.2291,4.1194,4.0606,4.0322,3.9645,3.9406,3.9406,3.9406,3.9406,3.9406,3.9406,3.9406,3.9406,3.9406,3.8922,3.8311,3.7883,3.7159,3.6395,3.5968,3.5684,3.5496,3.5496,3.5496,3.5496,3.5496,3.5496,3.5496,3.5496,3.5496,3.5496,3.5496,3.5496,3.5496,3.5496,3.5496,3.5496,3.5496,3.5496,3.5496,3.5496,3.5496,3.5496,3.5496,3.5496,3.5496,3.5496,3.5496,3.5496,3.5496,3.5496,3.5496,3.5496,3.5496,3.5496,3.5496,3.5496,3.5496,3.5496,3.5496,3.5496,3.7112,3.8018,3.9218,4.1757,4.2396,4.2396,4.2366,4.2321,4.1907,4.0531,3.917,3.8236,3.8161,0.0,3.7949,3.9933,4.0909,4.1833,4.312,4.2845,4.2476,0.0,0.0,0.0,0.0,0.0,0.0,4.3359,0.0,4.3614,4.4322,4.4352,4.4636,4.5285,4.53,4.4975,4.4322,4.4277,4.3923,4.33,4.33,4.33,4.33,4.33,4.33,4.33,4.33,4.33,4.33,4.33,4.296,4.2381,4.1673,4.1005,4.0367,3.966,3.9406,3.9406,3.9406,3.9406,3.9406,3.9406,3.9406,3.9406,3.9406,3.896,3.8446,3.8416,3.7503,3.6538,3.6508,3.5998,3.5496,3.5496,3.5496,3.5496,3.5496,3.5496,3.5496,3.5496,3.5496,3.5496,3.5496,3.5496,3.5496,3.5496,3.5496,3.5496,3.5496,3.5496,3.5496,3.5496,3.5496,3.5496,3.5496,3.5496,3.5496,3.5496,3.5496,3.5496,3.5496,3.5496,3.5496,3.5496,3.5496,3.5496,3.5496,3.5496,3.5496,3.5496,3.5496,3.5496,3.7802,3.9727,4.1532,4.2231,4.2396,4.2276,4.1772,4.1268,4.0391,3.8533,3.715,3.5923,3.4929,0.0,0.0,3.7934,3.9978,0.0,4.312,4.3604,0.0,4.314,0.0,4.4297,4.3629,4.4177,0.0,0.0,4.3863,4.3818,4.499,4.505,4.5125,4.5289,4.53,4.4975,4.4322,4.3803,4.3479,4.33,4.33,4.33,4.33,4.33,4.33,4.33,4.33,4.33,4.33,4.33,4.321,4.296,4.1843,4.1298,4.1005,3.9825,3.9406,3.9406,3.9406,3.9406,3.9406,3.9406,3.9406,3.9406,3.9406,3.9272,3.9041,3.8542,3.7808,3.706,3.6628,3.5998,3.5496,3.5496,3.5496,3.5496,3.5496,3.5496,3.5496,3.5496,3.5496,3.5496,3.5496,3.5496,3.5496,3.5496,3.5496,3.5496,3.5496,3.5496,3.5496,3.5496,3.5496,3.5496,3.5496,3.5496,3.5496,3.5496,3.5496,3.5496,3.5496,3.5496,3.5496,3.5496,3.5496,3.5496,3.5496,3.5496,3.5496,3.5496,3.5496,3.5496,3.899,4.0804,4.2396,4.2396,4.2186,4.1553,4.0002,3.9149,3.7943,3.5353,3.4247,0.0,3.2026,3.3095,0.0,0.0,0.0,0.0,4.2686,4.3708,4.4162,0.0,4.492,0.0,4.48,4.5349,4.5738,0.0,4.477,4.4636,4.5683,4.5738,4.5873,4.6172,4.6187,4.5708,4.4751,4.4072,4.3584,4.33,4.33,4.33,4.33,4.33,4.33,4.33,0.0,4.33,4.33,4.33,4.33,4.318,4.1893,4.1403,4.1239,3.9885,3.9406,3.9406,3.9406,3.9406,3.9406,3.9406,3.9406,3.9406,3.9406,3.9406,3.9316,3.8937,3.8362,3.7689,3.706,3.6425,3.5863,3.5571,3.5496,3.5496,3.5496,3.5496,3.5496,3.5496,3.5496,3.5496,3.5496,3.5496,3.5496,3.5496,3.5496,3.5496,3.5496,3.5496,3.5496,3.5496,3.5496,3.5496,3.5496,3.5496,3.5496,3.5496,3.5496,3.5496,3.5496,3.5496,3.5496,3.5496,3.5496,3.5496,3.5496,3.5496,3.5496,3.5496,3.5496,3.5496,4.0352,4.1448,4.2396,4.2396,4.1757,4.0466,3.7868,3.668,3.5183,3.1921,0.0,3.0636,2.9533,3.0851,3.2834,3.5011,0.0,3.9894,4.2086,4.3429,4.4222,4.4411,4.5538,4.6117,4.5603,4.6087,4.6435,4.6435,4.5892,4.5828,4.6405,4.6435,4.6689,4.7283,4.713,4.6486,4.5304,4.4546,4.3878,4.33,4.33,4.33,4.33,4.33,4.33,4.33,0.0,0.0,4.33,4.33,4.33,4.318,4.1893,4.1403,4.1239,3.9885,3.9406,3.9406,3.9406,3.9406,3.9406,3.9406,3.9406,3.9406,3.9406,3.9406,3.9406,3.9406,3.8847,3.8123,3.7545,3.6881,3.6216,3.5639,3.5496,3.5496,3.5496,3.5496,3.5496,3.5496,3.5496,3.5496,3.5496,3.5496,3.5496,3.5496,3.5496,3.5496,3.5496,3.5496,3.5496,3.5496,3.5496,3.5496,3.5496,3.5496,3.5496,3.5496,3.5496,3.5496,3.5496,3.5496,3.5496,3.5496,3.5496,3.5496,3.5496,3.5496,3.5496,3.5496,3.5496,3.5496,4.1035,4.1802,4.2396,4.2396,4.1064,3.9206,3.7129,3.5288,0.0,0.0,2.9054,2.8207,2.7989,2.9136,3.1105,3.4181,0.0,0.0,0.0,0.0,4.3878,0.0,0.0,0.0,0.0,0.0,0.0,0.0,0.0,4.6999,4.7119,4.7119,4.7179,4.7309,4.6217,4.5539,4.53,4.4087,4.3419,4.33,4.33,4.33,4.33,4.33,4.33,4.33,4.33,0.0,4.33,4.33,4.33,4.318,4.1893,4.1403,4.1239,3.9885,3.9406,3.9406,3.9406,3.9406,3.9406,3.9406,3.9406,3.9406,3.9406,3.9406,3.9406,3.9406,3.8509,3.7545,3.7426,3.6543,3.5646,3.5534,3.5496,3.5496,3.5496,3.5496,3.5496,3.5496,3.5496,3.5496,3.5496,3.5496,3.5496,3.5496,3.5496,3.5496,3.5496,3.5496,3.5496,3.5496,3.5496,3.5496,3.5496,3.5496,3.5496,3.5496,3.5496,3.5496,3.5496,3.5496,3.5496,3.5496,3.5496,3.5496,3.5496,3.5496,3.5496,3.5496,3.5496,3.5496,4.0705,4.1373,4.1802,4.1448,4.0107,3.8093,3.51,0.0,0.0,0.0,2.6752,2.6345,2.5647,0.0,0.0,0.0,0.0,0.0,0.0,0.0,0.0,0.0,0.0,0.0,0.0,0.0,0.0,0.0,0.0,4.7309,4.7309,4.7309,4.7134,4.679,4.6161,4.5499,4.4796,4.4132,4.3643,4.33,4.33,4.33,4.33,4.33,4.33,4.33,4.33,0.0,4.33,4.33,4.3115,4.2741,4.1777,4.1194,4.0765,3.9774,3.9406,3.9406,3.9406,3.9406,3.9406,3.9406,3.9406,3.9406,3.9406,3.9406,3.9406,3.9406,3.8682,3.7838,3.7486,3.6716,3.5923,3.5586,3.5496,3.5496,3.5496,3.5496,3.5496,3.5496,3.5496,3.5496,3.5496,3.5496,3.5496,3.5496,3.5496,3.5496,3.5496,3.5496,3.5496,3.5496,3.5496,3.5496,3.5496,3.5496,3.5496,3.5496,3.5496,3.5496,3.5496,3.5496,3.5496,3.5496,3.5496,3.5496,3.5496,3.5496,3.5496,3.5496,3.5496,3.5496,4.0043,4.0675,4.102,4.0352,3.908,3.6985,3.3155,3.1151,0.0,0.0,2.4894,2.4891,2.3978,0.0,2.7534,0.0,0.0,0.0,0.0,0.0,0.0,0.0,0.0,0.0,0.0,0.0,0.0,0.0,0.0,0.0,4.7309,4.7164,4.6839,4.6315,4.6016,4.5373,4.4322,4.4162,4.3818,4.33,4.33,4.33,4.33,4.33,4.33,4.33,4.33,0.0,0.0,4.33,4.294,4.2336,4.1658,4.099,4.0322,3.9645,3.9406,3.9406,3.9406,3.9406,3.9406,3.9406,3.9406,3.9406,3.9406,3.9406,3.9406,3.9406,3.8802,3.8063,3.753,3.6851,3.6156,3.5624,3.5496,3.5496,3.5496,3.5496,3.5496,3.5496,3.5496,3.5496,3.5496,3.5496,3.5496,3.5496,3.5496,3.5496,3.5496,3.5496,3.5496,3.5496,3.5496,3.5496,3.5496,3.5496,3.5496,3.5496,3.5496,3.5496,3.5496,3.5496,3.5496,3.5496,3.5496,3.5496,3.5496,3.5496,3.5496,3.5496,3.5496,3.5496,3.9481,3.9984,4.0337,3.966,3.8078,3.5782,3.237,0.0,0.0,2.5187,2.4167,2.3933,2.4425,2.4709,2.5917,0.0,0.0,3.296,0.0,0.0,0.0,0.0,0.0,0.0,0.0,0.0,0.0,0.0,0.0,0.0,4.7309,4.6719,4.636,4.63,4.5119,4.4416,4.4307,4.3688,4.3359,4.33,4.33,4.33,4.33,4.33,4.33,4.33,4.33,0.0,0.0,4.33,4.294,4.2336,4.1658,4.099,4.0322,3.9645,3.9406,3.9406,3.9406,3.9406,3.9406,3.9406,3.9406,3.9406,3.9406,3.9406,3.9406,3.9406,3.8488,3.7471,3.7411,3.6498,3.5579,3.5511,3.5496,3.5496,3.5496,3.5496,3.5496,3.5496,3.5496,3.5496,3.5496,3.5496,3.5496,3.5496,3.5496,3.5496,3.5496,3.5496,3.5496,3.5496,3.5496,3.5496,3.5496,3.5496,3.5496,3.5496,3.5496,3.5496,3.5496,3.5496,3.5496,3.5496,3.5496,3.5496,3.5496,3.5496,3.5496,3.5496,3.5496,3.5496,3.7875,3.8383,3.8533,3.8263,3.7037,3.5026,3.166,0.0,2.7718,2.4631,2.3784,2.3684,2.3948,2.4003,2.4831,2.7378,2.7882,2.9335,3.3297,0.0,0.0,0.0,0.0,0.0,0.0,0.0,0.0,0.0,0.0,0.0,4.6127,4.6236,4.5927,4.5119,4.4581,4.4112,4.3688,4.3434,4.33,4.33,4.33,4.33,4.33,4.33,4.33,4.33,4.33,0.0,0.0,4.291,4.2391,4.1733,4.1064,4.0382,3.9774,3.9496,3.9406,3.9406,3.9406,3.9406,3.9406,3.9406,3.9406,3.9406,3.9406,3.9406,3.9406,3.9406,3.8434,3.7396,3.7396,3.6453,3.5496,3.5496,3.5496,3.5496,3.5496,3.5496,3.5496,3.5496,3.5496,3.5496,3.5496,3.5496,3.5496,3.5496,3.5496,3.5496,3.5496,3.5496,3.5496,3.5496,3.5496,3.5496,3.5496,3.5496,3.5496,3.5496,3.5496,3.5496,3.5496,3.5496,3.5496,3.5496,3.5496,3.5496,3.5496,3.5496,3.5496,3.5496,3.5496,3.5496,3.6357,3.7112,3.7351,3.718,3.6013,3.4098,0.0,2.9086,2.7177,2.4208,2.3595,2.3595,2.3595,2.3595,2.4139,2.5749,2.6108,2.7434,3.1002,3.2998,0.0,0.0,0.0,0.0,0.0,0.0,0.0,0.0,0.0,0.0,0.0,4.5448,4.5284,4.4326,4.4102,4.3788,4.33,4.33,4.33,4.33,4.33,4.33,4.33,4.33,4.33,4.33,0.0,0.0,0.0,4.2361,4.1712,4.1064,4.0576,3.9984,3.9406,3.9406,3.9406,3.9406,3.9406,3.9406,3.9406,3.9406,3.9406,3.9406,3.9406,3.9406,3.9406,3.9406,3.8434,3.7351,3.718,3.6319,3.5496,3.5496,3.5496,3.5496,3.5496,3.5496,3.5496,3.5496,3.5496,3.5496,3.5496,3.5496,3.5496,3.5496,3.5496,3.5496,3.5496,3.5496,3.5496,3.5496,3.5496,3.5496,3.5496,3.5496,3.5496,3.5496,3.5496,3.5496,3.5496,3.5496,3.5496,3.5496,3.5496,3.5496,3.5496,3.5496,3.5496,3.5496,3.5496,3.5496,3.5152,3.6439,3.727,3.6665,3.5004,3.2834,0.0,2.8066,2.6045,2.4014,2.3595,2.3595,2.3595,2.3595,2.3814,2.4509,2.6294,2.8507,3.1137,3.3798,0.0,0.0,0.0,0.0,0.0,0.0,0.0,0.0,0.0,0.0,0.0,4.4322,4.4322,4.4307,4.3658,4.3314,4.33,4.33,4.33,4.33,4.33,4.33,4.33,4.33,4.33,0.0,0.0,0.0,0.0,4.1697,4.1029,4.0412,4.0397,3.9984,3.9406,3.9406,3.9406,3.9406,3.9406,3.9406,3.9406,3.9406,3.9406,3.9406,3.9406,3.9406,3.9406,3.9406,3.8434,3.7261,3.6665,3.6013,3.5496,3.5496,3.5496,3.5496,3.5496,3.5496,3.5496,3.5496,3.5496,3.5496,3.5496,3.5496,3.5496,3.5496,3.5496,3.5496,3.5496,3.5496,3.5496,3.5496,3.5496,3.5496,3.5496,3.5496,3.5496,3.5496,3.5496,3.5496,3.5496,3.5496,3.5496,3.5496,3.5496,3.5496,3.5496,3.5496,3.5496,3.5496,3.5496,3.5496,3.0537,3.1712,3.243,3.1367,3.0612,2.9684,2.7946,2.6348,2.4924,2.384,2.3271,2.3112,2.3525,2.3595,2.4268,2.6315,2.7174,0.0,0.0,0.0,0.0,0.0,0.0,0.0,0.0,0.0,0.0,0.0,0.0,0.0,0.0,4.3624,4.3624,4.3624,4.3419,4.33,4.33,4.33,4.33,4.33,4.33,4.33,4.33,4.33,0.0,0.0,0.0,0.0,0.0,4.099,4.0591,4.0352,3.9894,3.9586,3.9406,3.9406,3.9406,3.9406,3.9406,3.9406,3.9406,3.9406,3.9406,3.9406,3.9406,3.9406,3.9212,3.8285,3.7725,3.7157,3.6088,3.5669,3.5496,3.5496,3.5496,3.5496,3.5496,3.5496,3.5496,3.5496,3.5496,3.5496,3.5496,3.5496,3.5496,3.5496,3.5496,3.5496,3.5496,3.5496,3.5496,3.5496,3.5496,3.5496,3.5496,3.5496,3.5496,3.5496,3.5496,3.5496,3.5496,3.5496,3.5496,3.5496,3.5496,3.5496,3.5496,3.5496,3.5496,3.5496,3.5496,3.5496,0.0,2.8613,2.9212,2.8419,2.7844,2.7179,2.6087,2.4831,2.3694,2.3026,2.2588,2.2518,2.3141,2.3261,2.3959,2.6114,2.689,0.0,0.0,0.0,0.0,0.0,0.0,0.0,0.0,0.0,0.0,0.0,0.0,0.0,0.0,4.33,4.33,4.33,4.33,4.33,4.33,4.33,4.33,4.33,4.33,4.33,4.33,4.3065,0.0,0.0,0.0,0.0,0.0,4.0307,4.0014,3.9984,3.9556,3.9406,3.9406,3.9406,3.9406,3.9406,3.9406,3.9406,3.9406,3.9406,3.9406,3.9346,3.9101,3.9026,3.8847,3.8018,3.7434,3.6881,3.6088,3.5684,3.5496,3.5496,3.5496,3.5496,3.5496,3.5496,3.5496,3.5496,3.5496,3.5496,3.5496,3.5496,3.5496,3.5496,3.5496,3.5496,3.5496,3.5496,3.5496,3.5496,3.5496,3.5496,3.5496,3.5496,3.5496,3.5496,3.5496,3.5496,3.5496,3.5496,3.5496,3.5496,3.5496,3.5496,3.5496,3.5496,3.5496,3.5496,3.5496,3.5496,0.0,2.6665,2.7232,2.7121,2.621,2.5154,2.4545,2.3445,0.0,2.1824,2.1665,2.1884,2.2688,2.2808,2.3252,2.4715,0.0,0.0,0.0,0.0,0.0,0.0,0.0,0.0,0.0,0.0,0.0,0.0,0.0,0.0,0.0,4.33,4.33,4.33,4.33,4.33,4.33,4.33,4.3285,4.324,4.324,4.321,4.315,4.2576,0.0,0.0,0.0,0.0,0.0,3.966,3.9406,3.9406,3.9406,3.9406,3.9406,3.9406,3.9406,3.9406,3.9406,3.9406,3.9391,3.9346,3.9331,3.9206,3.8535,3.8356,3.8371,3.8296,3.7413,3.6493,3.6449,3.5976,3.5496,3.5496,3.5496,3.5496,3.5496,3.5496,3.5496,3.5496,3.5496,3.5496,3.5496,3.5496,3.5496,3.5496,3.5496,3.5496,3.5496,3.5496,3.5496,3.5496,3.5496,3.5496,3.5496,3.5496,3.5496,3.5496,3.5496,3.5496,3.5496,3.5496,3.5496,3.5496,3.5496,3.5496,3.5496,3.5496,3.5496,3.5496,3.5496,3.5496,2.1106,0.0,2.3616,2.2582,2.2467,2.2582,0.0,2.1749,2.1271,0.0,0.0,0.0,2.3758,2.3724,0.0,0.0,0.0,0.0,0.0,0.0,0.0,0.0,0.0,0.0,0.0,0.0,0.0,0.0,0.0,4.33,4.33,4.33,4.33,4.33,4.33,4.33,4.33,4.33,4.308,4.2601,4.2601,4.2337,4.1843,4.1703,4.1358,0.0,0.0,0.0,3.9616,3.9466,3.9406,3.9406,3.9406,3.9406,3.9406,3.9406,3.9406,3.9406,3.9406,3.9406,3.9325,3.8796,3.864,3.8512,3.7838,3.7988,3.8191,3.7218,3.6733,3.638,3.5872,3.5624,3.5496,3.5496,3.5496,3.5496,3.5496,3.5496,3.5496,3.5496,3.5496,3.5496,3.5496,3.5496,3.5496,3.5496,3.5496,3.5496,3.5496,3.5496,3.5496,3.5496,3.5496,3.5496,3.5496,3.5496,3.5496,3.5496,3.5496,3.5496,3.5496,3.5496,3.5496,3.5496,3.5496,3.5496,3.5496,3.5496,3.5496,3.5496,3.5496,3.5496,1.9703,2.0946,2.2069,2.1335,2.1435,2.17,2.17,0.0,0.0,0.0,0.0,0.0,0.0,0.0,0.0,0.0,0.0,0.0,0.0,0.0,0.0,0.0,0.0,0.0,0.0,0.0,0.0,0.0,0.0,4.2422,4.2422,4.2422,4.2422,4.2422,4.2422,4.2571,4.288,4.2895,4.2576,4.1937,4.1937,4.1757,4.1388,4.1079,4.0735,0.0,0.0,0.0,3.9406,3.9406,3.9406,3.9406,3.9406,3.9406,3.9406,3.9406,3.9406,3.9406,3.9406,3.9206,3.8841,3.8153,3.7943,3.7823,3.718,3.724,3.7383,3.6688,3.6276,3.5953,3.5586,3.5496,3.5496,3.5496,3.5496,3.5496,3.5496,3.5496,3.5496,3.5496,3.5496,3.5496,3.5496,3.5496,3.5496,3.5496,3.5496,3.5496,3.5496,3.5496,3.5496,3.5496,3.5496,3.5496,3.5496,3.5496,3.5496,3.5496,3.5496,3.5496,3.5496,3.5496,3.5496,3.5496,3.5496,3.5496,3.5496,3.5496,3.5496,3.5496,3.5496,3.5496,1.9943,2.1041,2.2054,2.1655,2.17,2.1824,2.1729,0.0,0.0,0.0,0.0,0.0,0.0,0.0,0.0,0.0,0.0,0.0,0.0,0.0,0.0,0.0,0.0,0.0,0.0,0.0,0.0,0.0,0.0,4.1403,4.1403,4.1403,4.1403,4.1403,4.1403,4.1613,4.2086,4.2201,4.1907,4.1254,4.1254,4.1194,4.1089,4.0502,4.0247,4.0217,0.0,0.0,3.9406,3.9406,3.9406,3.9406,3.9406,3.9406,3.9406,3.9406,3.9331,3.9227,3.9137,3.8727,3.8146,3.7479,3.7261,3.715,3.653,3.635,3.635,3.635,3.5938,3.5496,3.5496,3.5496,3.5496,3.5496,3.5496,3.5496,3.5496,3.5496,3.5496,3.5496,3.5496,3.5496,3.5496,3.5496,3.5496,3.5496,3.5496,3.5496,3.5496,3.5496,3.5496,3.5496,3.5496,3.5496,3.5496,3.5496,3.5496,3.5496,3.5496,3.5496,3.5496,3.5496,3.5496,3.5496,3.5496,3.5496,3.5496,3.5496,3.5496,3.5496,3.5496,3.5496,2.1086,2.2731,2.3613,2.1415,2.1714,2.2398,2.1824,0.0,0.0,0.0,0.0,0.0,0.0,0.0,0.0,0.0,0.0,0.0,0.0,0.0,0.0,0.0,0.0,0.0,0.0,0.0,0.0,0.0,0.0,0.0,4.1403,4.1403,4.1403,4.1403,4.1403,4.1179,4.072,4.1268,4.1224,4.0546,4.0546,4.0262,3.969,3.9601,3.9556,3.9556,0.0,3.9406,3.9406,3.9406,3.9406,3.9406,3.9406,3.9406,3.9406,3.9406,3.9041,3.8476,3.7904,3.7635,3.7449,3.6844,3.6635,3.6515,3.5848,3.5654,3.5654,3.5654,3.5579,3.5496,3.5496,3.5496,3.5496,3.5496,3.5496,3.5496,3.5496,3.5496,3.5496,3.5496,3.5496,3.5496,3.5496,3.5496,3.5496,3.5496,3.5496,3.5496,3.5496,3.5496,3.5496,3.5496,3.5496,3.5496,3.5496,3.5496,3.5496,3.5496,3.5496,3.5496,3.5496,3.5496,3.5496,3.5496,3.5496,3.5496,3.5496,3.5496,3.5496,3.5496,3.5496,3.5496,2.0447,2.1799,2.2826,2.1994,2.3581,2.5174,2.4504,0.0,0.0,0.0,0.0,0.0,0.0,0.0,0.0,0.0,0.0,0.0,0.0,0.0,0.0,0.0,0.0,0.0,0.0,0.0,0.0,0.0,0.0,0.0,4.0322,4.0322,4.0322,4.0322,4.0322,4.0163,3.9864,4.0172,4.0163,3.9864,3.9864,3.969,3.9406,3.9406,3.9406,3.9406,0.0,3.9406,3.9406,3.9406,3.9406,3.9406,3.9406,3.9406,3.9361,3.8981,3.8437,3.7764,3.712,3.6911,3.6806,3.6171,3.5953,3.5893,3.5594,3.5496,3.5496,3.5496,3.5496,3.5496,3.5496,3.5496,3.5496,3.5496,3.5496,3.5496,3.5496,3.5496,3.5496,3.5496,3.5496,3.5496,3.5496,3.5496,3.5496,3.5496,3.5496,3.5496,3.5496,3.5496,3.5496,3.5496,3.5496,3.5496,3.5496,3.5496,3.5496,3.5496,3.5496,3.5496,3.5496,3.5496,3.5496,3.5496,3.5496,3.5496,3.5496,3.5496,3.5496,3.5496,3.5496,3.5496,2.0073,2.1031,2.2094,2.2748,0.0,2.6522,2.6785,0.0,0.0,0.0,0.0,0.0,0.0,0.0,0.0,0.0,0.0,0.0,0.0,0.0,0.0,0.0,0.0,0.0,0.0,0.0,0.0,0.0,0.0,0.0,3.9406,3.9406,3.9406,3.9406,3.9406,3.9406,3.9406,3.9406,3.9406,3.9406,3.9406,3.9406,3.9406,3.9406,3.9406,3.9406,3.9406,3.9406,3.9406,3.9406,3.9406,3.9382,3.9236,3.9071,3.8853,3.8206,3.7629,3.7097,3.6485,3.6261,3.6186,3.5669,3.5496,3.5496,3.5496,3.5496,3.5496,3.5496,3.5496,3.5496,3.5496,3.5496,3.5496,3.5496,3.5496,3.5496,3.5496,3.5496,3.5496,3.5496,3.5496,3.5496,3.5496,3.5496,3.5496,3.5496,3.5496,3.5496,3.5496,3.5496,3.5496,3.5496,3.5496,3.5496,3.5496,3.5496,3.5496,3.5496,3.5496,3.5496,3.5496,3.5496,3.5496,3.5496,3.5496,3.5496,3.5496,3.5496,3.5496,3.5496,3.5496,3.5496,2.1225,2.2084,2.2772,2.3376,0.0,0.0,2.6836,2.6524,0.0,0.0,0.0,0.0,0.0,0.0,0.0,0.0,0.0,0.0,0.0,0.0,0.0,0.0,0.0,0.0,0.0,0.0,0.0,0.0,0.0,0.0,3.9406,3.9406,3.9406,3.9406,3.9406,3.9406,3.9406,3.9406,3.9406,3.9406,3.9406,3.9406,3.9406,3.9406,3.9406,3.9406,3.9406,3.9406,3.9406,3.9406,3.9406,3.9331,3.8706,3.8093,3.7471,3.6859,3.6613,3.647,3.5804,3.5571,3.5556,3.5519,3.5496,3.5496,3.5496,3.5496,3.5496,3.5496,3.5496,3.5496,3.5496,3.5496,3.5496,3.5496,3.5496,3.5496,3.5496,3.5496,3.5496,3.5496,3.5496,3.5496,3.5496,3.5496,3.5496,3.5496,3.5496,3.5496,3.5496,3.5496,3.5496,3.5496,3.5496,3.5496,3.5496,3.5496,3.5496,3.5496,3.5496,3.5496,3.5496,3.5496,3.5496,3.5496,3.5496,3.5496,3.5496,3.5496,3.5496,3.5496,3.5496,3.5496,1.9705,2.124,2.2832,2.345,0.0,0.0,0.0,0.0,0.0,0.0,0.0,0.0,0.0,0.0,0.0,0.0,0.0,0.0,0.0,0.0,0.0,0.0,0.0,0.0,0.0,0.0,0.0,0.0,0.0,0.0,0.0,3.8781,3.8781,3.8781,3.8368,3.8159,3.8159,3.8159,3.8159,3.815,3.8586,3.8781,3.8766,3.8353,3.8159,3.8159,3.8159,3.8159,3.8159,3.8159,3.8159,3.8129,3.7883,3.7389,3.6806,3.6575,3.6246,3.5833,3.5594,3.5496,3.5496,3.5496,3.5496,3.5496,3.5496,3.5496,3.5496,3.5496,3.5496,3.5496,3.5496,3.5496,3.5496,3.5496,3.5496,3.5496,3.5496,3.5496,3.5496,3.5496,3.5496,3.5496,3.5496,3.5496,3.5496,3.5496,3.5496,3.5496,3.5496,3.5496,3.5496,3.5496,3.5496,3.5496,3.5496,3.5496,3.5496,3.5496,3.5496,3.5496,3.5496,3.5496,3.5496,3.5496,3.5496,3.5496,3.5496,3.5496,3.5496,3.5496,3.5496,3.5496,1.9021,2.0657,2.2578,0.0,0.0,0.0,0.0,0.0,0.0,0.0,0.0,0.0,0.0,0.0,0.0,0.0,0.0,0.0,0.0,0.0,0.0,0.0,0.0,0.0,0.0,0.0,0.0,0.0,0.0,0.0,0.0,3.8078,3.8078,3.8078,3.7644,3.7396,3.7396,3.7396,3.7396,3.7396,3.7667,3.7892,3.8071,3.7605,3.7396,3.7396,3.7396,3.7396,3.7396,3.7396,3.7291,3.712,3.712,3.6731,3.6186,3.6186,3.5893,3.5496,3.5496,3.5496,3.5496,3.5496,3.5496,3.5496,3.5496,3.5496,3.5496,3.5496,3.5496,3.5496,3.5496,3.5496,3.5496,3.5496,3.5496,3.5496,3.5496,3.5496,3.5496,3.5496,3.5496,3.5496,3.5496,3.5496,3.5496,3.5496,3.5496,3.5496,3.5496,3.5496,3.5496,3.5496,3.5496,3.5496,3.5496,3.5496,3.5496,3.5496,3.5496,3.5496,3.5496,3.5496,3.5496,3.5496,3.5496,3.5496,3.5496,3.5496,3.5496,3.5496,3.5496,3.5496,1.9688,2.0672,2.2029,0.0,0.0,0.0,0.0,0.0,0.0,0.0,0.0,0.0,0.0,0.0,0.0,0.0,0.0,0.0,0.0,0.0,0.0,0.0,0.0,0.0,0.0,0.0,0.0,0.0,0.0,0.0,0.0,3.7396,3.7396,3.7396,3.7396,3.7381,3.7381,3.7381,3.7381,3.7366,3.6784,3.6814,3.7396,3.7381,3.7381,3.7381,3.7381,3.7381,3.7381,3.7381,3.703,3.6493,3.6493,3.6073,3.5496,3.5496,3.5496,3.5496,3.5496,3.5496,3.5496,3.5496,3.5496,3.5496,3.5496,3.5496,3.5496,3.5496,3.5496,3.5496,3.5496,3.5496,3.5496,3.5496,3.5496,3.5496,3.5496,3.5496,3.5496,3.5496,3.5496,3.5496,3.5496,3.5496,3.5496,3.5496,3.5496,3.5496,3.5496,3.5496,3.5496,3.5496,3.5496,3.5496,3.5496,3.5496,3.5496,3.5496,3.5496,3.5496,3.5496,3.5496,3.5496,3.5496,3.5496,3.5496,3.5496,3.5496,3.5496,3.5496,3.5496,3.5496,1.842,2.0608,0.0,0.0,0.0,0.0,0.0,0.0,0.0,0.0,0.0,0.0,0.0,0.0,0.0,0.0,0.0,0.0,0.0,0.0,0.0,0.0,0.0,0.0,0.0,0.0,0.0,0.0,0.0,0.0,0.0,3.6769,3.6769,3.6769,3.6312,3.6065,3.6065,3.6065,3.6065,3.6065,3.5878,3.6133,3.6755,3.6282,3.6065,3.6065,3.6065,3.6065,3.6065,3.6065,3.5968,3.5804,3.5804,3.5684,3.5496,3.5496,3.5496,3.5496,3.5496,3.5496,3.5496,3.5496,3.5496,3.5496,3.5496,3.5496,3.5496,3.5496,3.5496,3.5496,3.5496,3.5496,3.5496,3.5496,3.5496,3.5496,3.5496,3.5496,3.5496,3.5496,3.5496,3.5496,3.5496,3.5496,3.5496,3.5496,3.5496,3.5496,3.5496,3.5496,3.5496,3.5496,3.5496,3.5496,3.5496,3.5496,3.5496,3.5496,3.5496,3.5496,3.5496,3.5496,3.5496,3.5496,3.5496,3.5496,3.5496,3.5496,3.5496,3.5496,3.5496,3.5496,1.9183,0.0,0.0,0.0,0.0,0.0,0.0,0.0,0.0,0.0,0.0,0.0,0.0,0.0,0.0,0.0,0.0,0.0,0.0,0.0,0.0,0.0,0.0,0.0,0.0,0.0,0.0,0.0,0.0,0.0,0.0,3.6096,3.6096,3.6096,3.5714,3.5496,3.5496,3.5496,3.5496,3.5496,3.5496,3.5714,3.6096,3.5676,3.5496,3.5496,3.5496,3.5496,3.5496,3.5496,3.5496,3.5496,3.5496,3.5496,3.5496,3.5496,3.5496,3.5496,3.5496,3.5496,3.5496,3.5496,3.5496,3.5496,3.5496,3.5496,3.5496,3.5496,3.5496,3.5496,3.5496,3.5496,3.5496,3.5496,3.5496,3.5496,3.5496,3.5496,3.5496,3.5496,3.5496,3.5496,3.5496,3.5496,3.5496,3.5496,3.5496,3.5496,3.5496,3.5496,3.5611,3.591,3.5668,3.5619,3.5903,3.5668,3.5496,3.5496,3.5774,3.5935,3.5935,3.5667,3.5496,3.5496,3.5496,3.5636,3.5942,3.5636,3.5644,3.5934,3.5643,3.5496,2.1006,0.0,0.0,0.0,0.0,0.0,0.0,0.0,0.0,0.0,0.0,0.0,0.0,0.0,0.0,0.0,0.0,0.0,0.0,0.0,0.0,0.0,0.0,0.0,0.0,0.0,0.0,0.0,0.0,0.0,0.0,3.5496,3.5496,3.5496,3.5496,3.5496,3.5496,3.5496,3.5496,3.5496,3.5496,3.5496,3.5496,3.5496,3.5496,3.5496,3.5496,3.5496,3.5496,3.5496,3.5496,3.5496,3.5496,3.5496,3.5496,3.5496,3.5496,3.5496,3.5496,3.5496,3.5496,3.5496,3.5496,3.5496,3.5496,3.5496,3.5496,3.5496,3.5496,3.5496,3.5496,3.5496,3.5496,3.5496,3.5496,3.5496,3.5496,3.5496,3.5496,3.5496,3.5496,3.5496,3.5496,3.5496,3.5496,3.5496,3.5554,3.5595,3.5595,3.5667,3.5942,3.6538,3.6077,3.595,3.6554,3.6054,3.5716,3.5716,3.6345,3.6706,3.6706,3.607,3.5716,3.5716,3.5716,3.6038,3.6714,3.6038,3.6054,3.6684,3.595,3.5595,0.0,2.1824,0.0,0.0,0.0,0.0,0.0,0.0,0.0,0.0,0.0,0.0,0.0,0.0,0.0,0.0,0.0,0.0,0.0,0.0,0.0,0.0,0.0,0.0,0.0,0.0,0.0,0.0,0.0,0.0,3.5496,3.5496,3.5496,3.5496,3.5496,3.5496,3.5496,3.5496,3.5496,0.0,3.5496,3.5496,3.5496,3.5496,3.5496,3.5496,3.5496,3.5496,3.5496,3.5496,3.5496,3.5496,3.5496,3.5496,3.5496,3.5496,3.5496,3.5496,3.5496,3.5496,3.5496,3.5496,3.5496,3.5496,3.5496,3.5496,3.5496,3.5496,3.5496,3.5496,3.5496,3.5496,3.5496,3.5496,3.5496,3.5496,3.5496,3.5496,3.5496,3.5496,3.5496,3.5496,3.5496,3.5496,3.5496,3.5496,3.599,3.6353,3.6353,3.6912,3.7115,3.6653,3.7017,3.7107,3.6646,3.7025,3.7302,3.7302,3.7449,3.7544,3.7544,3.7391,3.7302,3.7302,3.7302,3.7383,3.7544,3.7383,3.7391,3.7522,3.6722,3.6353,0.0,0.0,0.0,0.0,0.0,0.0,0.0,0.0,0.0,0.0,0.0,0.0,0.0,0.0,0.0,0.0,0.0,0.0,0.0,0.0,0.0,0.0,0.0,0.0,0.0,0.0,0.0,0.0,0.0,3.5496,3.5496,3.5496,3.5496,3.5496,3.5496,3.5496,3.5496,3.5496,3.5496,3.5496,3.5496,3.5496,3.5496,3.5496,3.5496,3.5496,3.5496,3.5496,3.5496,3.5496,3.5496,3.5496,3.5496,3.5496,3.5496,3.5496,3.5496,3.5496,3.5496,3.5496,3.5496,3.5496,3.5496,3.5496,3.5496,3.5496,3.5496,3.5496,3.5496,3.5496,3.5496,3.5496,3.5496,3.5496,3.5496,3.5496,3.5496,3.5496,3.5496,3.5496,3.5496,3.5496,3.5496,3.579,3.6157,3.6538,3.6935,3.7166,3.7166,3.7537,3.7777,3.77,3.7754,3.7777,3.77,3.7754,3.7807,3.7807,3.8135,3.8339,3.8339,3.8693,3.8541,3.7806,3.7807,3.7971,3.8339,3.7971,3.7978,3.8309,3.7535,3.7166,0.0,0.0,0.0,0.0,0.0,0.0,0.0,0.0,0.0,0.0,0.0,0.0,0.0,0.0,0.0,0.0,0.0,0.0,0.0,0.0,0.0,0.0,0.0,0.0,0.0,0.0,0.0,0.0,0.0,3.5496,3.5496,3.5496,3.5496,3.5496,3.5496,3.5496,3.5496,3.5496,3.5496,3.5496,3.5496,3.5496,3.5496,3.5496,3.5496,3.5496,3.5496,3.5496,3.5496,3.5496,3.5496,3.5496,3.5496,3.5496,3.5496,3.5496,3.5496,3.5496,3.5496,3.5496,3.5496,3.5496,3.5496,3.5496,3.5496,3.5496,3.5496,3.5496,3.5496,3.5496,3.5496,3.5496,3.5496,3.5496,3.5595,3.5667,3.5529,3.5496,3.5545,3.5668,3.5805,3.5894,3.5894,3.6391,3.7024,3.7697,3.7906,3.7985,3.7985,3.8114,3.8381,3.8847,3.8486,3.8395,3.8861,3.8479,3.8198,3.8198,3.8775,3.9106,3.9106,3.975,3.95,3.8213,3.8198,3.85,3.9106,3.85,3.8513,3.9093,3.8346,3.7985,0.0,0.0,0.0,0.0,0.0,0.0,0.0,0.0,0.0,0.0,0.0,0.0,0.0,0.0,0.0,0.0,0.0,0.0,0.0,0.0,0.0,0.0,0.0,0.0,0.0,0.0,0.0,0.0,3.5496,3.5496,3.5496,3.5496,3.5496,3.5496,3.5496,3.5496,3.5496,3.5496,3.5496,3.5496,3.5496,3.5496,3.5496,3.5496,3.5496,3.5496,3.5496,3.5496,3.5496,3.5496,3.5496,3.5496,3.5496,3.5496,3.5496,3.5496,3.5496,3.5496,3.5496,3.5496,3.5496,3.5496,3.5496,3.5496,3.5496,3.5496,3.5496,3.5496,3.5496,3.5496,3.5496,3.5496,3.5496,3.5496,3.599,3.6275,3.5643,3.5496,3.5693,3.6329,3.7025,3.7494,3.7494,3.7566,3.7684,3.7777,3.8337,3.8752,3.8752,3.9365,3.9565,3.8955,3.9437,3.9552,3.8948,3.945,3.9782,3.9782,3.9889,3.9933,3.9933,4.0045,4.0007,3.9805,3.9782,3.9844,3.9933,3.9844,3.9844,3.992,3.9113,3.8752,0.0,0.0,0.0,0.0,0.0,0.0,0.0,0.0,0.0,0.0,0.0,0.0,0.0,0.0,0.0,0.0,0.0,0.0,0.0,0.0,0.0,0.0,0.0,0.0,0.0,0.0,0.0,0.0,3.5295,3.5496,3.5496,3.5894,3.5934,3.5512,3.5902,3.5926,3.5504,3.5496,3.5496,3.5504,3.5926,3.6125,3.6133,3.6585,3.6546,3.6125,3.6125,3.6368,3.6799,3.6799,3.6799,3.6799,3.6799,3.6799,3.6799,3.6799,3.6799,3.6799,3.6799,3.6799,3.6799,3.6799,3.6799,3.6799,3.6799,3.6799,3.6799,3.6799,3.6799,3.6799,3.6799,3.6799,3.6799,3.6799,3.704,3.7182,3.686,3.6799,3.6882,3.7212,3.7559,3.7928,3.836,3.8414,3.8576,3.9015,3.9365,3.9578,3.9578,3.9889,3.9959,3.9617,3.9895,3.9952,3.961,3.9901,4.0096,4.0096,4.0096,4.0096,4.0096,4.0096,4.0096,4.0096,4.0096,4.0096,4.0096,4.0096,4.0096,4.0083,3.9744,3.9578,0.0,0.0,0.0,0.0,0.0,0.0,0.0,0.0,0.0,0.0,0.0,0.0,0.0,0.0,0.0,0.0,0.0,0.0,0.0,0.0,0.0,0.0,0.0,0.0,0.0,0.0,0.0,0.0,3.4704,3.4988,3.4988,3.5505,3.556,3.5012,3.5521,3.5544,3.5004,3.516,3.5325,3.5504,3.6054,3.6322,3.6353,3.7137,3.727,3.6896,3.6896,3.7256,3.7807,3.7807,3.7807,3.7807,3.7807,3.7807,3.7807,3.7807,3.7807,3.7807,3.7807,3.7807,3.7807,3.7807,3.7807,3.7807,3.7807,3.7807,3.7807,3.7807,3.7807,3.7807,3.7807,3.7807,3.7807,3.7807,3.7942,3.8028,3.7835,3.795,3.8085,3.8085,3.8248,3.8555,3.9106,3.9193,3.9417,4.0014,4.0096,4.0096,4.0096,4.0096,4.0096,4.0096,4.0096,4.0096,4.0096,4.0096,4.0096,4.0096,4.0096,4.0096,4.0096,4.0096,4.0096,4.0096,4.0096,4.0096,4.0096,4.0096,4.0096,4.0096,4.0096,4.0096,0.0,0.0,0.0,0.0,0.0,0.0,0.0,0.0,0.0,0.0,0.0,0.0,0.0,0.0,0.0,0.0,0.0,0.0,0.0,0.0,0.0,0.0,0.0,0.0,0.0,0.0,0.0,0.0,3.3574,3.3604,3.3604,3.3635,3.3635,3.3612,3.3635,3.3635,3.3604,3.4233,3.4877,3.5496,3.5545,3.5554,3.5578,3.6322,3.707,3.7733,3.7733,3.7755,3.7807,3.7807,3.7807,3.7807,3.7807,3.7807,3.7807,3.7807,3.7807,3.7807,3.7807,3.7807,3.7807,3.7807,3.7807,3.7807,3.7807,3.7807,3.7807,3.7807,3.7807,3.7807,3.7807,3.7807,3.7807,3.7807,3.833,3.8656,3.795,3.8344,3.884,3.884,3.9457,3.9995,4.0033,4.0039,4.0052,4.0083,4.0096,4.0096,4.0096,4.0096,4.0096,4.0096,4.0096,4.0096,4.0096,4.0096,4.0096,4.0096,4.0096,4.0096,4.0096,4.0096,4.0096,4.0096,4.0096,4.0096,4.0096,4.0096,4.0096,4.0096,4.0096,4.0096,0.0,0.0,0.0,0.0,0.0,0.0,0.0,0.0,0.0,0.0,0.0,0.0,0.0,0.0,0.0,0.0,0.0,0.0,0.0,0.0,0.0,0.0,0.0,0.0,0.0,0.0,0.0,0.0,0.0,3.3507,3.3507,3.3992,3.4037,3.3522,3.4007,3.4029,3.3515,3.4159,3.4629,3.4866,3.5823,3.6271,3.6306,3.7084,3.7593,3.7866,3.7866,3.8399,3.9272,3.9272,3.9272,3.9272,3.9272,3.9272,3.9272,3.9272,3.9272,3.9272,3.9272,3.9272,3.9272,3.9272,3.9272,3.9272,3.9272,3.9272,3.9272,3.9272,3.9272,3.9272,3.9272,3.9272,3.9272,3.9272,3.948,3.9597,3.9325,3.9487,3.9669,3.9669,3.9901,4.0096,4.0096,4.0096,4.0096,4.0096,4.0096,4.0096,4.0096,4.0096,4.0096,4.0096,4.0096,4.0096,4.0096,4.0096,4.0096,4.0096,4.0096,4.0096,4.0096,4.0096,4.0096,4.0096,4.0096,4.0096,4.0096,4.0096,4.0096,4.0096,4.0096,4.0096,0.0,0.0,0.0,0.0,0.0,0.0,0.0,0.0,0.0,0.0,0.0,0.0,0.0,0.0,0.0,0.0,0.0,0.0,0.0,0.0,0.0,0.0,0.0,0.0,0.0,0.0,0.0,0.0,0.0,0.0,3.2834,3.3338,3.3382,3.2856,3.3353,3.3481,3.3178,3.3832,3.428,3.4503,3.5746,3.6323,3.6356,3.7139,3.751,3.7506,3.7781,3.8464,3.9389,3.9633,3.9734,3.9751,4.0005,4.0096,4.0096,4.0096,4.0096,4.0096,4.0096,4.0096,4.0096,4.0096,4.0096,4.0096,4.0096,4.0096,4.0096,4.0096,4.0096,4.0096,4.0096,4.0096,4.0096,4.0096,4.0096,4.0096,4.0096,4.0096,4.0096,4.0096,4.0096,4.0096,4.0096,4.0096,4.0096,4.0096,4.0096,4.0096,4.0096,4.0096,4.0096,4.0096,4.0096,4.0096,4.0096,4.0096,4.0096,4.0096,3.9869,3.9734,3.9734,3.9491,3.9356,3.9356,3.9356,3.9356,3.9356,3.9616,3.9592,3.9356,3.9356,3.9491,0.0,0.0,0.0,0.0,0.0,0.0,0.0,0.0,0.0,0.0,0.0,0.0,0.0,0.0,0.0,0.0,0.0,0.0,0.0,0.0,0.0,0.0,0.0,0.0,0.0,0.0,0.0,0.0,3.1444,3.1444,3.1444,3.1466,3.1481,3.1503,3.1517,3.1831,3.2467,3.3179,3.3848,3.4486,3.524,3.56,3.5621,3.6346,3.6665,3.6713,3.7498,3.7832,3.7883,3.865,3.896,3.9045,3.9751,4.0045,4.0045,4.0045,4.0045,4.0045,4.0045,4.0045,4.0039,4.0056,4.0079,4.0079,4.0089,4.0096,4.0096,4.0096,4.0096,4.0096,4.0096,4.0072,4.0072,4.0089,4.0072,4.0072,4.0096,4.0096,4.0096,4.0096,4.0096,4.0096,4.0096,4.0096,4.0096,4.0096,4.0096,4.0096,4.0096,4.0096,4.0096,4.0096,4.0096,4.0096,4.0096,4.0072,4.0079,4.0079,3.9379,3.896,3.896,3.8272,3.7899,3.7899,3.7899,3.7883,3.7866,3.8616,3.8599,3.7899,3.7899,3.8272,1.4658,0.0,0.0,0.0,0.0,0.0,0.0,0.0,0.0,0.0,0.0,0.0,0.0,0.0,0.0,0.0,0.0,0.0,0.0,0.0,0.0,0.0,0.0,0.0,0.0,0.0,0.0,0.0,3.0125,3.0125,3.0125,3.0545,3.0994,3.1473,3.2021,3.2127,3.1787,3.3448,3.415,3.3862,3.5042,3.5597,3.5603,3.5815,3.5903,3.5915,3.6134,3.6231,3.6332,3.7663,3.8204,3.8221,3.843,3.8514,3.8514,3.8514,3.8514,3.8514,3.8514,3.8514,3.8599,3.9136,3.9299,3.9406,3.9937,4.0096,4.0096,4.0096,4.0096,4.0096,4.0096,3.97,3.944,3.9971,3.9694,3.9457,3.9988,4.0096,4.0096,4.0096,4.0096,4.0096,4.0096,4.0096,4.0096,4.0096,4.0096,4.0096,4.0096,4.0096,4.0096,4.0096,4.0096,4.0096,4.0096,3.9616,3.9299,3.9299,3.8616,3.8204,3.8204,3.8018,3.7899,3.7899,3.7899,3.7635,3.7111,3.7838,3.8102,3.7899,3.7899,3.8018,0.0,0.0,0.0,0.0,0.0,0.0,0.0,1.9984,0.0,0.0,0.0,0.0,0.0,0.0,0.0,0.0,0.0,0.0,0.0,0.0,0.0,0.0,0.0,0.0,0.0,2.9817,3.0081,3.0331,3.0344,3.0344,3.0344,3.0458,3.0793,3.1431,3.1627,3.1787,3.1924,3.3416,3.413,3.4031,3.5081,3.56,3.56,3.56,3.56,3.56,3.56,3.56,3.5667,3.6569,3.7138,3.7466,3.7781,3.7899,3.7899,3.7899,3.7899,3.7899,3.7899,3.7899,3.7967,3.8396,3.8531,3.8622,3.9045,3.918,3.918,3.918,3.918,3.918,3.918,3.8853,3.865,3.9085,3.8859,3.8656,3.9096,3.918,3.9356,3.9977,4.0096,4.0096,4.0096,4.0096,4.0096,4.0096,4.0096,4.0096,4.0096,3.9836,3.9649,3.9649,3.9372,3.918,3.918,3.8791,3.8531,3.8531,3.7855,3.7432,3.7432,3.7122,3.6947,3.6947,3.6947,3.6733,3.6304,3.7066,3.7263,3.6947,3.728,3.7432,0.0,0.0,0.0,0.0,0.0,0.0,1.9866,1.9437,1.8948,0.0,0.0,0.0,0.0,0.0,0.0,0.0,0.0,0.0,0.0,0.0,0.0,0.0,0.0,0.0,2.9215,2.9812,3.0442,3.113,3.1172,3.122,3.1278,3.0782,3.077,3.1387,3.0948,3.1246,3.2365,3.318,3.3847,3.4357,3.5036,3.5368,3.5368,3.5436,3.5487,3.5481,3.5566,3.56,3.56,3.56,3.6022,3.6739,3.7398,3.764,3.764,3.764,3.764,3.764,3.764,3.764,3.7663,3.7747,3.7781,3.7781,3.7883,3.7899,3.7899,3.7899,3.7899,3.7899,3.7899,3.7832,3.7798,3.7883,3.7832,3.7798,3.7883,3.7899,3.8294,3.9592,3.9852,3.9852,3.9852,3.9852,3.9852,3.9852,3.9852,3.9852,3.9852,3.9288,3.8876,3.8876,3.8294,3.7899,3.7899,3.7815,3.7781,3.7781,3.7082,3.67,3.6746,3.6005,3.5633,3.5683,3.5633,3.56,3.56,3.6321,3.6304,3.5622,3.6332,3.6671,1.7799,1.8395,1.9111,0.0,0.0,0.0,1.8412,1.8079,1.8117,0.0,0.0,0.0,0.0,0.0,0.0,0.0,0.0,0.0,0.0,0.0,0.0,0.0,0.0,0.0,2.7775,2.8013,2.856,2.9706,2.9783,3.0028,3.0564,3.0478,3.073,3.1384,3.1804,3.1903,3.1619,3.2836,3.3228,3.2833,3.351,3.3841,3.3858,3.4438,3.4709,3.4742,3.5335,3.56,3.56,3.56,3.569,3.5847,3.5994,3.6045,3.6045,3.6045,3.6045,3.6045,3.6045,3.6045,3.6163,3.6795,3.7004,3.7122,3.7713,3.7899,3.7899,3.7899,3.7899,3.7899,3.7899,3.7455,3.7156,3.7764,3.7455,3.7173,3.7764,3.7899,3.7984,3.8278,3.8328,3.8328,3.8328,3.8328,3.8328,3.8328,3.8328,3.8328,3.8328,3.8204,3.8119,3.8119,3.7984,3.7899,3.7899,3.7353,3.7004,3.7004,3.6276,3.6026,3.6459,3.5912,3.5794,3.624,3.581,3.56,3.56,3.5757,3.5757,3.56,3.5757,3.5825,0.0,0.0,1.9628,1.9283,0.0,0.0,0.0,0.0,1.8476,1.9497,0.0,0.0,0.0,0.0,0.0,0.0,0.0,0.0,0.0,0.0,0.0,0.0,0.0,0.0,2.7305,2.7635,2.8183,2.9123,2.9547,2.9899,3.0235,3.0315,3.0635,3.1282,3.1374,3.1548,3.1852,3.2558,3.2906,3.2906,3.3236,3.3401,3.3413,3.3773,3.3947,3.3964,3.4343,3.4489,3.4489,3.4489,3.4715,3.5092,3.5453,3.56,3.56,3.56,3.56,3.56,3.56,3.56,3.5673,3.6073,3.6197,3.6265,3.6642,3.6761,3.6761,3.6761,3.6761,3.6761,3.6761,3.6479,3.6293,3.6676,3.6462,3.6293,3.6676,3.6761,3.6761,3.6761,3.6761,3.6997,3.7775,3.7899,3.7899,3.7899,3.7899,3.7899,3.7899,3.7584,3.7353,3.7353,3.6986,3.6761,3.6761,3.6666,3.6495,3.6214,3.607,3.6006,3.6006,3.5744,3.5728,3.6001,3.5739,3.56,3.56,3.56,3.56,3.56,3.56,3.56,0.0,0.0,0.0,0.0,0.0,1.9615,0.0,0.0,0.0,1.9945,0.0,0.0,0.0,0.0,0.0,0.0,0.0,0.0,0.0,0.0,0.0,0.0,0.0,0.0,0.0,2.7527,2.8168,2.8944,2.9279,2.9574,2.9866,3.0136,3.0472,3.0973,3.0701,3.1057,3.208,3.2135,3.2434,3.2978,3.2978,3.2978,3.2978,3.3113,3.3181,3.3203,3.3333,3.3401,3.3401,3.3401,3.3744,3.4359,3.5103,3.547,3.56,3.56,3.56,3.56,3.56,3.56,3.56,3.56,3.56,3.56,3.56,3.56,3.56,3.56,3.56,3.56,3.56,3.56,3.56,3.56,3.56,3.56,3.56,3.56,3.56,3.56,3.56,3.5994,3.7234,3.7454,3.7454,3.7454,3.7454,3.7454,3.7454,3.6947,3.661,3.6707,3.614,3.5805,3.5909,3.6219,3.6219,3.5783,3.6059,3.6097,3.5772,3.5854,3.592,3.592,3.592,3.592,3.5914,3.5799,3.5694,3.56,3.56,3.56,0.0,0.0,0.0,0.0,2.1485,0.0,0.0,0.0,1.929,1.8252,0.0,0.0,0.0,0.0,0.0,0.0,0.0,0.0,0.0,0.0,0.0,0.0,0.0,0.0,0.0,2.6582,2.7451,2.8887,2.7804,2.7681,2.9056,2.9764,3.0155,3.0217,3.0792,3.119,3.1314,3.1334,3.1363,3.1449,3.1449,3.1449,3.1466,3.2136,3.2424,3.2457,3.3119,3.3401,3.3401,3.3401,3.3452,3.3604,3.4336,3.5024,3.56,3.56,3.56,3.56,3.56,3.56,3.56,3.56,3.56,3.56,3.56,3.56,3.56,3.56,3.56,3.56,3.56,3.56,3.56,3.56,3.56,3.56,3.56,3.56,3.56,3.56,3.56,3.5656,3.5825,3.5853,3.5853,3.5853,3.5853,3.5853,3.5853,3.5791,3.5913,3.6387,3.6353,3.6491,3.6972,3.6633,3.6369,3.6307,3.592,3.587,3.6298,3.6773,3.7015,3.7015,3.7015,3.7015,3.701,3.6532,3.6059,3.56,3.56,3.56,0.0,0.0,0.0,0.0,0.0,0.0,2.0114,0.0,1.9991,0.0,0.0,0.0,0.0,0.0,0.0,0.0,0.0,0.0,0.0,0.0,0.0,0.0,0.0,0.0,0.0,0.0,0.0,0.0,2.5794,2.6078,2.7584,2.8357,2.8982,2.9453,3.0176,3.056,3.056,3.0992,3.1195,3.1195,3.1195,3.1195,3.1212,3.1522,3.1662,3.1679,3.199,3.2121,3.2121,3.2121,3.2379,3.2791,3.31,3.3665,3.432,3.432,3.4579,3.4962,3.4962,3.5239,3.56,3.56,3.56,3.56,3.56,3.56,3.56,3.56,3.56,3.56,3.56,3.56,3.56,3.56,3.56,3.56,3.56,3.56,3.56,3.56,3.56,3.56,3.56,3.56,3.56,3.56,3.56,3.5706,3.6016,3.6059,3.6265,3.6813,3.6595,3.6493,3.6714,3.6818,3.6729,3.6416,3.6476,3.6638,3.684,3.7073,3.7209,3.7209,3.7209,3.7052,3.6734,3.6514,3.6123,3.56,3.56,3.56,2.1425,0.0,0.0,0.0,0.0,0.0,0.0,0.0,0.0,0.0,0.0,0.0,0.0,0.0,0.0,0.0,0.0,0.0,0.0,0.0,0.0,0.0,0.0,0.0,0.0,0.0,0.0,0.0,0.0,2.4321,2.601,2.6991,2.7769,2.835,2.9301,2.9803,2.9803,3.0531,3.0903,3.0903,3.1106,3.1195,3.1195,3.1195,3.1195,3.1195,3.1195,3.1195,3.1195,3.1195,3.1522,3.2,3.2,3.2334,3.2848,3.3249,3.3744,3.4223,3.4426,3.4974,3.56,3.56,3.56,3.56,3.56,3.56,3.56,3.56,3.56,3.56,3.56,3.56,3.56,3.56,3.56,3.56,3.56,3.56,3.56,3.56,3.56,3.56,3.56,3.56,3.56,3.56,3.5728,3.5903,3.615,3.6442,3.6769,3.7167,3.6962,3.6865,3.701,3.7248,3.7168,3.6648,3.6972,3.727,3.7387,3.7392,3.7392,3.7392,3.7392,3.714,3.6613,3.6473,3.6203,3.5822,3.5661,3.56,0.0,0.0,0.0,2.154,0.0,0.0,0.0,0.0,2.1852,0.0,0.0,0.0,0.0,0.0,0.0,0.0,0.0,0.0,0.0,0.0,0.0,0.0,0.0,0.0,0.0,0.0,0.0,0.0,0.0,0.0,2.4444,2.5955,2.6746,2.6767,2.8244,2.9044,2.9044,2.977,3.0132,3.0132,3.0857,3.1195,3.1195,3.1195,3.1195,3.1195,3.1195,3.1195,3.1195,3.1195,3.1212,3.1246,3.1246,3.1246,3.1432,3.2877,3.3413,3.3541,3.4257,3.4974,3.56,3.56,3.56,3.56,3.56,3.56,3.56,3.56,3.56,3.56,3.56,3.56,3.56,3.56,3.56,3.56,3.56,3.56,3.56,3.56,3.56,3.56,3.56,3.56,3.56,3.56,3.6032,3.6198,3.5683,3.6537,3.7173,3.7209,3.7591,3.8061,3.8588,3.8167,3.7676,3.7196,3.7182,3.7401,3.7855,3.7872,3.7872,3.7872,3.7872,3.7645,3.7163,3.6648,3.6385,3.6354,3.5832,3.56,0.0,0.0,2.3014,2.1851,0.0,0.0,0.0,0.0,0.0,0.0,0.0,0.0,0.0,0.0,0.0,0.0,0.0,0.0,0.0,0.0,0.0,0.0,0.0,0.0,0.0,0.0,0.0,0.0,2.0694,0.0,0.0,2.4711,2.5468,2.5964,2.7427,2.8209,2.8209,2.8979,2.9373,2.9373,2.9614,2.9733,2.9767,3.0243,3.0475,3.0492,3.0992,3.1195,3.1195,3.1195,3.1195,3.1195,3.1195,3.1195,3.1263,3.177,3.2244,3.2774,3.3525,3.3942,3.414,3.414,3.414,3.4241,3.472,3.4872,3.4974,3.5453,3.56,3.56,3.56,3.56,3.56,3.56,3.56,3.56,3.56,3.56,3.56,3.56,3.56,3.56,3.56,3.56,3.56,3.56,3.5755,3.6065,3.6598,3.6972,3.7455,3.8127,3.8019,3.7975,3.8162,3.8001,3.7975,3.8181,3.8189,3.8251,3.8411,3.8437,3.8437,3.8437,3.8437,3.8171,3.7663,3.7474,3.7226,3.6926,3.6385,3.5941,2.2768,2.2982,0.0,2.2143,2.2118,0.0,2.1305,0.0,0.0,0.0,0.0,0.0,0.0,0.0,0.0,0.0,0.0,0.0,0.0,0.0,0.0,0.0,0.0,0.0,0.0,0.0,1.8524,1.9538,0.0,0.0,0.0,0.0,2.4453,2.5186,2.6395,2.7148,2.741,2.818,2.8569,2.8573,2.8853,2.8993,2.9027,2.9487,2.9849,3.0137,3.0598,3.0954,3.1195,3.1195,3.1195,3.1195,3.1195,3.1195,3.1195,3.1195,3.1662,3.2361,3.2836,3.3186,3.3401,3.3401,3.3401,3.3485,3.3964,3.4291,3.4545,3.4765,3.5199,3.5481,3.4946,3.5216,3.5532,3.5273,3.5402,3.56,3.56,3.56,3.56,3.56,3.56,3.56,3.56,3.56,3.56,3.56,3.5761,3.6139,3.6833,3.7225,3.7703,3.835,3.8279,3.8183,3.8183,3.8183,3.832,3.8688,3.8432,3.827,3.827,3.7991,3.7754,3.7571,3.7567,3.7443,3.7197,3.7197,3.7193,3.7182,3.6853,3.6491]},{"header":{"parameterUnit":"m.s-1","parameterCategory":1,"la1":30.6,"la2":29.2853,"lo1":-89.7004,"lo2":-87.6739,"dy":0.0162,"dx":0.0183,"nx":112,"ny":82,"refTime":"2024-08-16T06:00:00:Z","depth":0,"parameterNumber":3,"parameterNumberName":"V-component_of_WINDS"},"data":[0.0,0.0,0.0,0.0,0.0,0.0,0.0,0.0,0.0,0.0,0.0,0.0,0.0,0.0,0.0,0.0,0.0,0.0,0.0,0.0,0.0,0.0,0.0,0.0,0.0,0.0,0.0,0.0,0.0,0.0,0.0,0.0,0.0,0.0,0.0,0.0,0.0,0.0,0.0,0.0,0.0,0.0,0.0,0.0,0.0,0.0,0.0,0.0,0.0,0.0,0.0,0.0,0.0,0.0,0.0,0.0,0.0,0.0,0.0,0.0,0.0,0.0,0.0,0.0,0.0,0.0,0.0,0.0,0.0,0.0,0.0,0.0,0.0,0.0,0.0,0.0,0.0,0.0,0.0,0.0,0.0,0.0,0.0,0.0,0.0,0.0,0.0,0.0,0.0,0.0,0.0,1.6829,1.9101,2.0605,2.0605,2.0117,1.8918,1.6833,0.0,0.0,0.0,0.0,0.0,0.0,0.0,0.0,0.0,0.0,0.0,0.0,0.0,0.0,0.0,0.0,0.0,0.0,0.0,0.0,0.0,0.0,0.0,0.0,0.0,0.0,0.0,0.0,0.0,0.0,0.0,0.0,0.0,0.0,0.0,0.0,0.0,0.0,0.0,0.0,0.0,0.0,0.0,0.0,0.0,0.0,0.0,0.0,0.0,0.0,0.0,0.0,0.0,0.0,0.0,0.0,0.0,0.0,0.0,0.0,0.0,0.0,0.0,0.0,0.0,0.0,0.0,0.0,0.0,0.0,0.0,0.0,0.0,0.0,0.0,0.0,0.0,0.0,0.0,0.0,0.0,0.0,0.0,0.0,0.0,0.0,0.0,0.0,0.0,0.0,0.0,0.0,0.0,0.0,0.0,0.0,0.0,0.0,0.0,0.0,0.0,0.0,0.0,0.0,1.6373,1.9077,2.0099,2.0605,2.0605,1.9862,1.8623,1.6814,0.0,0.0,0.0,0.0,0.0,0.0,0.0,0.0,0.0,0.0,0.0,0.0,0.0,0.0,0.0,0.0,0.0,0.0,0.0,0.0,0.0,0.0,0.0,0.0,0.0,0.0,0.0,0.0,0.0,0.0,0.0,0.0,0.0,0.0,0.0,0.0,0.0,0.0,0.0,0.0,0.0,0.0,0.0,0.0,0.0,0.0,0.0,0.0,0.0,0.0,0.0,0.0,0.0,0.0,0.0,0.0,0.0,0.0,0.0,0.0,0.0,0.0,0.0,0.0,0.0,0.0,0.0,0.0,0.0,0.0,0.0,0.0,0.0,0.0,0.0,0.0,0.0,0.0,0.0,0.0,0.0,0.0,0.0,0.0,0.0,0.0,0.0,0.0,0.0,0.0,0.0,0.0,0.0,0.0,0.0,0.0,0.0,0.0,0.0,0.0,0.0,0.0,0.0,1.6061,1.7365,2.0001,2.0468,2.0605,2.0605,1.9804,1.8555,1.6814,1.5447,0.0,0.0,0.0,0.0,0.0,0.0,0.0,0.0,0.0,0.0,0.0,0.0,0.0,0.0,0.0,0.0,0.0,0.0,0.0,0.0,0.0,0.0,0.0,0.0,0.0,0.0,0.0,0.0,0.0,0.0,0.0,0.0,0.0,0.0,0.0,0.0,0.0,0.0,0.0,0.0,0.0,0.0,0.0,0.0,0.0,0.0,0.0,0.0,0.0,0.0,0.0,0.0,0.0,0.0,0.0,0.0,0.0,0.0,0.0,0.0,0.0,0.0,0.0,0.0,0.0,0.0,0.0,0.0,0.0,0.0,0.0,0.0,0.0,0.0,0.0,0.0,0.0,0.0,0.0,0.0,0.0,0.0,0.0,0.0,0.0,0.0,0.0,0.0,0.0,0.0,0.0,0.0,0.0,0.0,0.0,0.0,0.0,0.0,0.0,0.0,0.0,0.0,1.7783,1.8553,2.04,2.0605,2.0605,2.0605,1.9608,1.834,1.6802,1.4891,0.0,0.0,0.0,0.0,0.0,0.0,0.0,0.0,0.0,0.0,0.0,0.0,0.0,0.0,0.0,0.0,0.0,0.0,0.0,0.0,0.0,0.0,0.0,0.0,0.0,0.0,0.0,0.0,0.0,0.0,0.0,0.0,0.0,0.0,0.0,0.0,0.0,0.0,0.0,0.0,0.0,0.0,0.0,0.0,0.0,0.0,0.0,0.0,0.0,0.0,0.0,0.0,0.0,0.0,0.0,0.0,0.0,0.0,0.0,0.0,0.0,0.0,0.0,0.0,0.0,0.0,0.0,0.0,0.0,0.0,0.0,0.0,0.0,0.0,0.0,0.0,0.0,0.0,0.0,0.0,0.0,0.0,0.0,0.0,0.0,0.0,0.0,0.0,0.0,0.0,0.0,0.0,0.0,0.0,0.0,0.0,0.0,0.0,0.0,0.0,0.0,0.0,1.8175,1.953,2.0498,2.0605,2.0605,2.0605,1.9062,1.7688,1.6755,1.4365,0.0,0.0,0.0,0.0,0.0,0.0,0.0,0.0,0.0,0.0,0.0,0.0,0.0,0.0,0.0,0.0,0.0,0.0,0.0,0.0,0.0,0.0,0.0,0.0,0.0,0.0,0.0,0.0,0.0,0.0,0.0,0.0,0.0,0.0,0.0,0.0,0.0,0.0,0.0,0.0,0.0,0.0,0.0,0.0,0.0,0.0,0.0,0.0,0.0,0.0,0.0,0.0,0.0,0.0,0.0,0.0,0.0,0.0,0.0,0.0,0.0,0.0,0.0,0.0,0.0,0.0,0.0,0.0,0.0,0.0,0.0,0.0,0.0,0.0,0.0,0.0,0.0,0.0,0.0,0.0,0.0,0.0,0.0,0.0,0.0,0.0,0.0,0.0,0.0,0.0,0.0,0.0,0.0,0.0,0.0,0.0,0.0,0.0,0.0,0.0,0.0,0.0,1.7755,1.9032,0.0,2.0605,2.0605,2.0605,1.9501,1.8213,1.6785,0.0,0.0,0.0,0.0,0.0,0.0,0.0,0.0,0.0,0.0,0.0,0.0,0.0,0.0,0.0,0.0,0.0,0.0,0.0,0.0,0.0,0.0,0.0,0.0,0.0,0.0,0.0,0.0,0.0,0.0,0.0,0.0,0.0,0.0,0.0,0.0,0.0,0.0,0.0,0.0,0.0,0.0,0.0,0.0,0.0,0.0,0.0,0.0,0.0,0.0,0.0,0.0,0.0,0.0,0.0,0.0,0.0,0.0,0.0,0.0,0.0,0.0,0.0,0.0,0.0,0.0,0.0,0.0,0.0,0.0,0.0,0.0,0.0,0.0,0.0,0.0,0.0,0.0,0.0,0.0,0.0,0.0,0.0,0.0,0.0,0.0,0.0,0.0,0.0,0.0,0.0,0.0,0.0,0.0,0.0,0.0,0.0,0.0,0.0,0.0,0.0,0.0,1.6412,1.7698,1.8965,0.0,2.0605,2.0537,2.039,1.9335,1.8075,1.6596,0.0,0.0,0.0,0.0,0.0,0.0,0.0,0.0,0.0,0.0,0.0,0.0,0.0,0.0,0.0,0.0,0.0,0.0,0.0,0.0,0.0,0.0,0.0,0.0,0.0,0.0,0.0,0.0,0.0,0.0,0.0,0.0,0.0,0.0,0.0,0.0,0.0,0.0,0.0,0.0,0.0,0.0,0.0,0.0,0.0,0.0,0.0,0.0,0.0,0.0,0.0,0.0,0.0,0.0,0.0,0.0,0.0,0.0,0.0,0.0,0.0,0.0,0.0,0.0,0.0,0.0,0.0,0.0,0.0,0.0,0.0,0.0,0.0,0.0,0.0,0.0,0.0,0.0,0.0,0.0,0.0,0.0,0.0,0.0,0.0,0.0,0.0,0.0,0.0,0.0,0.0,0.0,0.0,0.0,0.0,0.0,0.0,0.0,0.0,0.0,0.0,0.0,1.6473,1.8224,1.9628,2.0507,2.0605,2.041,1.9942,1.8369,1.7036,0.0,0.0,0.0,0.0,0.0,0.0,0.0,0.0,0.0,0.0,0.0,0.0,0.0,0.0,0.0,0.0,0.0,0.0,0.0,0.0,0.0,0.0,0.0,0.0,0.0,0.0,0.0,0.0,0.0,0.0,0.0,0.0,0.0,0.0,0.0,0.0,0.0,0.0,0.0,0.0,0.0,0.0,0.0,0.0,0.0,0.0,0.0,0.0,0.0,0.0,0.0,0.0,0.0,0.0,0.0,0.0,0.0,0.0,0.0,0.0,0.0,0.0,0.0,0.0,0.0,0.0,0.0,0.0,0.0,0.0,0.0,0.0,0.0,0.0,0.0,0.0,0.0,0.0,0.0,0.0,0.0,0.0,0.0,0.0,0.0,0.0,0.0,0.0,0.0,0.0,0.0,0.0,0.0,0.0,0.0,0.0,0.0,0.0,0.0,0.0,0.0,0.0,0.0,1.6473,1.8224,1.9628,2.0507,2.0605,2.041,1.9942,1.8879,1.7628,1.619,0.0,0.0,0.0,0.0,0.0,0.0,0.0,0.0,0.0,0.0,0.0,0.0,0.0,0.0,0.0,0.0,0.0,0.0,0.0,0.0,0.0,0.0,0.0,0.0,0.0,0.0,0.0,0.0,0.0,0.0,0.0,0.0,0.0,0.0,0.0,0.0,0.0,0.0,0.0,0.0,0.0,0.0,0.0,0.0,0.0,0.0,0.0,0.0,0.0,0.0,0.0,0.0,0.0,0.0,0.0,0.0,0.0,0.0,0.0,0.0,0.0,0.0,0.0,0.0,0.0,0.0,0.0,0.0,0.0,0.0,0.0,0.0,0.0,0.0,0.0,0.0,0.0,0.0,0.0,0.0,0.0,0.0,0.0,0.0,0.0,0.0,0.0,0.0,0.0,0.0,0.0,0.0,0.0,0.0,0.0,0.0,0.0,0.0,0.0,0.0,0.0,0.0,1.6473,1.8224,1.9628,2.0507,2.0605,2.0351,1.9707,1.9006,1.7797,1.5943,0.0,0.0,0.0,0.0,0.0,0.0,0.0,0.0,0.0,0.0,0.0,0.0,0.0,0.0,0.0,0.0,0.0,0.0,0.0,0.0,0.0,0.0,0.0,0.0,0.0,0.0,0.0,0.0,0.0,0.0,0.0,0.0,0.0,0.0,0.0,0.0,0.0,0.0,0.0,0.0,0.0,0.0,0.0,0.0,0.0,0.0,0.0,0.0,0.0,0.0,0.0,0.0,0.0,0.0,0.0,0.0,0.0,0.0,0.0,0.0,0.0,0.0,0.0,0.0,0.0,0.0,0.0,0.0,0.0,0.0,0.0,0.0,0.0,0.0,0.0,0.0,0.0,0.0,0.0,0.0,0.0,0.0,0.0,0.0,0.0,0.0,0.0,0.0,0.0,0.0,0.0,0.0,0.0,0.0,0.0,0.0,0.0,0.0,0.0,0.0,0.0,0.0,1.6473,1.8224,1.9628,2.0507,2.0605,2.0243,1.9374,1.8869,1.7701,1.5598,0.0,0.0,0.0,0.0,0.0,0.0,0.0,0.0,0.0,0.0,0.0,0.0,0.0,0.0,0.0,0.0,0.0,0.0,0.0,0.0,0.0,0.0,0.0,0.0,0.0,0.0,0.0,0.0,0.0,0.0,0.0,0.0,0.0,0.0,0.0,0.0,0.0,0.0,0.0,0.0,0.0,0.0,0.0,0.0,0.0,0.0,0.0,0.0,0.0,0.0,0.0,0.0,0.0,0.0,0.0,0.0,0.0,0.0,0.0,0.0,1.5632,0.0,0.0,0.0,0.0,0.0,0.0,0.0,0.0,0.0,0.0,0.0,0.0,0.0,0.0,0.0,0.0,0.0,0.0,0.0,0.0,0.0,0.0,0.0,0.0,0.0,0.0,0.0,0.0,0.0,0.0,0.0,0.0,0.0,0.0,0.0,0.0,0.0,0.0,0.0,0.0,0.0,1.6473,1.8224,1.9628,2.0507,2.0605,2.0243,1.9374,1.8869,1.7836,1.6058,0.0,0.0,0.0,0.0,0.0,0.0,0.0,0.0,0.0,0.0,0.0,0.0,0.0,0.0,0.0,0.0,0.0,0.0,0.0,0.0,0.0,0.0,0.0,0.0,0.0,0.0,0.0,0.0,0.0,0.0,0.0,0.0,0.0,0.0,0.0,0.0,0.0,0.0,0.0,0.0,0.0,0.0,0.0,0.0,0.0,0.0,0.0,0.0,0.0,0.0,0.0,0.0,0.0,0.0,0.0,0.0,0.0,0.0,0.0,0.0,0.0,1.6436,0.0,0.0,0.0,0.0,0.0,0.0,0.0,0.0,0.0,0.0,0.0,0.0,0.0,0.0,0.0,0.0,0.0,0.0,0.0,0.0,0.0,0.0,0.0,0.0,0.0,0.0,0.0,0.0,0.0,0.0,0.0,0.0,0.0,0.0,0.0,0.0,0.0,0.0,0.0,0.0,1.6502,1.8224,1.9628,2.0507,2.0605,2.0331,1.9658,1.919,1.8302,1.6821,1.5271,0.0,0.0,0.0,0.0,0.0,0.0,0.0,0.0,0.0,0.0,0.0,0.0,0.0,0.0,0.0,0.0,0.0,0.0,0.0,0.0,0.0,0.0,0.0,0.0,0.0,0.0,0.0,0.0,0.0,0.0,0.0,0.0,0.0,0.0,0.0,0.0,0.0,0.0,0.0,0.0,0.0,0.0,0.0,0.0,0.0,0.0,0.0,0.0,0.0,0.0,0.0,0.0,0.0,1.9054,1.9415,2.0166,1.9718,1.9903,2.0518,1.9376,1.8869,1.8705,0.0,0.0,0.0,0.0,0.0,0.0,0.0,0.0,0.0,0.0,0.0,0.0,0.0,0.0,0.0,0.0,0.0,0.0,0.0,0.0,0.0,0.0,0.0,0.0,0.0,1.8212,1.7754,0.0,0.0,0.0,0.0,0.0,0.0,0.0,0.0,0.0,0.0,0.0,0.0,1.6754,1.838,1.9707,2.0507,2.0605,2.041,1.9942,1.9531,1.8797,1.7585,1.632,1.5402,0.0,0.0,0.0,0.0,0.0,0.0,0.0,0.0,0.0,0.0,0.0,0.0,0.0,0.0,0.0,0.0,0.0,0.0,0.0,0.0,0.0,0.0,0.0,0.0,0.0,0.0,0.0,0.0,0.0,0.0,0.0,0.0,1.4176,1.5517,0.0,0.0,0.0,0.0,0.0,0.0,0.0,0.0,0.0,0.0,0.0,0.0,0.0,1.8567,1.9042,2.0205,2.1005,2.1475,2.253,2.3281,2.3709,2.3301,2.3185,2.3242,2.2684,0.0,1.9679,1.9102,0.0,0.0,0.0,0.0,0.0,0.0,0.0,0.0,0.0,0.0,0.0,0.0,0.0,0.0,0.0,0.0,0.0,0.0,0.0,0.0,0.0,0.0,2.0038,2.0146,2.0214,2.0038,0.0,1.7091,1.5249,1.5025,1.4134,0.0,0.0,0.0,0.0,0.0,0.0,0.0,1.7619,1.8986,2.0019,2.0537,2.0605,2.041,1.9942,1.9531,1.8905,1.7978,1.7036,1.6347,1.592,1.5256,0.0,0.0,0.0,0.0,0.0,0.0,0.0,0.0,0.0,0.0,0.0,0.0,0.0,0.0,0.0,0.0,0.0,0.0,0.0,0.0,0.0,0.0,0.0,0.0,0.0,0.0,0.0,0.0,0.0,1.4014,1.5444,1.6034,1.6353,1.6258,0.0,0.0,0.0,0.0,0.0,0.0,0.0,0.0,0.0,2.003,2.0752,2.1347,2.1827,2.2616,2.3093,2.331,2.3866,2.4227,2.4391,2.4217,2.4141,2.4131,2.3923,2.3162,2.2002,2.0849,1.9844,1.8966,0.0,0.0,0.0,0.0,1.7833,1.7944,1.9181,1.9443,0.0,1.8954,0.0,0.0,0.0,0.0,0.0,0.0,0.0,0.0,0.0,0.0,0.0,2.1494,2.1495,2.1338,2.1357,1.9942,1.8294,0.0,1.6596,1.5854,1.4245,0.0,0.0,0.0,0.0,0.0,1.8177,1.9249,2.0078,2.0547,2.0605,2.0729,2.1043,2.071,2.0414,2.0261,1.9467,1.8759,1.8195,1.7058,1.5857,0.0,0.0,0.0,0.0,0.0,0.0,0.0,0.0,0.0,0.0,0.0,0.0,0.0,0.0,0.0,0.0,0.0,0.0,0.0,0.0,0.0,0.0,0.0,0.0,0.0,0.0,0.0,0.0,1.5562,1.6664,1.6889,1.7691,1.7828,0.0,0.0,0.0,0.0,0.0,0.0,1.9727,2.0498,2.124,2.2,2.2936,2.3758,2.4432,2.4408,2.4613,2.5045,2.4731,2.4627,2.4723,2.4627,2.458,2.4568,2.4451,2.4227,2.3838,2.2312,2.1239,2.0479,1.9611,1.9084,1.8898,1.9551,1.9639,1.9679,2.1338,2.1544,2.1094,2.1094,0.0,1.9863,1.8721,0.0,0.0,0.0,0.0,1.9474,2.0342,2.082,2.1419,2.2772,2.2855,2.28,2.3405,2.292,2.1764,0.0,1.9197,1.8622,1.6893,0.0,0.0,0.0,0.0,1.8771,1.9588,2.0362,2.0952,2.1296,2.1346,2.1623,2.2319,2.2023,2.1849,2.1992,2.1342,2.0672,2.0033,1.8705,1.7542,1.6583,0.0,0.0,0.0,0.0,0.0,0.0,0.0,0.0,0.0,0.0,0.0,0.0,0.0,0.0,0.0,0.0,0.0,0.0,0.0,0.0,0.0,0.0,0.0,0.0,0.0,0.0,0.0,0.0,0.0,1.9032,1.9911,0.0,0.0,0.0,0.0,1.9717,2.0537,2.1582,2.2903,2.3361,2.3799,2.4237,2.4293,2.4931,2.6163,2.4993,2.52,2.6762,2.5608,2.5254,2.5618,2.5236,2.5053,2.5033,2.459,2.4393,2.4305,2.3375,2.2751,2.2274,2.1405,2.1064,2.1034,2.1093,2.1366,2.1748,2.1856,2.2119,2.2401,2.2401,2.1573,2.0615,2.0918,2.0166,0.0,0.0,2.0742,2.1269,2.2137,2.2392,2.2795,2.4312,2.4671,2.4967,2.6055,2.5912,2.4984,0.0,2.1589,2.0845,2.136,0.0,2.0197,2.0536,2.1054,2.1697,2.2569,2.3059,2.3327,2.3349,2.3349,2.3368,2.3423,2.3059,2.2593,2.2035,2.1599,2.113,2.0587,1.9932,1.9204,1.8389,1.6209,0.0,0.0,0.0,0.0,0.0,0.0,0.0,0.0,0.0,0.0,0.0,0.0,0.0,0.0,0.0,0.0,0.0,0.0,0.0,0.0,0.0,0.0,0.0,0.0,0.0,0.0,0.0,0.0,2.042,2.1289,0.0,2.0801,2.1113,2.1868,2.3093,2.3711,2.4711,2.627,2.6787,2.7076,2.7236,2.6732,2.6677,2.7132,2.5863,2.5545,2.6126,2.5681,2.5562,2.5696,2.5542,2.5486,2.5524,2.6182,2.5846,2.4896,2.5346,2.4677,2.3312,2.2987,2.2684,2.2418,2.2418,2.2527,2.2674,2.2674,2.2771,2.2887,2.2887,2.2401,2.1846,2.1991,2.1718,2.1426,2.1748,2.264,2.3596,2.3893,2.4514,2.5206,2.5764,2.5891,2.6016,2.641,2.6368,2.6244,2.6252,2.4833,2.3438,2.2816,2.2865,2.2864,2.244,2.2997,2.3548,2.3765,2.3931,2.3882,2.3541,2.3496,2.3763,2.4409,2.4026,2.3763,2.3807,2.3341,2.2587,2.1482,2.0861,2.0025,1.8909,1.7479,1.596,0.0,0.0,0.0,0.0,0.0,0.0,0.0,0.0,0.0,0.0,0.0,0.0,0.0,0.0,0.0,0.0,0.0,0.0,0.0,0.0,0.0,0.0,0.0,0.0,0.0,0.0,2.13,2.1602,2.2911,2.3567,2.2995,2.3619,2.4749,2.6422,2.6975,2.7754,2.9015,2.9375,2.9544,2.9544,2.9032,2.8959,2.9384,2.7953,2.7438,2.7857,2.7235,2.6959,2.6959,2.6959,2.6959,2.7006,2.7839,2.7341,2.6012,2.6801,2.5998,2.422,2.4062,2.3807,2.3521,2.3386,2.3337,2.3307,2.3149,2.3091,2.3091,2.3091,2.2917,2.2703,2.2703,2.2962,2.3282,2.3282,2.4292,2.5368,2.5368,2.5933,2.6585,2.6954,2.7036,2.7148,2.7536,2.7617,2.7819,2.8537,2.7182,2.5737,2.5212,2.5448,2.5527,2.4933,2.5333,2.5678,2.5597,2.5578,2.538,2.4838,2.478,2.4974,2.5453,2.4988,2.4711,2.4793,2.4101,2.3194,2.2075,2.1023,2.0205,1.9655,1.8425,1.6956,1.5234,0.0,0.0,0.0,0.0,0.0,0.0,0.0,0.0,0.0,0.0,0.0,0.0,0.0,0.0,0.0,0.0,0.0,0.0,0.0,0.0,0.0,0.0,0.0,2.0337,2.2207,2.3512,2.2731,2.487,2.6056,2.5189,2.6387,2.7914,2.9578,3.0179,3.0654,3.1081,3.1115,3.1115,3.1115,3.1079,3.1651,3.2886,3.111,3.0835,3.2032,3.0285,2.9452,2.9452,2.9429,2.9418,2.9429,2.9452,2.8773,2.766,2.7707,2.6727,2.5181,2.4623,2.4401,2.4354,2.3965,2.381,2.3721,2.3258,2.3091,2.3112,2.3135,2.3146,2.3157,2.32,2.3984,2.4851,2.4851,2.5672,2.6544,2.6544,2.6586,2.6862,2.7916,2.8156,2.8468,2.9563,2.9801,2.9801,2.9801,2.8492,2.7717,2.8749,2.8502,2.815,2.815,2.815,0.0,2.8134,2.8125,2.7908,2.7361,2.7298,2.7072,2.6558,2.5929,2.5347,2.4808,2.3717,2.2844,2.232,2.0477,1.9846,2.0685,1.9108,1.7518,1.5973,0.0,0.0,0.0,0.0,0.0,0.0,0.0,0.0,0.0,0.0,0.0,0.0,0.0,0.0,0.0,0.0,0.0,0.0,0.0,0.0,0.0,0.0,2.4291,2.2856,2.4849,2.6255,2.5745,2.7467,2.8366,2.7551,2.8956,3.0502,3.1891,3.2124,3.2638,3.3626,3.3684,3.3684,3.3684,3.2827,3.2547,3.2898,3.1489,3.0959,3.1291,3.08,3.0566,3.0555,3.016,2.998,3.0004,3.0489,3.0022,2.897,2.9852,2.942,2.8002,2.577,2.4697,2.4393,2.4276,2.4053,2.3721,2.3258,2.3091,2.3244,2.406,2.4339,2.4489,2.5315,2.5777,2.6037,2.6037,2.682,2.7653,2.7653,2.8269,2.8971,2.9268,2.9336,2.9427,2.9721,2.9801,2.9801,2.9801,2.9429,2.921,2.9505,2.9428,2.9327,2.9327,2.9327,0.0,2.8743,2.8671,2.8326,2.7399,2.7298,2.7072,2.6558,2.5594,2.4791,2.4247,2.3148,2.2458,2.2314,2.1407,2.0848,2.0691,2.0251,1.9236,0.0,0.0,0.0,0.0,0.0,0.0,0.0,0.0,0.0,0.0,0.0,0.0,0.0,0.0,0.0,0.0,0.0,0.0,0.0,0.0,0.0,0.0,2.5716,2.7679,2.7025,2.8007,2.8666,2.8314,2.9679,3.0548,3.0308,3.14,3.2652,3.3898,3.4222,3.4671,3.5369,3.5416,3.5416,3.5416,3.473,3.4367,3.4367,3.3374,3.2889,3.2877,3.2665,3.2559,3.2547,3.2228,3.1969,0.0,3.2158,3.1504,3.0215,3.0911,3.0496,0.0,0.0,0.0,0.0,0.0,2.5969,2.5533,2.5032,2.4854,2.492,2.5369,2.5504,2.564,2.6296,2.6811,2.7168,2.7168,2.7958,2.8806,2.8806,2.9294,2.9801,2.9801,2.9801,2.9801,2.9801,2.9801,2.9801,2.9801,2.9801,0.0,2.9801,2.9801,2.9801,2.9801,2.9801,2.9666,2.933,2.928,2.8941,2.805,2.777,2.7424,2.688,2.5787,0.0,0.0,0.0,2.2332,2.1663,2.1557,0.0,0.0,0.0,0.0,0.0,0.0,0.0,0.0,1.8707,1.8361,0.0,0.0,0.0,0.0,0.0,0.0,0.0,0.0,0.0,0.0,0.0,0.0,0.0,0.0,0.0,0.0,2.9127,3.1628,3.1758,3.1362,3.0924,3.0556,3.168,3.2618,3.2957,3.3612,3.4445,3.5514,3.6106,3.6393,3.6393,0.0,0.0,0.0,0.0,3.6393,3.6393,3.5869,3.5607,3.5595,3.5117,3.489,3.489,3.4816,3.4527,3.4062,3.396,3.2989,3.1495,3.1435,3.0776,2.9784,2.951,2.9395,2.9351,2.8948,2.8531,2.8103,2.7576,0.0,0.0,2.6883,2.6723,2.6698,2.6833,2.7533,2.8297,2.8297,2.9028,2.9801,2.9801,2.9801,2.9801,2.9801,2.9801,2.9801,2.9801,2.9801,2.9801,2.9801,2.9801,2.9801,2.9801,2.9801,2.9801,2.9801,2.9801,2.9801,2.9801,2.9801,2.9566,2.896,0.0,0.0,2.7349,2.6319,2.5644,2.5523,2.4064,2.2558,2.1131,2.159,2.1839,2.1776,2.2314,2.3055,2.4004,2.4067,2.4398,2.4893,2.0826,1.9837,0.0,0.0,0.0,0.0,0.0,0.0,0.0,0.0,0.0,0.0,0.0,0.0,0.0,0.0,0.0,2.8971,3.1213,3.3066,3.3933,3.3962,3.3534,3.2498,3.3835,3.4501,3.3624,3.4962,3.597,3.6219,3.633,3.6393,3.6393,3.6393,0.0,3.6393,3.6393,3.6393,3.6393,3.6281,3.623,3.6218,0.0,0.0,3.6055,3.5569,3.5282,3.5143,3.4275,3.369,3.3343,3.2906,3.259,3.2185,3.0181,2.9395,2.9351,2.8948,2.8745,2.8599,2.8104,2.7654,2.7421,2.8195,2.8135,2.7956,2.888,2.9319,0.0,2.9475,2.9634,2.9801,2.9801,2.9801,2.9801,2.9801,2.9801,2.9801,2.9801,2.9801,2.9801,2.9801,2.9801,2.9801,2.9801,2.9801,2.9801,2.9801,2.9801,2.9801,2.9801,2.9801,2.9566,2.896,2.8819,2.8342,2.7386,2.6704,2.5929,2.5005,2.4247,2.369,2.3371,2.3883,2.3959,2.3514,2.4039,2.4202,2.4004,2.4428,2.5172,2.6126,2.4348,2.3931,0.0,0.0,0.0,0.0,0.0,0.0,0.0,0.0,0.0,0.0,0.0,2.5513,2.6219,0.0,3.0793,3.1834,3.3071,3.4175,3.498,3.5106,3.4887,3.4262,3.4961,3.5387,3.507,3.5875,3.6393,3.6393,3.6393,3.6393,3.6393,3.6393,3.6393,3.6393,3.6393,3.6393,3.6393,3.6393,3.6393,3.6393,3.6393,3.6393,3.6393,3.6093,3.5782,3.547,3.493,3.454,3.4262,3.3721,3.3341,3.2972,3.1745,3.1246,3.1233,3.1038,3.0954,3.0881,3.0344,2.9987,2.9798,3.0052,2.9788,2.9462,3.0036,3.0018,2.9801,2.9801,2.9801,2.9801,2.9801,2.9801,2.9801,2.9801,2.9801,2.9801,2.9801,2.9801,2.9801,2.9801,2.9801,2.9801,2.9801,2.9801,2.9801,2.9801,2.9801,2.9801,2.9801,2.9801,2.9679,2.938,2.9082,2.8671,2.815,2.7352,2.6532,2.5695,2.5117,2.4682,2.441,2.4653,2.4799,2.4795,2.5063,2.5352,2.5644,2.5925,2.6477,2.7286,2.6728,2.6594,0.0,0.0,0.0,0.0,0.0,0.0,0.0,0.0,2.3819,2.4893,2.7179,2.923,3.0044,3.1957,3.3594,3.4112,3.4565,3.5054,3.5606,3.567,3.567,3.567,3.567,3.5869,3.6355,3.6393,3.6393,3.6393,3.6393,3.6393,3.6393,3.6393,3.6393,3.6393,3.6393,3.6393,3.6393,3.6393,3.6393,3.6393,3.6393,3.6393,3.6393,3.6393,3.6131,3.567,3.5545,3.5206,3.4653,3.4112,3.3644,3.3253,3.314,3.3102,3.3102,3.3102,3.3102,3.3027,3.2541,3.2292,3.2129,3.17,3.1198,3.0736,3.0625,3.0306,2.993,2.9839,2.9801,2.9801,2.9801,2.9801,2.9801,2.9801,2.9801,2.9801,2.9801,2.9801,2.9801,2.9801,2.9801,2.9801,2.9801,2.9801,2.9801,2.9801,2.9801,2.9801,2.9801,2.9801,2.9801,2.9801,2.9358,2.9032,2.891,2.8009,2.7273,2.6839,2.6348,2.5887,2.5456,2.5444,2.5645,2.6084,2.6097,2.6536,2.7462,2.7462,2.772,2.8251,2.8251,2.8251,2.0846,2.1814,2.2984,2.4133,2.4372,2.5245,0.0,0.0,2.9366,3.0891,3.2274,3.3239,3.3353,3.4006,3.4703,3.5219,3.537,3.5619,3.6218,3.6305,3.6305,3.6305,3.6305,3.633,3.6393,3.6393,3.6393,3.6393,3.6393,3.6393,3.6393,3.6393,3.6393,3.6393,3.6393,3.6393,3.6393,3.6393,3.6393,3.6393,3.6393,3.6393,3.6393,3.6393,3.6355,3.6268,3.5732,3.5206,3.4653,3.4112,3.3859,3.3759,3.3291,3.3102,3.3102,3.3102,3.3102,3.309,3.3027,3.2641,3.2192,3.2129,3.175,3.1223,3.0748,3.056,3.0409,2.993,2.9801,2.9801,2.9801,2.9801,2.9801,2.9801,2.9801,2.9801,2.9801,2.9801,2.9801,2.9801,2.9801,2.9801,2.9801,2.9801,2.9801,2.9801,2.9801,2.9801,2.9801,2.9801,2.9801,2.9801,2.9739,2.9481,2.8947,2.8342,2.7975,2.7921,2.7858,2.7786,2.7736,2.7724,2.7761,2.7821,2.7821,2.7874,2.8009,2.8009,2.8288,2.8809,2.8809,2.8809,2.4853,2.5435,0.0,0.0,2.8185,2.9076,3.0696,3.1409,3.1999,3.2993,3.4063,3.4828,3.4828,3.5303,3.5767,0.0,3.6019,3.6106,3.6355,3.6106,3.5881,3.5881,3.5604,3.5666,3.6343,3.6393,3.6393,3.6393,3.6393,3.6393,3.6393,3.6393,3.6393,3.6393,3.6393,3.6393,3.6393,3.6393,3.6393,3.6393,3.6393,3.6393,3.6393,3.6393,3.6393,3.6393,3.6131,3.5706,3.5118,3.459,3.4175,3.3847,3.3316,3.3102,3.3102,3.3102,3.3102,3.3102,3.3102,3.2928,3.2727,3.2727,3.2328,3.1825,3.1602,3.11,3.055,3.0322,3.0043,2.9801,2.9801,2.9801,2.9801,2.9801,2.9801,2.9801,2.9801,2.9801,2.9801,2.9801,2.9801,2.9801,2.9801,2.9801,2.9801,2.9801,2.9801,2.9801,2.9801,2.9801,2.9801,2.9801,2.9801,2.9691,2.9443,2.8903,2.8568,2.8568,2.8267,2.81,2.81,2.81,2.81,2.81,2.81,2.8251,2.8568,2.8568,2.8856,2.9418,2.9418,2.9418,2.7164,0.0,0.0,2.9679,3.0957,3.1911,3.2062,3.2966,3.3872,3.4262,3.4966,3.5495,3.5495,3.5856,3.6143,3.6143,3.6281,3.6393,3.6393,3.5881,3.5495,3.5495,3.503,3.5015,3.5842,3.6055,3.6218,3.6393,3.6393,3.6393,3.6393,3.6393,3.6393,3.6393,3.6393,3.6393,3.6393,3.6393,3.6393,3.6393,3.6393,3.6393,3.6393,3.6393,3.6393,3.6393,3.6393,3.6143,3.5707,3.5155,3.4603,3.4073,3.3531,3.3228,3.3102,3.3102,3.3102,3.3102,3.3102,3.3102,3.3102,3.3102,3.2803,3.2416,3.2254,3.1552,3.0786,3.0638,3.0209,2.9801,2.9801,2.9801,2.9801,2.9801,2.9801,2.9801,2.9801,2.9801,2.9801,2.9801,2.9801,2.9801,2.9801,2.9801,2.9801,2.9801,2.9801,2.9801,2.9801,2.9801,2.9801,2.9801,2.9801,2.9801,2.9801,2.9393,2.9145,2.9145,2.8778,2.8574,2.8574,2.8574,2.8574,2.8574,2.8574,2.8753,2.9145,2.9145,2.938,2.9801,2.9801,2.9801,0.0,0.0,2.9854,3.0435,3.1813,3.318,3.372,3.4653,3.542,3.5445,3.547,3.5495,3.5495,3.5508,3.552,3.552,3.6019,3.6393,3.6393,3.5881,3.5495,3.5495,3.503,3.4715,0.0,3.5218,3.5769,3.6355,3.6393,3.6393,3.6393,3.6393,3.6393,3.6393,3.6393,3.6393,3.6393,3.6393,3.6393,3.6393,3.6393,3.6393,3.6393,3.6393,3.6393,3.6393,3.6393,3.6393,3.633,3.5719,3.5156,3.4615,3.4085,3.3556,3.3102,3.3102,3.3102,3.3102,3.3102,3.3102,3.3102,3.3102,3.309,3.2953,3.238,3.1813,3.1271,3.0748,3.0209,2.9801,2.9801,2.9801,2.9801,2.9801,2.9801,2.9801,2.9801,2.9801,2.9801,2.9801,2.9801,2.9801,2.9801,2.9801,2.9801,2.9801,2.9801,2.9801,2.9801,2.9801,2.9801,2.9801,2.9801,2.9801,2.9801,2.9789,2.9767,2.9767,2.9764,2.9751,2.9751,2.9751,2.9751,2.9751,2.9751,2.9764,2.9767,2.9767,2.9789,2.9801,2.9801,2.9801,2.8341,0.0,3.1526,3.2102,3.3495,3.4741,3.4917,3.5555,3.5981,3.5582,3.5218,3.4866,3.4502,3.4438,3.4552,3.4916,3.5443,3.5943,3.6343,3.5881,3.5369,3.5005,3.4816,0.0,0.0,0.0,0.0,3.5768,3.5806,3.5981,3.638,3.6393,3.6393,3.6393,3.6393,3.6393,3.6393,3.6393,3.6393,3.6393,3.6393,3.6393,3.6393,3.6393,3.6393,3.6393,3.6393,3.6393,3.6355,3.5744,3.5395,3.5143,3.425,3.3784,3.3594,3.3228,3.3102,3.3102,3.3102,3.3102,3.3102,3.3102,3.3102,3.3065,3.2853,3.239,3.1825,3.1286,3.0736,3.0256,2.9892,2.9801,2.9801,2.9801,2.9801,2.9801,2.9801,2.9801,2.9801,2.9801,2.9801,2.9801,2.9801,2.9801,2.9801,2.9801,2.9801,2.9801,2.9801,2.9801,2.9801,2.9801,2.9801,2.9801,2.9801,2.9801,2.9801,2.9801,2.9801,2.9801,2.9801,2.9801,2.9801,2.9801,2.9801,2.9801,2.9801,2.9801,2.9801,2.9801,2.9801,2.9801,2.9877,3.1273,3.248,3.3658,3.4741,3.5495,3.5495,3.5806,3.5855,3.5092,3.4327,3.3699,3.3357,3.3144,3.3319,3.4262,3.4855,3.5493,3.6292,3.5881,3.537,3.503,3.498,3.4916,0.0,0.0,0.0,3.5781,3.5819,3.607,3.6645,3.6695,3.6771,3.6972,3.6972,3.6884,3.6695,3.6695,3.6594,3.6393,3.6393,3.6393,3.6393,3.6393,3.6393,3.6393,3.6393,3.6393,3.6368,3.5981,3.5694,3.5408,3.4527,3.4073,3.3834,3.3303,3.3102,3.3102,3.3102,3.3102,3.3102,3.3102,3.3102,3.3102,3.3102,3.2677,3.2129,3.1788,3.1162,3.0522,3.0181,2.9942,2.9801,2.9801,2.9801,2.9801,2.9801,2.9801,2.9801,2.9801,2.9801,2.9801,2.9801,2.9801,2.9801,2.9801,2.9801,2.9801,2.9801,2.9801,2.9801,2.9801,2.9801,2.9801,2.9801,2.9801,2.9801,2.9801,2.9801,2.9801,2.9801,2.9801,2.9801,2.9801,2.9801,2.9801,2.9801,2.9801,2.9801,2.9801,2.9801,2.9801,3.1158,3.1901,3.2871,3.498,3.5495,3.5495,3.547,3.5433,3.5106,3.401,3.2867,3.2066,3.2003,0.0,3.1861,3.3508,3.4289,3.5102,3.6242,3.5932,3.5582,0.0,0.0,0.0,0.0,0.0,0.0,3.6443,0.0,3.6657,3.7211,3.7236,3.7475,3.7977,3.799,3.7739,3.7211,3.7173,3.6896,3.6393,3.6393,3.6393,3.6393,3.6393,3.6393,3.6393,3.6393,3.6393,3.6393,3.6393,3.6068,3.5483,3.4929,3.4388,3.3872,3.3316,3.3102,3.3102,3.3102,3.3102,3.3102,3.3102,3.3102,3.3102,3.3102,3.2692,3.2242,3.2217,3.1451,3.0625,3.06,3.0206,2.9801,2.9801,2.9801,2.9801,2.9801,2.9801,2.9801,2.9801,2.9801,2.9801,2.9801,2.9801,2.9801,2.9801,2.9801,2.9801,2.9801,2.9801,2.9801,2.9801,2.9801,2.9801,2.9801,2.9801,2.9801,2.9801,2.9801,2.9801,2.9801,2.9801,2.9801,2.9801,2.9801,2.9801,2.9801,2.9801,2.9801,2.9801,2.9801,2.9801,3.1702,3.3298,3.4792,3.5357,3.5495,3.5395,3.4993,3.459,3.3873,3.2351,3.1173,3.0143,2.9292,0.0,0.0,3.1848,3.3545,0.0,3.6242,3.6608,0.0,3.6219,0.0,3.7149,3.6609,3.7049,0.0,0.0,3.6846,3.6808,3.7751,3.7801,3.7864,3.8002,3.799,3.7739,3.7211,3.6796,3.6544,3.6393,3.6393,3.6393,3.6393,3.6393,3.6393,3.6393,3.6393,3.6393,3.6393,3.6393,3.6318,3.6068,3.5091,3.4615,3.4388,3.3454,3.3102,3.3102,3.3102,3.3102,3.3102,3.3102,3.3102,3.3102,3.3102,3.2989,3.2778,3.234,3.1725,3.1097,3.0701,3.0206,2.9801,2.9801,2.9801,2.9801,2.9801,2.9801,2.9801,2.9801,2.9801,2.9801,2.9801,2.9801,2.9801,2.9801,2.9801,2.9801,2.9801,2.9801,2.9801,2.9801,2.9801,2.9801,2.9801,2.9801,2.9801,2.9801,2.9801,2.9801,2.9801,2.9801,2.9801,2.9801,2.9801,2.9801,2.9801,2.9801,2.9801,2.9801,2.9801,2.9801,3.2717,3.4201,3.5495,3.5495,3.532,3.4828,3.3547,3.2832,3.1838,2.9698,2.8768,0.0,2.6858,2.777,0.0,0.0,0.0,0.0,3.5818,3.6696,3.7097,0.0,3.7713,0.0,3.7613,3.8052,3.8379,0.0,3.7588,3.7475,3.8354,3.8379,3.8492,3.8743,3.8755,3.8354,3.755,3.7022,3.6632,3.6393,3.6393,3.6393,3.6393,3.6393,3.6393,3.6393,0.0,3.6393,3.6393,3.6393,3.6393,3.6292,3.5152,3.4703,3.4565,3.3504,3.3102,3.3102,3.3102,3.3102,3.3102,3.3102,3.3102,3.3102,3.3102,3.3102,3.3027,3.269,3.219,3.1625,3.1097,3.0548,3.0093,2.9864,2.9801,2.9801,2.9801,2.9801,2.9801,2.9801,2.9801,2.9801,2.9801,2.9801,2.9801,2.9801,2.9801,2.9801,2.9801,2.9801,2.9801,2.9801,2.9801,2.9801,2.9801,2.9801,2.9801,2.9801,2.9801,2.9801,2.9801,2.9801,2.9801,2.9801,2.9801,2.9801,2.9801,2.9801,2.9801,2.9801,2.9801,2.9801,3.3859,3.4741,3.5495,3.5495,3.498,3.3936,3.1775,3.0761,2.9506,2.683,0.0,2.5749,2.4754,2.5887,2.7566,2.9377,0.0,3.3494,3.5256,3.6421,3.7148,3.7286,3.8253,3.8718,3.8266,3.8693,3.9007,3.9007,3.8529,3.8454,3.8982,3.9007,3.922,3.9697,3.9546,3.9007,3.8015,3.7399,3.6859,3.6393,3.6393,3.6393,3.6393,3.6393,3.6393,3.6393,0.0,0.0,3.6393,3.6393,3.6393,3.6292,3.5152,3.4703,3.4565,3.3504,3.3102,3.3102,3.3102,3.3102,3.3102,3.3102,3.3102,3.3102,3.3102,3.3102,3.3102,3.3102,3.2614,3.1989,3.1522,3.0947,3.0372,2.9905,2.9801,2.9801,2.9801,2.9801,2.9801,2.9801,2.9801,2.9801,2.9801,2.9801,2.9801,2.9801,2.9801,2.9801,2.9801,2.9801,2.9801,2.9801,2.9801,2.9801,2.9801,2.9801,2.9801,2.9801,2.9801,2.9801,2.9801,2.9801,2.9801,2.9801,2.9801,2.9801,2.9801,2.9801,2.9801,2.9801,2.9801,2.9801,3.4413,3.5018,3.5495,3.5495,3.4438,3.2916,3.1137,2.9594,0.0,0.0,2.4352,2.3629,2.3434,2.4407,2.6071,2.8634,0.0,0.0,0.0,0.0,3.6859,0.0,0.0,0.0,0.0,0.0,0.0,0.0,0.0,3.9459,3.9559,3.9559,3.9609,3.9697,3.8781,3.8191,3.799,3.7034,3.6494,3.6393,3.6393,3.6393,3.6393,3.6393,3.6393,3.6393,3.6393,0.0,3.6393,3.6393,3.6393,3.6292,3.5152,3.4703,3.4565,3.3504,3.3102,3.3102,3.3102,3.3102,3.3102,3.3102,3.3102,3.3102,3.3102,3.3102,3.3102,3.3102,3.2349,3.1522,3.1421,3.068,2.9927,2.9817,2.9801,2.9801,2.9801,2.9801,2.9801,2.9801,2.9801,2.9801,2.9801,2.9801,2.9801,2.9801,2.9801,2.9801,2.9801,2.9801,2.9801,2.9801,2.9801,2.9801,2.9801,2.9801,2.9801,2.9801,2.9801,2.9801,2.9801,2.9801,2.9801,2.9801,2.9801,2.9801,2.9801,2.9801,2.9801,2.9801,2.9801,2.9801,3.4137,3.4678,3.5018,3.4741,3.3635,3.1964,2.9453,0.0,0.0,0.0,2.2447,2.2081,2.1485,0.0,0.0,0.0,0.0,0.0,0.0,0.0,0.0,0.0,0.0,0.0,0.0,0.0,0.0,0.0,0.0,3.9697,3.9697,3.9697,3.9572,3.9283,3.8756,3.8178,3.7588,3.7072,3.6682,3.6393,3.6393,3.6393,3.6393,3.6393,3.6393,3.6393,3.6393,0.0,3.6393,3.6393,3.6218,3.5844,3.5017,3.4527,3.4187,3.3393,3.3102,3.3102,3.3102,3.3102,3.3102,3.3102,3.3102,3.3102,3.3102,3.3102,3.3102,3.3102,3.2476,3.175,3.1472,3.0809,3.0143,2.9877,2.9801,2.9801,2.9801,2.9801,2.9801,2.9801,2.9801,2.9801,2.9801,2.9801,2.9801,2.9801,2.9801,2.9801,2.9801,2.9801,2.9801,2.9801,2.9801,2.9801,2.9801,2.9801,2.9801,2.9801,2.9801,2.9801,2.9801,2.9801,2.9801,2.9801,2.9801,2.9801,2.9801,2.9801,2.9801,2.9801,2.9801,2.9801,3.3619,3.4112,3.44,3.3859,3.2792,3.1035,2.7851,2.6168,0.0,0.0,2.0923,2.0897,2.0131,0.0,2.3065,0.0,0.0,0.0,0.0,0.0,0.0,0.0,0.0,0.0,0.0,0.0,0.0,0.0,0.0,0.0,3.9697,3.9597,3.9346,3.8906,3.8655,3.8115,3.7211,3.7097,3.6808,3.6393,3.6393,3.6393,3.6393,3.6393,3.6393,3.6393,3.6393,0.0,0.0,3.6393,3.6031,3.5445,3.4916,3.4375,3.3834,3.3303,3.3102,3.3102,3.3102,3.3102,3.3102,3.3102,3.3102,3.3102,3.3102,3.3102,3.3102,3.3102,3.2577,3.1938,3.1509,3.0922,3.0322,2.9892,2.9801,2.9801,2.9801,2.9801,2.9801,2.9801,2.9801,2.9801,2.9801,2.9801,2.9801,2.9801,2.9801,2.9801,2.9801,2.9801,2.9801,2.9801,2.9801,2.9801,2.9801,2.9801,2.9801,2.9801,2.9801,2.9801,2.9801,2.9801,2.9801,2.9801,2.9801,2.9801,2.9801,2.9801,2.9801,2.9801,2.9801,2.9801,3.3165,3.3569,3.3847,3.3316,3.1951,3.0008,2.7207,0.0,0.0,2.1182,2.0301,2.0094,2.0541,2.0779,2.1771,0.0,0.0,2.7718,0.0,0.0,0.0,0.0,0.0,0.0,0.0,0.0,0.0,0.0,0.0,0.0,3.9697,3.9245,3.8944,3.8894,3.7901,3.7311,3.7198,3.672,3.6443,3.6393,3.6393,3.6393,3.6393,3.6393,3.6393,3.6393,3.6393,0.0,0.0,3.6393,3.6031,3.5445,3.4916,3.4375,3.3834,3.3303,3.3102,3.3102,3.3102,3.3102,3.3102,3.3102,3.3102,3.3102,3.3102,3.3102,3.3102,3.3102,3.2313,3.1459,3.1409,3.0643,2.9854,2.9814,2.9801,2.9801,2.9801,2.9801,2.9801,2.9801,2.9801,2.9801,2.9801,2.9801,2.9801,2.9801,2.9801,2.9801,2.9801,2.9801,2.9801,2.9801,2.9801,2.9801,2.9801,2.9801,2.9801,2.9801,2.9801,2.9801,2.9801,2.9801,2.9801,2.9801,2.9801,2.9801,2.9801,2.9801,2.9801,2.9801,2.9801,2.9801,3.1798,3.2225,3.2351,3.2125,3.1095,2.939,2.6595,0.0,2.3271,2.0691,1.9968,1.9874,2.0106,2.0163,2.0847,2.2947,2.3409,2.4656,2.7986,0.0,0.0,0.0,0.0,0.0,0.0,0.0,0.0,0.0,0.0,0.0,3.8705,3.8818,3.858,3.7901,3.7449,3.7035,3.672,3.6506,3.6393,3.6393,3.6393,3.6393,3.6393,3.6393,3.6393,3.6393,3.6393,0.0,0.0,3.6006,3.5531,3.4979,3.4438,3.3884,3.3393,3.3178,3.3102,3.3102,3.3102,3.3102,3.3102,3.3102,3.3102,3.3102,3.3102,3.3102,3.3102,3.3102,3.2286,3.1396,3.1396,3.0605,2.9801,2.9801,2.9801,2.9801,2.9801,2.9801,2.9801,2.9801,2.9801,2.9801,2.9801,2.9801,2.9801,2.9801,2.9801,2.9801,2.9801,2.9801,2.9801,2.9801,2.9801,2.9801,2.9801,2.9801,2.9801,2.9801,2.9801,2.9801,2.9801,2.9801,2.9801,2.9801,2.9801,2.9801,2.9801,2.9801,2.9801,2.9801,2.9801,2.9801,3.0507,3.1158,3.1359,3.1198,3.0218,2.8612,0.0,2.4406,2.2791,2.0313,1.9798,1.9798,1.9798,1.9798,2.0244,2.1606,2.1907,2.3032,2.6072,2.7704,0.0,0.0,0.0,0.0,0.0,0.0,0.0,0.0,0.0,0.0,0.0,3.8178,3.8039,3.7235,3.7047,3.6783,3.6393,3.6393,3.6393,3.6393,3.6393,3.6393,3.6393,3.6393,3.6393,3.6393,0.0,0.0,0.0,3.5506,3.4942,3.4438,3.4048,3.3569,3.3102,3.3102,3.3102,3.3102,3.3102,3.3102,3.3102,3.3102,3.3102,3.3102,3.3102,3.3102,3.3102,3.3102,3.2286,3.1359,3.1198,3.0492,2.9801,2.9801,2.9801,2.9801,2.9801,2.9801,2.9801,2.9801,2.9801,2.9801,2.9801,2.9801,2.9801,2.9801,2.9801,2.9801,2.9801,2.9801,2.9801,2.9801,2.9801,2.9801,2.9801,2.9801,2.9801,2.9801,2.9801,2.9801,2.9801,2.9801,2.9801,2.9801,2.9801,2.9801,2.9801,2.9801,2.9801,2.9801,2.9801,2.9801,2.9512,3.0592,3.1273,3.0748,2.9355,2.7535,0.0,2.3524,2.183,2.015,1.9798,1.9798,1.9798,1.9798,1.9993,2.0623,2.2051,2.388,2.6185,2.8391,0.0,0.0,0.0,0.0,0.0,0.0,0.0,0.0,0.0,0.0,0.0,3.7211,3.7211,3.7198,3.6695,3.6406,3.6393,3.6393,3.6393,3.6393,3.6393,3.6393,3.6393,3.6393,3.6393,0.0,0.0,0.0,0.0,3.493,3.4389,3.3909,3.3897,3.3569,3.3102,3.3102,3.3102,3.3102,3.3102,3.3102,3.3102,3.3102,3.3102,3.3102,3.3102,3.3102,3.3102,3.3102,3.2286,3.1283,3.0748,3.0218,2.9801,2.9801,2.9801,2.9801,2.9801,2.9801,2.9801,2.9801,2.9801,2.9801,2.9801,2.9801,2.9801,2.9801,2.9801,2.9801,2.9801,2.9801,2.9801,2.9801,2.9801,2.9801,2.9801,2.9801,2.9801,2.9801,2.9801,2.9801,2.9801,2.9801,2.9801,2.9801,2.9801,2.9801,2.9801,2.9801,2.9801,2.9801,2.9801,2.9801,2.5624,2.6624,2.7227,2.6306,2.5686,2.4908,2.3424,2.2108,2.0949,1.9993,1.9516,1.9371,1.9729,1.9798,2.0363,2.2056,2.2764,0.0,0.0,0.0,0.0,0.0,0.0,0.0,0.0,0.0,0.0,0.0,0.0,0.0,0.0,3.6645,3.6645,3.6645,3.6494,3.6393,3.6393,3.6393,3.6393,3.6393,3.6393,3.6393,3.6393,3.6393,0.0,0.0,0.0,0.0,0.0,3.4375,3.406,3.3859,3.3494,3.3253,3.3102,3.3102,3.3102,3.3102,3.3102,3.3102,3.3102,3.3102,3.3102,3.3102,3.3102,3.3102,3.2939,3.216,3.1673,3.1195,3.0281,2.993,2.9801,2.9801,2.9801,2.9801,2.9801,2.9801,2.9801,2.9801,2.9801,2.9801,2.9801,2.9801,2.9801,2.9801,2.9801,2.9801,2.9801,2.9801,2.9801,2.9801,2.9801,2.9801,2.9801,2.9801,2.9801,2.9801,2.9801,2.9801,2.9801,2.9801,2.9801,2.9801,2.9801,2.9801,2.9801,2.9801,2.9801,2.9801,2.9801,2.9801,0.0,2.3996,2.4498,2.3833,2.3364,2.2819,2.1902,2.0847,1.9893,1.9321,1.8932,1.8863,1.9397,1.9497,2.0093,2.19,2.2526,0.0,0.0,0.0,0.0,0.0,0.0,0.0,0.0,0.0,0.0,0.0,0.0,0.0,0.0,3.6393,3.6393,3.6393,3.6393,3.6393,3.6393,3.6393,3.6393,3.6393,3.6393,3.6393,3.6393,3.6156,0.0,0.0,0.0,0.0,0.0,3.3822,3.3594,3.3569,3.3228,3.3102,3.3102,3.3102,3.3102,3.3102,3.3102,3.3102,3.3102,3.3102,3.3102,3.3052,3.2828,3.2765,3.2614,3.1901,3.1411,3.0947,3.0281,2.9942,2.9801,2.9801,2.9801,2.9801,2.9801,2.9801,2.9801,2.9801,2.9801,2.9801,2.9801,2.9801,2.9801,2.9801,2.9801,2.9801,2.9801,2.9801,2.9801,2.9801,2.9801,2.9801,2.9801,2.9801,2.9801,2.9801,2.9801,2.9801,2.9801,2.9801,2.9801,2.9801,2.9801,2.9801,2.9801,2.9801,2.9801,2.9801,2.9801,2.9801,0.0,2.2338,2.2787,2.2706,2.1968,2.113,2.0641,1.9673,0.0,1.8292,1.8179,1.8343,1.8995,1.9096,1.9478,2.0773,0.0,0.0,0.0,0.0,0.0,0.0,0.0,0.0,0.0,0.0,0.0,0.0,0.0,0.0,0.0,3.6393,3.6393,3.6393,3.6393,3.6393,3.6393,3.6393,3.638,3.6343,3.6343,3.6318,3.6267,3.5706,0.0,0.0,0.0,0.0,0.0,3.3316,3.3102,3.3102,3.3102,3.3102,3.3102,3.3102,3.3102,3.3102,3.3102,3.3102,3.309,3.3052,3.304,3.2916,3.2317,3.2167,3.2179,3.2116,3.1376,3.0588,3.055,3.0171,2.9801,2.9801,2.9801,2.9801,2.9801,2.9801,2.9801,2.9801,2.9801,2.9801,2.9801,2.9801,2.9801,2.9801,2.9801,2.9801,2.9801,2.9801,2.9801,2.9801,2.9801,2.9801,2.9801,2.9801,2.9801,2.9801,2.9801,2.9801,2.9801,2.9801,2.9801,2.9801,2.9801,2.9801,2.9801,2.9801,2.9801,2.9801,2.9801,2.9801,1.769,0.0,1.9773,1.8938,1.8863,1.8938,0.0,1.826,1.7858,0.0,0.0,0.0,1.9968,1.9918,0.0,0.0,0.0,0.0,0.0,0.0,0.0,0.0,0.0,0.0,0.0,0.0,0.0,0.0,0.0,3.6393,3.6393,3.6393,3.6393,3.6393,3.6393,3.6393,3.6393,3.6393,3.6168,3.5707,3.5707,3.5505,3.5091,3.4954,3.4665,0.0,0.0,0.0,3.3278,3.3153,3.3102,3.3102,3.3102,3.3102,3.3102,3.3102,3.3102,3.3102,3.3102,3.3102,3.3016,3.2554,3.2405,3.2315,3.175,3.1876,3.2028,3.1213,3.0789,3.051,3.0083,2.9892,2.9801,2.9801,2.9801,2.9801,2.9801,2.9801,2.9801,2.9801,2.9801,2.9801,2.9801,2.9801,2.9801,2.9801,2.9801,2.9801,2.9801,2.9801,2.9801,2.9801,2.9801,2.9801,2.9801,2.9801,2.9801,2.9801,2.9801,2.9801,2.9801,2.9801,2.9801,2.9801,2.9801,2.9801,2.9801,2.9801,2.9801,2.9801,2.9801,2.9801,1.6505,1.7546,1.8487,1.7903,1.7996,1.8198,1.8198,0.0,0.0,0.0,0.0,0.0,0.0,0.0,0.0,0.0,0.0,0.0,0.0,0.0,0.0,0.0,0.0,0.0,0.0,0.0,0.0,0.0,0.0,3.5616,3.5616,3.5616,3.5616,3.5616,3.5616,3.5741,3.5981,3.5994,3.5706,3.5131,3.5131,3.498,3.469,3.4451,3.4162,0.0,0.0,0.0,3.3102,3.3102,3.3102,3.3102,3.3102,3.3102,3.3102,3.3102,3.3102,3.3102,3.3102,3.2916,3.2591,3.2014,3.1838,3.1738,3.1198,3.1248,3.1351,3.0751,3.0422,3.0168,2.9877,2.9801,2.9801,2.9801,2.9801,2.9801,2.9801,2.9801,2.9801,2.9801,2.9801,2.9801,2.9801,2.9801,2.9801,2.9801,2.9801,2.9801,2.9801,2.9801,2.9801,2.9801,2.9801,2.9801,2.9801,2.9801,2.9801,2.9801,2.9801,2.9801,2.9801,2.9801,2.9801,2.9801,2.9801,2.9801,2.9801,2.9801,2.9801,2.9801,2.9801,2.9801,1.6706,1.7646,1.8505,1.816,1.8198,1.8292,1.8223,0.0,0.0,0.0,0.0,0.0,0.0,0.0,0.0,0.0,0.0,0.0,0.0,0.0,0.0,0.0,0.0,0.0,0.0,0.0,0.0,0.0,0.0,3.4703,3.4703,3.4703,3.4703,3.4703,3.4703,3.4879,3.5256,3.5332,3.5106,3.4577,3.4577,3.4527,3.4439,3.3985,3.3771,3.3746,0.0,0.0,3.3102,3.3102,3.3102,3.3102,3.3102,3.3102,3.3102,3.3102,3.304,3.2952,3.2876,3.2514,3.1991,3.1449,3.1283,3.1173,3.0635,3.0485,3.0485,3.0485,3.0156,2.9801,2.9801,2.9801,2.9801,2.9801,2.9801,2.9801,2.9801,2.9801,2.9801,2.9801,2.9801,2.9801,2.9801,2.9801,2.9801,2.9801,2.9801,2.9801,2.9801,2.9801,2.9801,2.9801,2.9801,2.9801,2.9801,2.9801,2.9801,2.9801,2.9801,2.9801,2.9801,2.9801,2.9801,2.9801,2.9801,2.9801,2.9801,2.9801,2.9801,2.9801,2.9801,2.9801,1.7683,1.9095,1.9868,1.799,1.8211,1.8763,1.8292,0.0,0.0,0.0,0.0,0.0,0.0,0.0,0.0,0.0,0.0,0.0,0.0,0.0,0.0,0.0,0.0,0.0,0.0,0.0,0.0,0.0,0.0,0.0,3.4703,3.4703,3.4703,3.4703,3.4703,3.4515,3.4149,3.459,3.4552,3.4022,3.4022,3.3784,3.3341,3.3266,3.3228,3.3228,0.0,3.3102,3.3102,3.3102,3.3102,3.3102,3.3102,3.3102,3.3102,3.3102,3.2778,3.2267,3.1823,3.1597,3.1424,3.0899,3.0723,3.0623,3.008,2.9917,2.9917,2.9917,2.9854,2.9801,2.9801,2.9801,2.9801,2.9801,2.9801,2.9801,2.9801,2.9801,2.9801,2.9801,2.9801,2.9801,2.9801,2.9801,2.9801,2.9801,2.9801,2.9801,2.9801,2.9801,2.9801,2.9801,2.9801,2.9801,2.9801,2.9801,2.9801,2.9801,2.9801,2.9801,2.9801,2.9801,2.9801,2.9801,2.9801,2.9801,2.9801,2.9801,2.9801,2.9801,2.9801,2.9801,1.7138,1.8292,1.9164,1.8455,1.9754,2.1077,2.0538,0.0,0.0,0.0,0.0,0.0,0.0,0.0,0.0,0.0,0.0,0.0,0.0,0.0,0.0,0.0,0.0,0.0,0.0,0.0,0.0,0.0,0.0,0.0,3.3834,3.3834,3.3834,3.3834,3.3834,3.372,3.3468,3.3709,3.372,3.3468,3.3468,3.3341,3.3102,3.3102,3.3102,3.3102,0.0,3.3102,3.3102,3.3102,3.3102,3.3102,3.3102,3.3102,3.3065,3.2727,3.2252,3.1687,3.1148,3.0972,3.0884,3.0334,3.0168,3.0118,2.9867,2.9801,2.9801,2.9801,2.9801,2.9801,2.9801,2.9801,2.9801,2.9801,2.9801,2.9801,2.9801,2.9801,2.9801,2.9801,2.9801,2.9801,2.9801,2.9801,2.9801,2.9801,2.9801,2.9801,2.9801,2.9801,2.9801,2.9801,2.9801,2.9801,2.9801,2.9801,2.9801,2.9801,2.9801,2.9801,2.9801,2.9801,2.9801,2.9801,2.9801,2.9801,2.9801,2.9801,2.9801,2.9801,2.9801,2.9801,1.6825,1.7627,1.8518,1.9045,0.0,2.2205,2.2438,0.0,0.0,0.0,0.0,0.0,0.0,0.0,0.0,0.0,0.0,0.0,0.0,0.0,0.0,0.0,0.0,0.0,0.0,0.0,0.0,0.0,0.0,0.0,3.3102,3.3102,3.3102,3.3102,3.3102,3.3102,3.3102,3.3102,3.3102,3.3102,3.3102,3.3102,3.3102,3.3102,3.3102,3.3102,3.3102,3.3102,3.3102,3.3102,3.3102,3.3101,3.2941,3.2803,3.2638,3.2041,3.1574,3.1145,3.0598,3.0409,3.0347,2.993,2.9801,2.9801,2.9801,2.9801,2.9801,2.9801,2.9801,2.9801,2.9801,2.9801,2.9801,2.9801,2.9801,2.9801,2.9801,2.9801,2.9801,2.9801,2.9801,2.9801,2.9801,2.9801,2.9801,2.9801,2.9801,2.9801,2.9801,2.9801,2.9801,2.9801,2.9801,2.9801,2.9801,2.9801,2.9801,2.9801,2.9801,2.9801,2.9801,2.9801,2.9801,2.9801,2.9801,2.9801,2.9801,2.9801,2.9801,2.9801,2.9801,2.9801,1.7791,1.85,1.9077,1.9604,0.0,0.0,2.2468,2.2232,0.0,0.0,0.0,0.0,0.0,0.0,0.0,0.0,0.0,0.0,0.0,0.0,0.0,0.0,0.0,0.0,0.0,0.0,0.0,0.0,0.0,0.0,3.3102,3.3102,3.3102,3.3102,3.3102,3.3102,3.3102,3.3102,3.3102,3.3102,3.3102,3.3102,3.3102,3.3102,3.3102,3.3102,3.3102,3.3102,3.3102,3.3102,3.3102,3.304,3.2478,3.1964,3.1459,3.0911,3.0688,3.0585,3.0043,2.9864,2.9852,2.9804,2.9801,2.9801,2.9801,2.9801,2.9801,2.9801,2.9801,2.9801,2.9801,2.9801,2.9801,2.9801,2.9801,2.9801,2.9801,2.9801,2.9801,2.9801,2.9801,2.9801,2.9801,2.9801,2.9801,2.9801,2.9801,2.9801,2.9801,2.9801,2.9801,2.9801,2.9801,2.9801,2.9801,2.9801,2.9801,2.9801,2.9801,2.9801,2.9801,2.9801,2.9801,2.9801,2.9801,2.9801,2.9801,2.9801,2.9801,2.9801,2.9801,2.9801,1.6534,1.7803,1.9127,1.9666,0.0,0.0,0.0,0.0,0.0,0.0,0.0,0.0,0.0,0.0,0.0,0.0,0.0,0.0,0.0,0.0,0.0,0.0,0.0,0.0,0.0,0.0,0.0,0.0,0.0,0.0,0.0,3.2541,3.2541,3.2541,3.2213,3.2037,3.2037,3.2037,3.2037,3.2047,3.2378,3.2541,3.2528,3.22,3.2037,3.2037,3.2037,3.2037,3.2037,3.2037,3.2037,3.2012,3.1788,3.1373,3.0884,3.0673,3.0397,3.0068,2.9867,2.9801,2.9801,2.9801,2.9801,2.9801,2.9801,2.9801,2.9801,2.9801,2.9801,2.9801,2.9801,2.9801,2.9801,2.9801,2.9801,2.9801,2.9801,2.9801,2.9801,2.9801,2.9801,2.9801,2.9801,2.9801,2.9801,2.9801,2.9801,2.9801,2.9801,2.9801,2.9801,2.9801,2.9801,2.9801,2.9801,2.9801,2.9801,2.9801,2.9801,2.9801,2.9801,2.9801,2.9801,2.9801,2.9801,2.9801,2.9801,2.9801,2.9801,2.9801,2.9801,2.9801,1.5951,1.7314,1.8914,0.0,0.0,0.0,0.0,0.0,0.0,0.0,0.0,0.0,0.0,0.0,0.0,0.0,0.0,0.0,0.0,0.0,0.0,0.0,0.0,0.0,0.0,0.0,0.0,0.0,0.0,0.0,0.0,3.1951,3.1951,3.1951,3.1587,3.1396,3.1396,3.1396,3.1396,3.1396,3.1589,3.1777,3.1928,3.1572,3.1396,3.1396,3.1396,3.1396,3.1396,3.1396,3.1308,3.1148,3.1148,3.0821,3.0347,3.0347,3.0118,2.9801,2.9801,2.9801,2.9801,2.9801,2.9801,2.9801,2.9801,2.9801,2.9801,2.9801,2.9801,2.9801,2.9801,2.9801,2.9801,2.9801,2.9801,2.9801,2.9801,2.9801,2.9801,2.9801,2.9801,2.9801,2.9801,2.9801,2.9801,2.9801,2.9801,2.9801,2.9801,2.9801,2.9801,2.9801,2.9801,2.9801,2.9801,2.9801,2.9801,2.9801,2.9801,2.9801,2.9801,2.9801,2.9801,2.9801,2.9801,2.9801,2.9801,2.9801,2.9801,2.9801,2.9801,2.9801,1.6493,1.7326,1.8474,0.0,0.0,0.0,0.0,0.0,0.0,0.0,0.0,0.0,0.0,0.0,0.0,0.0,0.0,0.0,0.0,0.0,0.0,0.0,0.0,0.0,0.0,0.0,0.0,0.0,0.0,0.0,0.0,3.1396,3.1396,3.1396,3.1396,3.1384,3.1384,3.1384,3.1384,3.1371,3.0849,3.0874,3.1396,3.1384,3.1384,3.1384,3.1384,3.1384,3.1384,3.1384,3.1072,3.0588,3.0588,3.0269,2.9801,2.9801,2.9801,2.9801,2.9801,2.9801,2.9801,2.9801,2.9801,2.9801,2.9801,2.9801,2.9801,2.9801,2.9801,2.9801,2.9801,2.9801,2.9801,2.9801,2.9801,2.9801,2.9801,2.9801,2.9801,2.9801,2.9801,2.9801,2.9801,2.9801,2.9801,2.9801,2.9801,2.9801,2.9801,2.9801,2.9801,2.9801,2.9801,2.9801,2.9801,2.9801,2.9801,2.9801,2.9801,2.9801,2.9801,2.9801,2.9801,2.9801,2.9801,2.9801,2.9801,2.9801,2.9801,2.9801,2.9801,2.9801,1.5482,1.7311,0.0,0.0,0.0,0.0,0.0,0.0,0.0,0.0,0.0,0.0,0.0,0.0,0.0,0.0,0.0,0.0,0.0,0.0,0.0,0.0,0.0,0.0,0.0,0.0,0.0,0.0,0.0,0.0,0.0,3.0836,3.0836,3.0836,3.047,3.0279,3.0279,3.0279,3.0279,3.0279,3.0105,3.0319,3.0824,3.0444,3.0279,3.0279,3.0279,3.0279,3.0279,3.0279,3.0181,3.0043,3.0043,2.9942,2.9801,2.9801,2.9801,2.9801,2.9801,2.9801,2.9801,2.9801,2.9801,2.9801,2.9801,2.9801,2.9801,2.9801,2.9801,2.9801,2.9801,2.9801,2.9801,2.9801,2.9801,2.9801,2.9801,2.9801,2.9801,2.9801,2.9801,2.9801,2.9801,2.9801,2.9801,2.9801,2.9801,2.9801,2.9801,2.9801,2.9801,2.9801,2.9801,2.9801,2.9801,2.9801,2.9801,2.9801,2.9801,2.9801,2.9801,2.9801,2.9801,2.9801,2.9801,2.9801,2.9801,2.9801,2.9801,2.9801,2.9801,2.9801,1.6123,0.0,0.0,0.0,0.0,0.0,0.0,0.0,0.0,0.0,0.0,0.0,0.0,0.0,0.0,0.0,0.0,0.0,0.0,0.0,0.0,0.0,0.0,0.0,0.0,0.0,0.0,0.0,0.0,0.0,0.0,3.0271,3.0271,3.0271,2.9967,2.9801,2.9801,2.9801,2.9801,2.9801,2.9801,2.9967,3.0271,2.9952,2.9801,2.9801,2.9801,2.9801,2.9801,2.9801,2.9801,2.9801,2.9801,2.9801,2.9801,2.9801,2.9801,2.9801,2.9801,2.9801,2.9801,2.9801,2.9801,2.9801,2.9801,2.9801,2.9801,2.9801,2.9801,2.9801,2.9801,2.9801,2.9801,2.9801,2.9801,2.9801,2.9801,2.9801,2.9801,2.9801,2.9801,2.9801,2.9801,2.9801,2.9801,2.9801,2.9801,2.9801,2.9801,2.9801,2.9634,2.9177,2.9534,2.9624,2.9155,2.9534,2.9801,2.9801,2.9375,2.9116,2.9116,2.9566,2.9801,2.9801,2.9801,2.9573,2.9138,2.9573,2.9563,2.9148,2.9595,2.9801,1.7626,0.0,0.0,0.0,0.0,0.0,0.0,0.0,0.0,0.0,0.0,0.0,0.0,0.0,0.0,0.0,0.0,0.0,0.0,0.0,0.0,0.0,0.0,0.0,0.0,0.0,0.0,0.0,0.0,0.0,0.0,2.9801,2.9801,2.9801,2.9801,2.9801,2.9801,2.9801,2.9801,2.9801,2.9801,2.9801,2.9801,2.9801,2.9801,2.9801,2.9801,2.9801,2.9801,2.9801,2.9801,2.9801,2.9801,2.9801,2.9801,2.9801,2.9801,2.9801,2.9801,2.9801,2.9801,2.9801,2.9801,2.9801,2.9801,2.9801,2.9801,2.9801,2.9801,2.9801,2.9801,2.9801,2.9801,2.9801,2.9801,2.9801,2.9801,2.9801,2.9801,2.9801,2.9801,2.9801,2.9801,2.9801,2.9801,2.9801,2.9702,2.9653,2.9653,2.9566,2.9138,2.8195,2.8939,2.9128,2.8176,2.8969,2.9507,2.9507,2.854,2.7944,2.7944,2.8949,2.9507,2.9507,2.9507,2.8988,2.7966,2.8988,2.8969,2.7974,2.9128,2.9653,0.0,1.8292,0.0,0.0,0.0,0.0,0.0,0.0,0.0,0.0,0.0,0.0,0.0,0.0,0.0,0.0,0.0,0.0,0.0,0.0,0.0,0.0,0.0,0.0,0.0,0.0,0.0,0.0,0.0,0.0,2.9801,2.9801,2.9801,2.9801,2.9801,2.9801,2.9801,2.9801,2.9801,0.0,2.9801,2.9801,2.9801,2.9801,2.9801,2.9801,2.9801,2.9801,2.9801,2.9801,2.9801,2.9801,2.9801,2.9801,2.9801,2.9801,2.9801,2.9801,2.9801,2.9801,2.9801,2.9801,2.9801,2.9801,2.9801,2.9801,2.9801,2.9801,2.9801,2.9801,2.9801,2.9801,2.9801,2.9801,2.9801,2.9801,2.9801,2.9801,2.9801,2.9801,2.9801,2.9801,2.9801,2.9801,2.9801,2.9801,2.9047,2.8466,2.8466,2.7737,2.7432,2.8046,2.7564,2.7442,2.8056,2.7553,2.721,2.721,2.6975,2.6842,2.6842,2.7088,2.721,2.721,2.721,2.7098,2.6842,2.7098,2.7088,2.6872,2.7956,2.8466,0.0,0.0,0.0,0.0,0.0,0.0,0.0,0.0,0.0,0.0,0.0,0.0,0.0,0.0,0.0,0.0,0.0,0.0,0.0,0.0,0.0,0.0,0.0,0.0,0.0,0.0,0.0,0.0,0.0,2.9801,2.9801,2.9801,2.9801,2.9801,2.9801,2.9801,2.9801,2.9801,2.9801,2.9801,2.9801,2.9801,2.9801,2.9801,2.9801,2.9801,2.9801,2.9801,2.9801,2.9801,2.9801,2.9801,2.9801,2.9801,2.9801,2.9801,2.9801,2.9801,2.9801,2.9801,2.9801,2.9801,2.9801,2.9801,2.9801,2.9801,2.9801,2.9801,2.9801,2.9801,2.9801,2.9801,2.9801,2.9801,2.9801,2.9801,2.9801,2.9801,2.9801,2.9801,2.9801,2.9801,2.9801,2.9356,2.8809,2.8291,2.7706,2.7329,2.7329,2.6852,2.6513,2.6521,2.6512,2.6513,2.6521,2.6512,2.6504,2.6504,2.5996,2.5693,2.5693,2.5157,2.5389,2.6472,2.6504,2.6234,2.5693,2.6234,2.6224,2.5703,2.682,2.7329,0.0,0.0,0.0,0.0,0.0,0.0,0.0,0.0,0.0,0.0,0.0,0.0,0.0,0.0,0.0,0.0,0.0,0.0,0.0,0.0,0.0,0.0,0.0,0.0,0.0,0.0,0.0,0.0,0.0,2.9801,2.9801,2.9801,2.9801,2.9801,2.9801,2.9801,2.9801,2.9801,2.9801,2.9801,2.9801,2.9801,2.9801,2.9801,2.9801,2.9801,2.9801,2.9801,2.9801,2.9801,2.9801,2.9801,2.9801,2.9801,2.9801,2.9801,2.9801,2.9801,2.9801,2.9801,2.9801,2.9801,2.9801,2.9801,2.9801,2.9801,2.9801,2.9801,2.9801,2.9801,2.9801,2.9801,2.9801,2.9801,2.9653,2.9566,2.9763,2.9801,2.9743,2.9534,2.9368,2.9229,2.9229,2.8448,2.7522,2.6626,2.6327,2.6213,2.6213,2.6027,2.563,2.4883,2.5473,2.5609,2.4861,2.5484,2.5902,2.5902,2.5031,2.451,2.451,2.3605,2.3984,2.5881,2.5902,2.5452,2.451,2.5452,2.5431,2.4532,2.5683,2.6213,0.0,0.0,0.0,0.0,0.0,0.0,0.0,0.0,0.0,0.0,0.0,0.0,0.0,0.0,0.0,0.0,0.0,0.0,0.0,0.0,0.0,0.0,0.0,0.0,0.0,0.0,0.0,0.0,2.9801,2.9801,2.9801,2.9801,2.9801,2.9801,2.9801,2.9801,2.9801,2.9801,2.9801,2.9801,2.9801,2.9801,2.9801,2.9801,2.9801,2.9801,2.9801,2.9801,2.9801,2.9801,2.9801,2.9801,2.9801,2.9801,2.9801,2.9801,2.9801,2.9801,2.9801,2.9801,2.9801,2.9801,2.9801,2.9801,2.9801,2.9801,2.9801,2.9801,2.9801,2.9801,2.9801,2.9801,2.9801,2.9801,2.9047,2.8597,2.9595,2.9801,2.9505,2.8527,2.7585,2.6945,2.6945,2.6811,2.6679,2.6513,2.5661,2.5031,2.5031,2.4167,2.3876,2.4713,2.4049,2.3897,2.4723,2.4027,2.3551,2.3551,2.3408,2.3332,2.3332,2.3178,2.3244,2.355,2.3551,2.3484,2.3332,2.3484,2.3484,2.3354,2.45,2.5031,0.0,0.0,0.0,0.0,0.0,0.0,0.0,0.0,0.0,0.0,0.0,0.0,0.0,0.0,0.0,0.0,0.0,0.0,0.0,0.0,0.0,0.0,0.0,0.0,0.0,0.0,0.0,0.0,2.9616,2.9801,2.9801,2.9197,2.9148,2.9782,2.9187,2.9157,2.9792,2.9801,2.9801,2.9792,2.9157,2.8848,2.8838,2.8231,2.8281,2.8848,2.8848,2.851,2.7951,2.7951,2.7951,2.7951,2.7951,2.7951,2.7951,2.7951,2.7951,2.7951,2.7951,2.7951,2.7951,2.7951,2.7951,2.7951,2.7951,2.7951,2.7951,2.7951,2.7951,2.7951,2.7951,2.7951,2.7951,2.7951,2.7565,2.7341,2.7839,2.7951,2.7809,2.73,2.6821,2.6296,2.5662,2.5546,2.5337,2.4691,2.4167,2.3854,2.3854,2.3408,2.3289,2.379,2.3397,2.3299,2.38,2.3387,2.3091,2.3091,2.3091,2.3091,2.3091,2.3091,2.3091,2.3091,2.3091,2.3091,2.3091,2.3091,2.3091,2.3113,2.3616,2.3854,0.0,0.0,0.0,0.0,0.0,0.0,0.0,0.0,0.0,0.0,0.0,0.0,0.0,0.0,0.0,0.0,0.0,0.0,0.0,0.0,0.0,0.0,0.0,0.0,0.0,0.0,0.0,0.0,2.9104,2.9374,2.9374,2.856,2.8492,2.9346,2.854,2.8511,2.9355,2.9503,2.9641,2.9792,2.8937,2.8537,2.8498,2.7402,2.7187,2.7693,2.7693,2.7239,2.6504,2.6504,2.6504,2.6504,2.6504,2.6504,2.6504,2.6504,2.6504,2.6504,2.6504,2.6504,2.6504,2.6504,2.6504,2.6504,2.6504,2.6504,2.6504,2.6504,2.6504,2.6504,2.6504,2.6504,2.6504,2.6504,2.6276,2.6151,2.6431,2.6265,2.6068,2.6068,2.5829,2.5368,2.451,2.4372,2.4081,2.3233,2.3091,2.3091,2.3091,2.3091,2.3091,2.3091,2.3091,2.3091,2.3091,2.3091,2.3091,2.3091,2.3091,2.3091,2.3091,2.3091,2.3091,2.3091,2.3091,2.3091,2.3091,2.3091,2.3091,2.3091,2.3091,2.3091,0.0,0.0,0.0,0.0,0.0,0.0,0.0,0.0,0.0,0.0,0.0,0.0,0.0,0.0,0.0,0.0,0.0,0.0,0.0,0.0,0.0,0.0,0.0,0.0,0.0,0.0,0.0,0.0,2.8172,2.8197,2.8197,2.813,2.813,2.8188,2.813,2.813,2.8197,2.8693,2.9233,2.9801,2.9743,2.9702,2.9672,2.8537,2.7493,2.6575,2.6575,2.6544,2.6504,2.6504,2.6504,2.6504,2.6504,2.6504,2.6504,2.6504,2.6504,2.6504,2.6504,2.6504,2.6504,2.6504,2.6504,2.6504,2.6504,2.6504,2.6504,2.6504,2.6504,2.6504,2.6504,2.6504,2.6504,2.6504,2.5672,2.5178,2.6265,2.5651,2.4893,2.4893,2.4017,2.3266,2.32,2.3189,2.3167,2.3113,2.3091,2.3091,2.3091,2.3091,2.3091,2.3091,2.3091,2.3091,2.3091,2.3091,2.3091,2.3091,2.3091,2.3091,2.3091,2.3091,2.3091,2.3091,2.3091,2.3091,2.3091,2.3091,2.3091,2.3091,2.3091,2.3091,0.0,0.0,0.0,0.0,0.0,0.0,0.0,0.0,0.0,0.0,0.0,0.0,0.0,0.0,0.0,0.0,0.0,0.0,0.0,0.0,0.0,0.0,0.0,0.0,0.0,0.0,0.0,0.0,0.0,2.81,2.81,2.745,2.7394,2.8082,2.7431,2.7403,2.8091,2.7646,2.7529,2.7733,2.6387,2.5767,2.5718,2.4618,2.3906,2.3546,2.3546,2.3835,2.4317,2.4317,2.4317,2.4317,2.4317,2.4317,2.4317,2.4317,2.4317,2.4317,2.4317,2.4317,2.4317,2.4317,2.4317,2.4317,2.4317,2.4317,2.4317,2.4317,2.4317,2.4317,2.4317,2.4317,2.4317,2.4317,2.4016,2.3822,2.4231,2.4005,2.3703,2.3703,2.3387,2.3091,2.3091,2.3091,2.3091,2.3091,2.3091,2.3091,2.3091,2.3091,2.3091,2.3091,2.3091,2.3091,2.3091,2.3091,2.3091,2.3091,2.3091,2.3091,2.3091,2.3091,2.3091,2.3091,2.3091,2.3091,2.3091,2.3091,2.3091,2.3091,2.3091,2.3091,0.0,0.0,0.0,0.0,0.0,0.0,0.0,0.0,0.0,0.0,0.0,0.0,0.0,0.0,0.0,0.0,0.0,0.0,0.0,0.0,0.0,0.0,0.0,0.0,0.0,0.0,0.0,0.0,0.0,0.0,2.7566,2.6891,2.6837,2.7539,2.6873,2.6932,2.7824,2.6836,2.6423,2.658,2.4884,2.407,2.402,2.294,2.2441,2.2411,2.2061,2.2207,2.2713,2.2839,2.2897,2.2907,2.3053,2.3091,2.3091,2.3091,2.3091,2.3091,2.3091,2.3091,2.3091,2.3091,2.3091,2.3091,2.3091,2.3091,2.3091,2.3091,2.3091,2.3091,2.3091,2.3091,2.3091,2.3091,2.3091,2.3091,2.3091,2.3091,2.3091,2.3091,2.3091,2.3091,2.3091,2.3091,2.3091,2.3091,2.3091,2.3091,2.3091,2.3091,2.3091,2.3091,2.3091,2.3091,2.3091,2.3091,2.3091,2.3091,2.2975,2.2897,2.2897,2.2771,2.2693,2.2693,2.2693,2.2693,2.2693,2.2829,2.283,2.2693,2.2693,2.2771,0.0,0.0,0.0,0.0,0.0,0.0,0.0,0.0,0.0,0.0,0.0,0.0,0.0,0.0,0.0,0.0,0.0,0.0,0.0,0.0,0.0,0.0,0.0,0.0,0.0,0.0,0.0,0.0,2.6457,2.6457,2.6457,2.6461,2.6474,2.6508,2.6461,2.6724,2.7273,2.6215,2.5958,2.6507,2.553,2.5058,2.5029,2.3929,2.34,2.3361,2.2309,2.1856,2.1885,2.2314,2.248,2.2528,2.2907,2.3062,2.3062,2.3062,2.3062,2.3062,2.3062,2.3062,2.3073,2.3082,2.3081,2.3081,2.3102,2.3091,2.3091,2.3091,2.3091,2.3091,2.3091,2.3092,2.3092,2.3102,2.3092,2.3092,2.3091,2.3091,2.3091,2.3091,2.3091,2.3091,2.3091,2.3091,2.3091,2.3091,2.3091,2.3091,2.3091,2.3091,2.3091,2.3091,2.3091,2.3091,2.3091,2.3092,2.3081,2.3081,2.2692,2.248,2.248,2.211,2.1895,2.1895,2.1895,2.1885,2.1876,2.2295,2.2285,2.1895,2.1895,2.211,1.2279,0.0,0.0,0.0,0.0,0.0,0.0,0.0,0.0,0.0,0.0,0.0,0.0,0.0,0.0,0.0,0.0,0.0,0.0,0.0,0.0,0.0,0.0,0.0,0.0,0.0,0.0,0.0,2.5264,2.5264,2.5264,2.5644,2.6051,2.6483,2.5786,2.5842,2.6717,2.4274,2.3484,2.4335,2.2675,2.1867,2.1858,2.1546,2.14,2.138,2.1086,2.0957,2.1016,2.1758,2.2071,2.2081,2.2187,2.2236,2.2236,2.2236,2.2236,2.2236,2.2236,2.2236,2.2285,2.2566,2.2675,2.2723,2.3014,2.3091,2.3091,2.3091,2.3091,2.3091,2.3091,2.2878,2.2742,2.3034,2.2888,2.2752,2.3043,2.3091,2.3091,2.3091,2.3091,2.3091,2.3091,2.3091,2.3091,2.3091,2.3091,2.3091,2.3091,2.3091,2.3091,2.3091,2.3091,2.3091,2.3091,2.2829,2.2675,2.2675,2.2295,2.2071,2.2071,2.1963,2.1895,2.1895,2.1895,2.1728,2.1386,2.1846,2.2012,2.1895,2.1895,2.1963,0.0,0.0,0.0,0.0,0.0,0.0,0.0,1.6778,0.0,0.0,0.0,0.0,0.0,0.0,0.0,0.0,0.0,0.0,0.0,0.0,0.0,0.0,0.0,0.0,0.0,2.4132,2.4116,2.3737,2.3721,2.3721,2.3721,2.4364,2.4727,2.4709,2.5059,2.5172,2.4998,2.3411,2.2711,2.286,2.1327,2.0605,2.0605,2.0605,2.0605,2.0605,2.0605,2.0605,2.0644,2.1153,2.1455,2.1631,2.1827,2.1895,2.1895,2.1895,2.1895,2.1895,2.1895,2.1895,2.1934,2.2168,2.2246,2.2284,2.2528,2.2606,2.2606,2.2606,2.2606,2.2606,2.2606,2.2432,2.2314,2.2537,2.2421,2.2304,2.2558,2.2606,2.2693,2.3023,2.3091,2.3091,2.3091,2.3091,2.3091,2.3091,2.3091,2.3091,2.3091,2.2956,2.2848,2.2848,2.2703,2.2606,2.2606,2.2382,2.2246,2.2246,2.1855,2.1611,2.1611,2.1446,2.1358,2.1358,2.1358,2.1221,2.0947,2.1386,2.1514,2.1358,2.1523,2.1611,0.0,0.0,0.0,0.0,0.0,0.0,1.6706,1.6337,1.5917,0.0,0.0,0.0,0.0,0.0,0.0,0.0,0.0,0.0,0.0,0.0,0.0,0.0,0.0,0.0,2.2595,2.2941,2.2887,2.2077,2.2018,2.2051,2.2105,2.2856,2.2938,2.2221,2.4058,2.4343,2.2834,2.2964,2.2643,2.1861,2.0909,2.0459,2.0459,2.0498,2.0527,2.0537,2.0586,2.0605,2.0605,2.0605,2.0811,2.1171,2.1592,2.1759,2.1759,2.1759,2.1759,2.1759,2.1759,2.1759,2.1758,2.1807,2.1827,2.1827,2.1885,2.1895,2.1895,2.1895,2.1895,2.1895,2.1895,2.1856,2.1836,2.1885,2.1856,2.1836,2.1885,2.1895,2.2109,2.283,2.2965,2.2965,2.2965,2.2965,2.2965,2.2965,2.2965,2.2965,2.2965,2.2654,2.2431,2.2431,2.2109,2.1895,2.1895,2.1846,2.1827,2.1827,2.1396,2.1082,2.0962,2.0722,2.0547,2.0421,2.0547,2.0605,2.0605,2.0957,2.0947,2.0605,2.0977,2.1132,1.4977,1.5452,1.6027,0.0,0.0,0.0,1.5492,1.522,1.5236,0.0,0.0,0.0,0.0,0.0,0.0,0.0,0.0,0.0,0.0,0.0,0.0,0.0,0.0,0.0,2.1361,2.1435,2.1327,2.0945,2.0903,2.1099,2.1525,2.1714,2.1932,2.2193,2.1897,2.1926,2.2333,2.0868,2.0425,2.1018,2.0036,1.955,1.956,1.9883,2.0039,2.0059,2.0439,2.0605,2.0605,2.0605,2.0644,2.0723,2.082,2.085,2.085,2.085,2.085,2.085,2.085,2.085,2.0918,2.123,2.1337,2.1405,2.1788,2.1895,2.1895,2.1895,2.1895,2.1895,2.1895,2.1611,2.1425,2.1817,2.1611,2.1435,2.1817,2.1895,2.1944,2.21,2.2129,2.2129,2.2129,2.2129,2.2129,2.2129,2.2129,2.2129,2.2129,2.2071,2.2022,2.2022,2.1944,2.1895,2.1895,2.1552,2.1337,2.1337,2.0957,2.0331,1.9462,2.0176,2.0187,1.9333,2.0157,2.0605,2.0605,2.0684,2.0684,2.0605,2.0684,2.0723,0.0,0.0,1.6443,1.6216,0.0,0.0,0.0,0.0,1.5537,1.6387,0.0,0.0,0.0,0.0,0.0,0.0,0.0,0.0,0.0,0.0,0.0,0.0,0.0,0.0,2.0101,1.9712,1.9268,1.8699,1.8869,1.9117,1.9389,2.0018,2.0277,2.0109,2.0754,2.0881,2.0414,2.0172,2.0054,2.0054,1.9541,1.9296,1.9315,1.9511,1.96,1.9609,1.9853,1.995,1.995,1.995,2.0068,2.0273,2.0507,2.0605,2.0605,2.0605,2.0605,2.0605,2.0605,2.0605,2.0635,2.084,2.0898,2.0937,2.1182,2.125,2.125,2.125,2.125,2.125,2.125,2.1074,2.0967,2.1202,2.1065,2.0967,2.1202,2.125,2.125,2.125,2.125,2.1387,2.1837,2.1895,2.1895,2.1895,2.1895,2.1895,2.1895,2.1699,2.1552,2.1552,2.1367,2.125,2.125,2.0547,2.0334,2.0869,2.0213,1.9805,1.9805,2.0313,2.0343,1.9815,2.0323,2.0605,2.0605,2.0605,2.0605,2.0605,2.0605,2.0605,0.0,0.0,0.0,0.0,0.0,1.6459,0.0,0.0,0.0,1.6764,0.0,0.0,0.0,0.0,0.0,0.0,0.0,0.0,0.0,0.0,0.0,0.0,0.0,0.0,0.0,1.793,1.7282,1.6742,1.6904,1.7096,1.7254,1.8332,1.8605,1.7916,1.9748,2.0025,1.8498,1.9668,1.9851,1.9052,1.9052,1.9052,1.9052,1.913,1.9169,1.917,1.9257,1.9296,1.9296,1.9296,1.9482,1.9825,2.0293,2.0517,2.0605,2.0605,2.0605,2.0605,2.0605,2.0605,2.0605,2.0605,2.0605,2.0605,2.0605,2.0605,2.0605,2.0605,2.0605,2.0605,2.0605,2.0605,2.0605,2.0605,2.0605,2.0605,2.0605,2.0605,2.0605,2.0605,2.0605,2.082,2.1524,2.1651,2.1651,2.1651,2.1651,2.1651,2.1651,2.1318,2.1004,2.0794,2.0486,2.0206,1.9981,1.9372,1.9372,2.0245,1.9668,1.9599,2.0265,2.0079,1.9962,1.9962,1.9962,1.9962,1.9972,2.0177,2.0401,2.0605,2.0605,2.0605,0.0,0.0,0.0,0.0,1.8028,0.0,0.0,0.0,1.6177,1.5349,0.0,0.0,0.0,0.0,0.0,0.0,0.0,0.0,0.0,0.0,0.0,0.0,0.0,0.0,0.0,1.6131,1.5969,1.6646,1.6022,1.5961,1.6744,1.7314,1.7575,1.7468,1.807,1.8281,1.8068,1.8228,1.8256,1.8146,1.8146,1.8146,1.8155,1.8519,1.8684,1.8704,1.9121,1.9296,1.9296,1.9296,1.9325,1.9413,1.9824,2.0234,2.0605,2.0605,2.0605,2.0605,2.0605,2.0605,2.0605,2.0605,2.0605,2.0605,2.0605,2.0605,2.0605,2.0605,2.0605,2.0605,2.0605,2.0605,2.0605,2.0605,2.0605,2.0605,2.0605,2.0605,2.0605,2.0605,2.0605,2.0625,2.0723,2.0752,2.0752,2.0752,2.0752,2.0752,2.0752,2.0703,2.0293,1.9347,1.9202,1.8769,1.7759,1.849,1.9046,1.9165,1.9962,2.005,1.9224,1.821,1.7668,1.7668,1.7668,1.7668,1.7678,1.8689,1.9668,2.0605,2.0605,2.0605,0.0,0.0,0.0,0.0,0.0,0.0,1.6897,0.0,1.5937,0.0,0.0,0.0,0.0,0.0,0.0,0.0,0.0,0.0,0.0,0.0,0.0,0.0,0.0,0.0,0.0,0.0,0.0,0.0,1.4855,1.5027,1.5895,1.6392,1.6754,1.6994,1.7422,1.7655,1.7655,1.7882,1.7999,1.7999,1.7999,1.7999,1.8009,1.8176,1.8246,1.8255,1.8458,1.8545,1.8545,1.8545,1.8683,1.8908,1.9074,1.9424,1.9852,1.9852,1.999,2.0185,2.0185,2.0371,2.0605,2.0605,2.0605,2.0605,2.0605,2.0605,2.0605,2.0605,2.0605,2.0605,2.0605,2.0605,2.0605,2.0605,2.0605,2.0605,2.0605,2.0605,2.0605,2.0605,2.0605,2.0605,2.0605,2.0605,2.0605,2.0605,2.0605,2.0382,1.9746,1.9668,1.9244,1.8129,1.8608,1.8808,1.833,1.8119,1.83,1.8957,1.8799,1.848,1.803,1.7547,1.7302,1.7302,1.7302,1.7636,1.829,1.8768,1.955,2.0605,2.0605,2.0605,1.7978,0.0,0.0,0.0,0.0,0.0,0.0,0.0,0.0,0.0,0.0,0.0,0.0,0.0,0.0,0.0,0.0,0.0,0.0,0.0,0.0,0.0,0.0,0.0,0.0,0.0,0.0,0.0,0.0,1.4007,1.4988,1.5593,1.6043,1.6326,1.6906,1.7207,1.7207,1.7627,1.7842,1.7842,1.7959,1.7999,1.7999,1.7999,1.7999,1.7999,1.7999,1.7999,1.7999,1.7999,1.8176,1.8441,1.8441,1.8644,1.8965,1.9208,1.9482,1.9746,1.9864,2.0205,2.0605,2.0605,2.0605,2.0605,2.0605,2.0605,2.0605,2.0605,2.0605,2.0605,2.0605,2.0605,2.0605,2.0605,2.0605,2.0605,2.0605,2.0605,2.0605,2.0605,2.0605,2.0605,2.0605,2.0605,2.0605,2.0605,2.0343,1.9991,1.95,1.8907,1.822,1.7393,1.7779,1.798,1.7678,1.7172,1.7344,1.846,1.7759,1.717,1.6866,1.6856,1.6856,1.6856,1.6856,1.7405,1.853,1.8848,1.9402,2.0177,2.0459,2.0605,0.0,0.0,0.0,1.6876,0.0,0.0,0.0,0.0,1.5204,0.0,0.0,0.0,0.0,0.0,0.0,0.0,0.0,0.0,0.0,0.0,0.0,0.0,0.0,0.0,0.0,0.0,0.0,0.0,0.0,0.0,1.4068,1.4966,1.5432,1.5435,1.6276,1.6726,1.6726,1.7187,1.7419,1.7419,1.7804,1.7999,1.7999,1.7999,1.7999,1.7999,1.7999,1.7999,1.7999,1.7999,1.8009,1.8029,1.8029,1.8029,1.8136,1.8993,1.9315,1.9365,1.9766,2.0205,2.0605,2.0605,2.0605,2.0605,2.0605,2.0605,2.0605,2.0605,2.0605,2.0605,2.0605,2.0605,2.0605,2.0605,2.0605,2.0605,2.0605,2.0605,2.0605,2.0605,2.0605,2.0605,2.0605,2.0605,2.0605,2.0605,1.9717,1.9412,2.0421,1.8679,1.7334,1.7302,1.6406,1.539,1.4356,1.5179,1.6211,1.7283,1.7314,1.6836,1.5789,1.5748,1.5748,1.5748,1.5748,1.6283,1.7354,1.846,1.9016,1.9076,2.0118,2.0605,0.0,0.0,1.9215,1.7923,0.0,0.0,0.0,0.0,0.0,0.0,0.0,0.0,0.0,0.0,0.0,0.0,0.0,0.0,0.0,0.0,0.0,0.0,0.0,0.0,0.0,0.0,0.0,0.0,1.197,0.0,0.0,1.4231,1.4676,1.499,1.5855,1.6297,1.6297,1.6721,1.6937,1.6937,1.7066,1.7134,1.7153,1.7461,1.7606,1.7616,1.7882,1.7999,1.7999,1.7999,1.7999,1.7999,1.7999,1.7999,1.8038,1.8331,1.8604,1.8898,1.9355,1.9609,1.9735,1.9735,1.9735,1.9794,2.0058,2.0146,2.0205,2.0507,2.0605,2.0605,2.0605,2.0605,2.0605,2.0605,2.0605,2.0605,2.0605,2.0605,2.0605,2.0605,2.0605,2.0605,2.0605,2.0605,2.0605,2.0605,2.0294,1.9658,1.856,1.7759,1.6762,1.5332,1.5493,1.5548,1.5189,1.5486,1.5548,1.5196,1.5176,1.5019,1.466,1.4646,1.4646,1.4646,1.4646,1.5168,1.6242,1.6623,1.7174,1.7898,1.9016,1.9923,1.9052,1.9252,0.0,1.8152,1.7593,0.0,1.5568,0.0,0.0,0.0,0.0,0.0,0.0,0.0,0.0,0.0,0.0,0.0,0.0,0.0,0.0,0.0,0.0,0.0,0.0,0.0,1.0688,1.1316,0.0,0.0,0.0,0.0,1.4091,1.4541,1.5259,1.5713,1.5845,1.6269,1.6494,1.6486,1.6627,1.6697,1.6716,1.7013,1.7244,1.7411,1.7666,1.7871,1.7999,1.7999,1.7999,1.7999,1.7999,1.7999,1.7999,1.7999,1.8246,1.8637,1.8946,1.916,1.9296,1.9296,1.9296,1.9345,1.9609,1.9786,1.9932,2.0097,2.0361,2.0537,2.0214,2.0371,2.0566,2.039,2.0478,2.0605,2.0605,2.0605,2.0605,2.0605,2.0605,2.0605,2.0605,2.0605,2.0605,2.0605,2.0284,1.952,1.8089,1.7222,1.6198,1.4817,1.4946,1.5137,1.5137,1.5137,1.4842,1.4141,1.3988,1.3918,1.3918,1.3828,1.3963,1.434,1.435,1.4938,1.6138,1.6138,1.6535,1.7314,1.8049,1.8769]}]]